<?xml version="1.0" encoding="UTF-8" standalone="yes"?>
<gpx
 xmlns="http://www.topografix.com/GPX/1/1"
 creator="OziExplorer Version 3956f - http://www.oziexplorer.com"
 version="1.1"
 xmlns:xsi="http://www.w3.org/2001/XMLSchema-instance"
 xsi:schemaLocation="http://www.topografix.com/GPX/1/1 http://www.topografix.com/GPX/1/1/gpx.xsd">
<metadata>
 <time>2023-02-01T08:55:57Z</time>
 <bounds minlat="30.882670" minlon="35.049340" maxlat="31.037790" maxlon="35.369480"/>
</metadata>
<wpt lat="30.8921900" lon="35.1668100">
 <time>2023-02-01T10:53:28.664Z</time>
 <name>Brod</name>
 <sym>Flag, Red</sym>
</wpt>
<wpt lat="30.9038400" lon="35.1966700">
 <time>2023-02-01T10:53:28.708Z</time>
 <name>GeveyZin</name>
 <sym>Flag, Red</sym>
</wpt>
<wpt lat="30.9253200" lon="35.2100400">
 <time>2023-02-01T10:53:28.713Z</time>
 <name>GeveyShaish</name>
 <sym>Flag, Red</sym>
</wpt>
<wpt lat="31.0296400" lon="35.0638500">
 <time>2023-02-01T10:53:28.718Z</time>
 <name>Start</name>
 <sym>Bike Trail</sym>
</wpt>
<wpt lat="30.8944500" lon="35.1630700">
 <time>2023-02-01T10:53:28.723Z</time>
 <name>Ein Zin</name>
 <sym>Flag, Red</sym>
</wpt>
<wpt lat="30.8903900" lon="35.1561200">
 <time>2023-02-01T10:53:28.728Z</time>
 <name>Ein Akrobim</name>
 <sym>Flag, Red</sym>
</wpt>
<wpt lat="30.9330601" lon="35.2426887">
 <time>2023-02-01T10:53:28.739Z</time>
 <name>MapalHatsra</name>
 <sym>Flag, Red</sym>
</wpt>
<wpt lat="30.9263267" lon="35.2450275">
 <time>2023-02-01T10:53:28.748Z</time>
 <name>MapalZin</name>
 <sym>Flag, Red</sym>
</wpt>
<wpt lat="30.9265530" lon="35.2628910">
 <time>2023-02-01T10:53:28.757Z</time>
 <name>MrpesetZin</name>
 <sym>Flag, Red</sym>
</wpt>
<wpt lat="30.9205791" lon="35.2789736">
 <time>2023-02-01T10:53:28.764Z</time>
 <name>Doroga</name>
 <sym>Flag, Red</sym>
</wpt>
<wpt lat="30.8843019" lon="35.1426315">
 <time>2023-02-01T10:53:28.772Z</time>
 <name>Red</name>
 <sym>Flag, Red</sym>
</wpt>
<wpt lat="30.9400100" lon="35.3694800">
 <time>2023-02-01T10:53:28.782Z</time>
 <name>Finish</name>
 <sym>Flag, Blue</sym>
</wpt>
<wpt lat="30.9326300" lon="35.1425600">
 <time>2023-02-01T10:53:28.791Z</time>
 <name>MaleAkrobim</name>
 <sym>Flag, Red</sym>
</wpt>
<wpt lat="30.9535300" lon="35.0773700">
 <time>2023-02-01T10:53:28.799Z</time>
 <name>Kemping</name>
 <sym>Flag, Red</sym>
</wpt>
<trk>
 <name>Mamshit-Akrobim-Zin-EinTamar,72km</name>
 <desc>Mamshit-Akrobim-Zin-EinTamar,72km</desc>
<trkseg>
<trkpt lat="31.0296100" lon="35.0637700">
<ele>450.620026</ele>
<time>2023-02-01T10:53:28.799Z</time>
</trkpt>
<trkpt lat="31.0296100" lon="35.0637700">
<ele>450.620026</ele>
<time>2023-02-01T10:53:28.799Z</time>
</trkpt>
<trkpt lat="31.0299500" lon="35.0636600">
<ele>449.029999</ele>
<time>2023-02-01T10:53:28.799Z</time>
</trkpt>
<trkpt lat="31.0301100" lon="35.0636200">
<ele>445.799988</ele>
<time>2023-02-01T10:53:28.799Z</time>
</trkpt>
<trkpt lat="31.0306900" lon="35.0635800">
<ele>444.509979</ele>
<time>2023-02-01T10:53:28.799Z</time>
</trkpt>
<trkpt lat="31.0312700" lon="35.0635400">
<ele>456.440002</ele>
<time>2023-02-01T10:53:28.799Z</time>
</trkpt>
<trkpt lat="31.0314900" lon="35.0635400">
<ele>461.739990</ele>
<time>2023-02-01T10:53:28.799Z</time>
</trkpt>
<trkpt lat="31.0316100" lon="35.0635500">
<ele>464.209991</ele>
<time>2023-02-01T10:53:28.799Z</time>
</trkpt>
<trkpt lat="31.0317500" lon="35.0635700">
<ele>466.500000</ele>
<time>2023-02-01T10:53:28.799Z</time>
</trkpt>
<trkpt lat="31.0318600" lon="35.0636200">
<ele>468.000000</ele>
<time>2023-02-01T10:53:28.799Z</time>
</trkpt>
<trkpt lat="31.0320500" lon="35.0637300">
<ele>467.500000</ele>
<time>2023-02-01T10:53:28.799Z</time>
</trkpt>
<trkpt lat="31.0321700" lon="35.0638200">
<ele>466.540009</ele>
<time>2023-02-01T10:53:28.799Z</time>
</trkpt>
<trkpt lat="31.0324200" lon="35.0641100">
<ele>465.480011</ele>
<time>2023-02-01T10:53:28.799Z</time>
</trkpt>
<trkpt lat="31.0325100" lon="35.0642500">
<ele>465.990021</ele>
<time>2023-02-01T10:53:28.799Z</time>
</trkpt>
<trkpt lat="31.0327600" lon="35.0646900">
<ele>464.350006</ele>
<time>2023-02-01T10:53:28.799Z</time>
</trkpt>
<trkpt lat="31.0330200" lon="35.0651300">
<ele>464.809998</ele>
<time>2023-02-01T10:53:28.799Z</time>
</trkpt>
<trkpt lat="31.0332700" lon="35.0655600">
<ele>466.320007</ele>
<time>2023-02-01T10:53:28.799Z</time>
</trkpt>
<trkpt lat="31.0335300" lon="35.0660000">
<ele>469.379974</ele>
<time>2023-02-01T10:53:28.799Z</time>
</trkpt>
<trkpt lat="31.0337800" lon="35.0664400">
<ele>470.130005</ele>
<time>2023-02-01T10:53:28.799Z</time>
</trkpt>
<trkpt lat="31.0340700" lon="35.0669500">
<ele>465.950012</ele>
<time>2023-02-01T10:53:28.799Z</time>
</trkpt>
<trkpt lat="31.0343500" lon="35.0674500">
<ele>470.579987</ele>
<time>2023-02-01T10:53:28.799Z</time>
</trkpt>
<trkpt lat="31.0346400" lon="35.0679400">
<ele>471.949982</ele>
<time>2023-02-01T10:53:28.799Z</time>
</trkpt>
<trkpt lat="31.0349200" lon="35.0684300">
<ele>468.439972</ele>
<time>2023-02-01T10:53:28.799Z</time>
</trkpt>
<trkpt lat="31.0351700" lon="35.0688000">
<ele>462.799988</ele>
<time>2023-02-01T10:53:28.799Z</time>
</trkpt>
<trkpt lat="31.0353400" lon="35.0689700">
<ele>460.130005</ele>
<time>2023-02-01T10:53:28.799Z</time>
</trkpt>
<trkpt lat="31.0354300" lon="35.0690300">
<ele>458.839996</ele>
<time>2023-02-01T10:53:28.799Z</time>
</trkpt>
<trkpt lat="31.0355600" lon="35.0690800">
<ele>456.899994</ele>
<time>2023-02-01T10:53:28.799Z</time>
</trkpt>
<trkpt lat="31.0361400" lon="35.0692700">
<ele>454.010010</ele>
<time>2023-02-01T10:53:28.799Z</time>
</trkpt>
<trkpt lat="31.0361100" lon="35.0694500">
<ele>453.010010</ele>
<time>2023-02-01T10:53:28.799Z</time>
</trkpt>
<trkpt lat="31.0360300" lon="35.0699800">
<ele>455.250031</ele>
<time>2023-02-01T10:53:28.799Z</time>
</trkpt>
<trkpt lat="31.0359500" lon="35.0705100">
<ele>460.349976</ele>
<time>2023-02-01T10:53:28.799Z</time>
</trkpt>
<trkpt lat="31.0358600" lon="35.0710400">
<ele>464.880005</ele>
<time>2023-02-01T10:53:28.799Z</time>
</trkpt>
<trkpt lat="31.0357800" lon="35.0715700">
<ele>466.829987</ele>
<time>2023-02-01T10:53:28.799Z</time>
</trkpt>
<trkpt lat="31.0357000" lon="35.0720900">
<ele>465.019989</ele>
<time>2023-02-01T10:53:28.799Z</time>
</trkpt>
<trkpt lat="31.0356200" lon="35.0726200">
<ele>465.199982</ele>
<time>2023-02-01T10:53:28.799Z</time>
</trkpt>
<trkpt lat="31.0355300" lon="35.0731500">
<ele>467.029999</ele>
<time>2023-02-01T10:53:28.799Z</time>
</trkpt>
<trkpt lat="31.0354500" lon="35.0736800">
<ele>467.110016</ele>
<time>2023-02-01T10:53:28.799Z</time>
</trkpt>
<trkpt lat="31.0353700" lon="35.0742100">
<ele>467.050018</ele>
<time>2023-02-01T10:53:28.799Z</time>
</trkpt>
<trkpt lat="31.0353700" lon="35.0742100">
<ele>467.050018</ele>
<time>2023-02-01T10:53:28.799Z</time>
</trkpt>
<trkpt lat="31.0352800" lon="35.0748100">
<ele>465.339996</ele>
<time>2023-02-01T10:53:28.799Z</time>
</trkpt>
<trkpt lat="31.0351800" lon="35.0754200">
<ele>463.540009</ele>
<time>2023-02-01T10:53:28.799Z</time>
</trkpt>
<trkpt lat="31.0350900" lon="35.0760200">
<ele>462.860016</ele>
<time>2023-02-01T10:53:28.799Z</time>
</trkpt>
<trkpt lat="31.0349900" lon="35.0766200">
<ele>461.049988</ele>
<time>2023-02-01T10:53:28.799Z</time>
</trkpt>
<trkpt lat="31.0349600" lon="35.0772000">
<ele>460.440002</ele>
<time>2023-02-01T10:53:28.799Z</time>
</trkpt>
<trkpt lat="31.0349600" lon="35.0776800">
<ele>457.679993</ele>
<time>2023-02-01T10:53:28.799Z</time>
</trkpt>
<trkpt lat="31.0350100" lon="35.0782900">
<ele>457.050018</ele>
<time>2023-02-01T10:53:28.799Z</time>
</trkpt>
<trkpt lat="31.0350600" lon="35.0789100">
<ele>456.940002</ele>
<time>2023-02-01T10:53:28.799Z</time>
</trkpt>
<trkpt lat="31.0351200" lon="35.0794100">
<ele>456.809998</ele>
<time>2023-02-01T10:53:28.799Z</time>
</trkpt>
<trkpt lat="31.0352500" lon="35.0800800">
<ele>457.510010</ele>
<time>2023-02-01T10:53:28.799Z</time>
</trkpt>
<trkpt lat="31.0354400" lon="35.0807400">
<ele>454.760010</ele>
<time>2023-02-01T10:53:28.799Z</time>
</trkpt>
<trkpt lat="31.0356300" lon="35.0813900">
<ele>452.540009</ele>
<time>2023-02-01T10:53:28.799Z</time>
</trkpt>
<trkpt lat="31.0358900" lon="35.0821000">
<ele>454.059998</ele>
<time>2023-02-01T10:53:28.799Z</time>
</trkpt>
<trkpt lat="31.0361500" lon="35.0828100">
<ele>452.640015</ele>
<time>2023-02-01T10:53:28.799Z</time>
</trkpt>
<trkpt lat="31.0363300" lon="35.0833000">
<ele>449.049988</ele>
<time>2023-02-01T10:53:28.799Z</time>
</trkpt>
<trkpt lat="31.0365200" lon="35.0838000">
<ele>446.579987</ele>
<time>2023-02-01T10:53:28.799Z</time>
</trkpt>
<trkpt lat="31.0367000" lon="35.0842900">
<ele>446.179993</ele>
<time>2023-02-01T10:53:28.799Z</time>
</trkpt>
<trkpt lat="31.0368800" lon="35.0847800">
<ele>443.220001</ele>
<time>2023-02-01T10:53:28.799Z</time>
</trkpt>
<trkpt lat="31.0370600" lon="35.0852700">
<ele>436.639984</ele>
<time>2023-02-01T10:53:28.799Z</time>
</trkpt>
<trkpt lat="31.0372500" lon="35.0857700">
<ele>436.179993</ele>
<time>2023-02-01T10:53:28.799Z</time>
</trkpt>
<trkpt lat="31.0374300" lon="35.0862600">
<ele>434.570007</ele>
<time>2023-02-01T10:53:28.799Z</time>
</trkpt>
<trkpt lat="31.0376100" lon="35.0867500">
<ele>433.030029</ele>
<time>2023-02-01T10:53:28.799Z</time>
</trkpt>
<trkpt lat="31.0377000" lon="35.0871500">
<ele>431.679993</ele>
<time>2023-02-01T10:53:28.799Z</time>
</trkpt>
<trkpt lat="31.0377900" lon="35.0878100">
<ele>427.829987</ele>
<time>2023-02-01T10:53:28.799Z</time>
</trkpt>
<trkpt lat="31.0377900" lon="35.0881800">
<ele>426.019989</ele>
<time>2023-02-01T10:53:28.799Z</time>
</trkpt>
<trkpt lat="31.0377200" lon="35.0889000">
<ele>420.299988</ele>
<time>2023-02-01T10:53:28.799Z</time>
</trkpt>
<trkpt lat="31.0375800" lon="35.0894500">
<ele>416.580017</ele>
<time>2023-02-01T10:53:28.799Z</time>
</trkpt>
<trkpt lat="31.0374500" lon="35.0900000">
<ele>415.459991</ele>
<time>2023-02-01T10:53:28.799Z</time>
</trkpt>
<trkpt lat="31.0373100" lon="35.0905500">
<ele>412.950012</ele>
<time>2023-02-01T10:53:28.799Z</time>
</trkpt>
<trkpt lat="31.0371700" lon="35.0910900">
<ele>410.309998</ele>
<time>2023-02-01T10:53:28.799Z</time>
</trkpt>
<trkpt lat="31.0370300" lon="35.0916400">
<ele>408.580017</ele>
<time>2023-02-01T10:53:28.799Z</time>
</trkpt>
<trkpt lat="31.0369000" lon="35.0921900">
<ele>409.990021</ele>
<time>2023-02-01T10:53:28.799Z</time>
</trkpt>
<trkpt lat="31.0367600" lon="35.0927400">
<ele>411.450012</ele>
<time>2023-02-01T10:53:28.799Z</time>
</trkpt>
<trkpt lat="31.0364100" lon="35.0926200">
<ele>404.839996</ele>
<time>2023-02-01T10:53:28.799Z</time>
</trkpt>
<trkpt lat="31.0361600" lon="35.0925600">
<ele>401.390015</ele>
<time>2023-02-01T10:53:28.799Z</time>
</trkpt>
<trkpt lat="31.0360000" lon="35.0925500">
<ele>398.489990</ele>
<time>2023-02-01T10:53:28.799Z</time>
</trkpt>
<trkpt lat="31.0356000" lon="35.0925600">
<ele>393.619995</ele>
<time>2023-02-01T10:53:28.799Z</time>
</trkpt>
<trkpt lat="31.0351100" lon="35.0926500">
<ele>395.060028</ele>
<time>2023-02-01T10:53:28.799Z</time>
</trkpt>
<trkpt lat="31.0346300" lon="35.0927400">
<ele>395.990021</ele>
<time>2023-02-01T10:53:28.799Z</time>
</trkpt>
<trkpt lat="31.0341500" lon="35.0928300">
<ele>404.860016</ele>
<time>2023-02-01T10:53:28.799Z</time>
</trkpt>
<trkpt lat="31.0336600" lon="35.0929200">
<ele>401.080017</ele>
<time>2023-02-01T10:53:28.799Z</time>
</trkpt>
<trkpt lat="31.0331600" lon="35.0930000">
<ele>395.010010</ele>
<time>2023-02-01T10:53:28.799Z</time>
</trkpt>
<trkpt lat="31.0326600" lon="35.0930800">
<ele>388.059998</ele>
<time>2023-02-01T10:53:28.799Z</time>
</trkpt>
<trkpt lat="31.0321600" lon="35.0931600">
<ele>385.399994</ele>
<time>2023-02-01T10:53:28.799Z</time>
</trkpt>
<trkpt lat="31.0316700" lon="35.0932500">
<ele>390.760010</ele>
<time>2023-02-01T10:53:28.799Z</time>
</trkpt>
<trkpt lat="31.0311700" lon="35.0933300">
<ele>391.080017</ele>
<time>2023-02-01T10:53:28.799Z</time>
</trkpt>
<trkpt lat="31.0306700" lon="35.0934100">
<ele>389.280029</ele>
<time>2023-02-01T10:53:28.799Z</time>
</trkpt>
<trkpt lat="31.0301700" lon="35.0934900">
<ele>394.880005</ele>
<time>2023-02-01T10:53:28.799Z</time>
</trkpt>
<trkpt lat="31.0297600" lon="35.0934600">
<ele>405.269989</ele>
<time>2023-02-01T10:53:28.799Z</time>
</trkpt>
<trkpt lat="31.0292400" lon="35.0932800">
<ele>415.220001</ele>
<time>2023-02-01T10:53:28.799Z</time>
</trkpt>
<trkpt lat="31.0287600" lon="35.0928600">
<ele>426.359985</ele>
<time>2023-02-01T10:53:28.799Z</time>
</trkpt>
<trkpt lat="31.0284900" lon="35.0924600">
<ele>429.950012</ele>
<time>2023-02-01T10:53:28.799Z</time>
</trkpt>
<trkpt lat="31.0283000" lon="35.0919600">
<ele>422.849976</ele>
<time>2023-02-01T10:53:28.799Z</time>
</trkpt>
<trkpt lat="31.0281100" lon="35.0914700">
<ele>419.920013</ele>
<time>2023-02-01T10:53:28.799Z</time>
</trkpt>
<trkpt lat="31.0279200" lon="35.0909700">
<ele>419.000000</ele>
<time>2023-02-01T10:53:28.799Z</time>
</trkpt>
<trkpt lat="31.0277300" lon="35.0904700">
<ele>420.619995</ele>
<time>2023-02-01T10:53:28.799Z</time>
</trkpt>
<trkpt lat="31.0274400" lon="35.0896900">
<ele>424.349976</ele>
<time>2023-02-01T10:53:28.799Z</time>
</trkpt>
<trkpt lat="31.0271500" lon="35.0889200">
<ele>432.750000</ele>
<time>2023-02-01T10:53:28.799Z</time>
</trkpt>
<trkpt lat="31.0267700" lon="35.0883300">
<ele>437.400024</ele>
<time>2023-02-01T10:53:28.799Z</time>
</trkpt>
<trkpt lat="31.0265000" lon="35.0879900">
<ele>438.559998</ele>
<time>2023-02-01T10:53:28.799Z</time>
</trkpt>
<trkpt lat="31.0264600" lon="35.0879500">
<ele>438.129974</ele>
<time>2023-02-01T10:53:28.799Z</time>
</trkpt>
<trkpt lat="31.0264600" lon="35.0879500">
<ele>438.129974</ele>
<time>2023-02-01T10:53:28.799Z</time>
</trkpt>
<trkpt lat="31.0264600" lon="35.0879500">
<ele>438.129974</ele>
<time>2023-02-01T10:53:28.799Z</time>
</trkpt>
<trkpt lat="31.0262100" lon="35.0877100">
<ele>437.239990</ele>
<time>2023-02-01T10:53:28.799Z</time>
</trkpt>
<trkpt lat="31.0257800" lon="35.0874300">
<ele>439.199982</ele>
<time>2023-02-01T10:53:28.799Z</time>
</trkpt>
<trkpt lat="31.0253500" lon="35.0871400">
<ele>433.729980</ele>
<time>2023-02-01T10:53:28.799Z</time>
</trkpt>
<trkpt lat="31.0249200" lon="35.0868600">
<ele>428.490021</ele>
<time>2023-02-01T10:53:28.799Z</time>
</trkpt>
<trkpt lat="31.0245000" lon="35.0865700">
<ele>424.219971</ele>
<time>2023-02-01T10:53:28.799Z</time>
</trkpt>
<trkpt lat="31.0240700" lon="35.0862900">
<ele>421.000000</ele>
<time>2023-02-01T10:53:28.799Z</time>
</trkpt>
<trkpt lat="31.0236400" lon="35.0860100">
<ele>427.420013</ele>
<time>2023-02-01T10:53:28.799Z</time>
</trkpt>
<trkpt lat="31.0232100" lon="35.0857200">
<ele>431.409973</ele>
<time>2023-02-01T10:53:28.799Z</time>
</trkpt>
<trkpt lat="31.0227800" lon="35.0854400">
<ele>429.239990</ele>
<time>2023-02-01T10:53:28.799Z</time>
</trkpt>
<trkpt lat="31.0223700" lon="35.0851900">
<ele>425.399994</ele>
<time>2023-02-01T10:53:28.799Z</time>
</trkpt>
<trkpt lat="31.0219600" lon="35.0849300">
<ele>425.200012</ele>
<time>2023-02-01T10:53:28.799Z</time>
</trkpt>
<trkpt lat="31.0215500" lon="35.0846800">
<ele>424.309998</ele>
<time>2023-02-01T10:53:28.799Z</time>
</trkpt>
<trkpt lat="31.0211400" lon="35.0844300">
<ele>426.679993</ele>
<time>2023-02-01T10:53:28.799Z</time>
</trkpt>
<trkpt lat="31.0207300" lon="35.0841700">
<ele>426.610016</ele>
<time>2023-02-01T10:53:28.799Z</time>
</trkpt>
<trkpt lat="31.0203200" lon="35.0839200">
<ele>423.899994</ele>
<time>2023-02-01T10:53:28.799Z</time>
</trkpt>
<trkpt lat="31.0199200" lon="35.0836600">
<ele>426.970001</ele>
<time>2023-02-01T10:53:28.799Z</time>
</trkpt>
<trkpt lat="31.0195100" lon="35.0834100">
<ele>421.839996</ele>
<time>2023-02-01T10:53:28.799Z</time>
</trkpt>
<trkpt lat="31.0191000" lon="35.0831600">
<ele>420.040009</ele>
<time>2023-02-01T10:53:28.799Z</time>
</trkpt>
<trkpt lat="31.0186900" lon="35.0829000">
<ele>415.569977</ele>
<time>2023-02-01T10:53:28.799Z</time>
</trkpt>
<trkpt lat="31.0182800" lon="35.0826500">
<ele>420.380005</ele>
<time>2023-02-01T10:53:28.799Z</time>
</trkpt>
<trkpt lat="31.0178700" lon="35.0824000">
<ele>415.829987</ele>
<time>2023-02-01T10:53:28.799Z</time>
</trkpt>
<trkpt lat="31.0174600" lon="35.0821400">
<ele>412.279999</ele>
<time>2023-02-01T10:53:28.799Z</time>
</trkpt>
<trkpt lat="31.0170500" lon="35.0818900">
<ele>416.709991</ele>
<time>2023-02-01T10:53:28.799Z</time>
</trkpt>
<trkpt lat="31.0166300" lon="35.0816500">
<ele>417.040009</ele>
<time>2023-02-01T10:53:28.799Z</time>
</trkpt>
<trkpt lat="31.0165200" lon="35.0815900">
<ele>417.470001</ele>
<time>2023-02-01T10:53:28.799Z</time>
</trkpt>
<trkpt lat="31.0165300" lon="35.0815800">
<ele>417.730011</ele>
<time>2023-02-01T10:53:28.799Z</time>
</trkpt>
<trkpt lat="31.0160500" lon="35.0813000">
<ele>418.970001</ele>
<time>2023-02-01T10:53:28.799Z</time>
</trkpt>
<trkpt lat="31.0155700" lon="35.0810200">
<ele>418.909973</ele>
<time>2023-02-01T10:53:28.799Z</time>
</trkpt>
<trkpt lat="31.0151000" lon="35.0807500">
<ele>414.419983</ele>
<time>2023-02-01T10:53:28.799Z</time>
</trkpt>
<trkpt lat="31.0146200" lon="35.0804700">
<ele>417.459991</ele>
<time>2023-02-01T10:53:28.799Z</time>
</trkpt>
<trkpt lat="31.0141400" lon="35.0801900">
<ele>415.640015</ele>
<time>2023-02-01T10:53:28.799Z</time>
</trkpt>
<trkpt lat="31.0136800" lon="35.0798900">
<ele>409.079987</ele>
<time>2023-02-01T10:53:28.799Z</time>
</trkpt>
<trkpt lat="31.0132300" lon="35.0795900">
<ele>410.269989</ele>
<time>2023-02-01T10:53:28.799Z</time>
</trkpt>
<trkpt lat="31.0127700" lon="35.0793000">
<ele>411.589996</ele>
<time>2023-02-01T10:53:28.799Z</time>
</trkpt>
<trkpt lat="31.0123200" lon="35.0790000">
<ele>407.690002</ele>
<time>2023-02-01T10:53:28.799Z</time>
</trkpt>
<trkpt lat="31.0118600" lon="35.0787000">
<ele>405.410004</ele>
<time>2023-02-01T10:53:28.799Z</time>
</trkpt>
<trkpt lat="31.0116500" lon="35.0785600">
<ele>402.819977</ele>
<time>2023-02-01T10:53:28.799Z</time>
</trkpt>
<trkpt lat="31.0111900" lon="35.0782700">
<ele>400.000000</ele>
<time>2023-02-01T10:53:28.799Z</time>
</trkpt>
<trkpt lat="31.0107300" lon="35.0779900">
<ele>406.419983</ele>
<time>2023-02-01T10:53:28.799Z</time>
</trkpt>
<trkpt lat="31.0102800" lon="35.0777000">
<ele>406.830017</ele>
<time>2023-02-01T10:53:28.799Z</time>
</trkpt>
<trkpt lat="31.0098200" lon="35.0774200">
<ele>407.459991</ele>
<time>2023-02-01T10:53:28.799Z</time>
</trkpt>
<trkpt lat="31.0093600" lon="35.0771300">
<ele>403.320007</ele>
<time>2023-02-01T10:53:28.799Z</time>
</trkpt>
<trkpt lat="31.0089200" lon="35.0768500">
<ele>407.779999</ele>
<time>2023-02-01T10:53:28.799Z</time>
</trkpt>
<trkpt lat="31.0084800" lon="35.0765700">
<ele>414.220001</ele>
<time>2023-02-01T10:53:28.799Z</time>
</trkpt>
<trkpt lat="31.0080400" lon="35.0762900">
<ele>412.809998</ele>
<time>2023-02-01T10:53:28.799Z</time>
</trkpt>
<trkpt lat="31.0076000" lon="35.0760000">
<ele>409.589996</ele>
<time>2023-02-01T10:53:28.799Z</time>
</trkpt>
<trkpt lat="31.0071600" lon="35.0757200">
<ele>403.519989</ele>
<time>2023-02-01T10:53:28.799Z</time>
</trkpt>
<trkpt lat="31.0067200" lon="35.0754400">
<ele>405.489990</ele>
<time>2023-02-01T10:53:28.799Z</time>
</trkpt>
<trkpt lat="31.0063200" lon="35.0751800">
<ele>408.619995</ele>
<time>2023-02-01T10:53:28.799Z</time>
</trkpt>
<trkpt lat="31.0059100" lon="35.0749200">
<ele>408.059998</ele>
<time>2023-02-01T10:53:28.799Z</time>
</trkpt>
<trkpt lat="31.0055100" lon="35.0746600">
<ele>417.299988</ele>
<time>2023-02-01T10:53:28.799Z</time>
</trkpt>
<trkpt lat="31.0051000" lon="35.0744000">
<ele>418.500000</ele>
<time>2023-02-01T10:53:28.799Z</time>
</trkpt>
<trkpt lat="31.0047000" lon="35.0741400">
<ele>417.159973</ele>
<time>2023-02-01T10:53:28.799Z</time>
</trkpt>
<trkpt lat="31.0042900" lon="35.0738800">
<ele>409.279999</ele>
<time>2023-02-01T10:53:28.799Z</time>
</trkpt>
<trkpt lat="31.0038900" lon="35.0736200">
<ele>409.749969</ele>
<time>2023-02-01T10:53:28.799Z</time>
</trkpt>
<trkpt lat="31.0034800" lon="35.0733600">
<ele>397.350006</ele>
<time>2023-02-01T10:53:28.799Z</time>
</trkpt>
<trkpt lat="31.0030800" lon="35.0731000">
<ele>407.589996</ele>
<time>2023-02-01T10:53:28.799Z</time>
</trkpt>
<trkpt lat="31.0026700" lon="35.0728400">
<ele>400.480011</ele>
<time>2023-02-01T10:53:28.799Z</time>
</trkpt>
<trkpt lat="31.0022700" lon="35.0725800">
<ele>396.149994</ele>
<time>2023-02-01T10:53:28.799Z</time>
</trkpt>
<trkpt lat="31.0018600" lon="35.0723200">
<ele>398.300018</ele>
<time>2023-02-01T10:53:28.799Z</time>
</trkpt>
<trkpt lat="31.0014600" lon="35.0720600">
<ele>396.170013</ele>
<time>2023-02-01T10:53:28.799Z</time>
</trkpt>
<trkpt lat="31.0010500" lon="35.0718000">
<ele>391.829987</ele>
<time>2023-02-01T10:53:28.799Z</time>
</trkpt>
<trkpt lat="31.0006500" lon="35.0715400">
<ele>388.059998</ele>
<time>2023-02-01T10:53:28.799Z</time>
</trkpt>
<trkpt lat="31.0002400" lon="35.0712800">
<ele>393.130005</ele>
<time>2023-02-01T10:53:28.799Z</time>
</trkpt>
<trkpt lat="30.9998400" lon="35.0710200">
<ele>395.980011</ele>
<time>2023-02-01T10:53:28.799Z</time>
</trkpt>
<trkpt lat="30.9994300" lon="35.0707600">
<ele>398.300018</ele>
<time>2023-02-01T10:53:28.799Z</time>
</trkpt>
<trkpt lat="30.9990300" lon="35.0705000">
<ele>399.200012</ele>
<time>2023-02-01T10:53:28.799Z</time>
</trkpt>
<trkpt lat="30.9986200" lon="35.0702400">
<ele>400.920013</ele>
<time>2023-02-01T10:53:28.799Z</time>
</trkpt>
<trkpt lat="30.9982200" lon="35.0699800">
<ele>390.050018</ele>
<time>2023-02-01T10:53:28.799Z</time>
</trkpt>
<trkpt lat="30.9978200" lon="35.0697200">
<ele>383.290009</ele>
<time>2023-02-01T10:53:28.799Z</time>
</trkpt>
<trkpt lat="30.9974300" lon="35.0694600">
<ele>389.289978</ele>
<time>2023-02-01T10:53:28.799Z</time>
</trkpt>
<trkpt lat="30.9970300" lon="35.0692000">
<ele>385.080017</ele>
<time>2023-02-01T10:53:28.799Z</time>
</trkpt>
<trkpt lat="30.9966300" lon="35.0689300">
<ele>382.670013</ele>
<time>2023-02-01T10:53:28.799Z</time>
</trkpt>
<trkpt lat="30.9962400" lon="35.0686700">
<ele>389.000000</ele>
<time>2023-02-01T10:53:28.799Z</time>
</trkpt>
<trkpt lat="30.9958400" lon="35.0684100">
<ele>395.649994</ele>
<time>2023-02-01T10:53:28.799Z</time>
</trkpt>
<trkpt lat="30.9954400" lon="35.0681500">
<ele>392.879974</ele>
<time>2023-02-01T10:53:28.799Z</time>
</trkpt>
<trkpt lat="30.9950500" lon="35.0678900">
<ele>386.010010</ele>
<time>2023-02-01T10:53:28.799Z</time>
</trkpt>
<trkpt lat="30.9946500" lon="35.0676300">
<ele>387.889984</ele>
<time>2023-02-01T10:53:28.799Z</time>
</trkpt>
<trkpt lat="30.9942500" lon="35.0673700">
<ele>383.259979</ele>
<time>2023-02-01T10:53:28.799Z</time>
</trkpt>
<trkpt lat="30.9938600" lon="35.0671100">
<ele>384.230011</ele>
<time>2023-02-01T10:53:28.799Z</time>
</trkpt>
<trkpt lat="30.9934600" lon="35.0668400">
<ele>385.479980</ele>
<time>2023-02-01T10:53:28.799Z</time>
</trkpt>
<trkpt lat="30.9930600" lon="35.0665800">
<ele>386.710022</ele>
<time>2023-02-01T10:53:28.799Z</time>
</trkpt>
<trkpt lat="30.9926700" lon="35.0663200">
<ele>386.220001</ele>
<time>2023-02-01T10:53:28.799Z</time>
</trkpt>
<trkpt lat="30.9922700" lon="35.0660600">
<ele>379.730011</ele>
<time>2023-02-01T10:53:28.799Z</time>
</trkpt>
<trkpt lat="30.9917900" lon="35.0657100">
<ele>379.109985</ele>
<time>2023-02-01T10:53:28.799Z</time>
</trkpt>
<trkpt lat="30.9913200" lon="35.0653600">
<ele>384.549988</ele>
<time>2023-02-01T10:53:28.799Z</time>
</trkpt>
<trkpt lat="30.9908400" lon="35.0650100">
<ele>390.860016</ele>
<time>2023-02-01T10:53:28.799Z</time>
</trkpt>
<trkpt lat="30.9904400" lon="35.0646800">
<ele>387.079987</ele>
<time>2023-02-01T10:53:28.799Z</time>
</trkpt>
<trkpt lat="30.9900400" lon="35.0643500">
<ele>384.579987</ele>
<time>2023-02-01T10:53:28.799Z</time>
</trkpt>
<trkpt lat="30.9896300" lon="35.0640100">
<ele>383.869995</ele>
<time>2023-02-01T10:53:28.799Z</time>
</trkpt>
<trkpt lat="30.9892300" lon="35.0636800">
<ele>378.199982</ele>
<time>2023-02-01T10:53:28.799Z</time>
</trkpt>
<trkpt lat="30.9888300" lon="35.0632300">
<ele>373.799988</ele>
<time>2023-02-01T10:53:28.799Z</time>
</trkpt>
<trkpt lat="30.9884200" lon="35.0627900">
<ele>372.970001</ele>
<time>2023-02-01T10:53:28.799Z</time>
</trkpt>
<trkpt lat="30.9880200" lon="35.0623400">
<ele>368.300018</ele>
<time>2023-02-01T10:53:28.799Z</time>
</trkpt>
<trkpt lat="30.9878200" lon="35.0621400">
<ele>370.879974</ele>
<time>2023-02-01T10:53:28.799Z</time>
</trkpt>
<trkpt lat="30.9872400" lon="35.0615300">
<ele>376.559998</ele>
<time>2023-02-01T10:53:28.799Z</time>
</trkpt>
<trkpt lat="30.9872300" lon="35.0615400">
<ele>376.480011</ele>
<time>2023-02-01T10:53:28.799Z</time>
</trkpt>
<trkpt lat="30.9871400" lon="35.0614400">
<ele>376.170013</ele>
<time>2023-02-01T10:53:28.799Z</time>
</trkpt>
<trkpt lat="30.9868000" lon="35.0610800">
<ele>372.930023</ele>
<time>2023-02-01T10:53:28.799Z</time>
</trkpt>
<trkpt lat="30.9864600" lon="35.0607300">
<ele>369.820007</ele>
<time>2023-02-01T10:53:28.799Z</time>
</trkpt>
<trkpt lat="30.9860200" lon="35.0602000">
<ele>374.470032</ele>
<time>2023-02-01T10:53:28.799Z</time>
</trkpt>
<trkpt lat="30.9855800" lon="35.0596800">
<ele>375.910004</ele>
<time>2023-02-01T10:53:28.799Z</time>
</trkpt>
<trkpt lat="30.9851400" lon="35.0590200">
<ele>382.330017</ele>
<time>2023-02-01T10:53:28.799Z</time>
</trkpt>
<trkpt lat="30.9850400" lon="35.0588900">
<ele>385.410004</ele>
<time>2023-02-01T10:53:28.799Z</time>
</trkpt>
<trkpt lat="30.9848000" lon="35.0585700">
<ele>385.330017</ele>
<time>2023-02-01T10:53:28.799Z</time>
</trkpt>
<trkpt lat="30.9845100" lon="35.0583100">
<ele>389.029999</ele>
<time>2023-02-01T10:53:28.799Z</time>
</trkpt>
<trkpt lat="30.9839300" lon="35.0580200">
<ele>398.230011</ele>
<time>2023-02-01T10:53:28.799Z</time>
</trkpt>
<trkpt lat="30.9834000" lon="35.0578100">
<ele>380.479980</ele>
<time>2023-02-01T10:53:28.799Z</time>
</trkpt>
<trkpt lat="30.9827200" lon="35.0577100">
<ele>356.779999</ele>
<time>2023-02-01T10:53:28.799Z</time>
</trkpt>
<trkpt lat="30.9822200" lon="35.0576500">
<ele>350.429993</ele>
<time>2023-02-01T10:53:28.799Z</time>
</trkpt>
<trkpt lat="30.9817200" lon="35.0576000">
<ele>351.820007</ele>
<time>2023-02-01T10:53:28.799Z</time>
</trkpt>
<trkpt lat="30.9812200" lon="35.0575400">
<ele>355.679993</ele>
<time>2023-02-01T10:53:28.799Z</time>
</trkpt>
<trkpt lat="30.9807200" lon="35.0574900">
<ele>359.089996</ele>
<time>2023-02-01T10:53:28.799Z</time>
</trkpt>
<trkpt lat="30.9802100" lon="35.0574300">
<ele>359.369995</ele>
<time>2023-02-01T10:53:28.799Z</time>
</trkpt>
<trkpt lat="30.9797100" lon="35.0573700">
<ele>357.250000</ele>
<time>2023-02-01T10:53:28.799Z</time>
</trkpt>
<trkpt lat="30.9792100" lon="35.0573200">
<ele>348.589996</ele>
<time>2023-02-01T10:53:28.799Z</time>
</trkpt>
<trkpt lat="30.9787100" lon="35.0572600">
<ele>352.580017</ele>
<time>2023-02-01T10:53:28.799Z</time>
</trkpt>
<trkpt lat="30.9782200" lon="35.0571800">
<ele>354.690002</ele>
<time>2023-02-01T10:53:28.799Z</time>
</trkpt>
<trkpt lat="30.9777400" lon="35.0570900">
<ele>353.660004</ele>
<time>2023-02-01T10:53:28.799Z</time>
</trkpt>
<trkpt lat="30.9772500" lon="35.0570000">
<ele>342.339996</ele>
<time>2023-02-01T10:53:28.799Z</time>
</trkpt>
<trkpt lat="30.9767600" lon="35.0569200">
<ele>343.909973</ele>
<time>2023-02-01T10:53:28.799Z</time>
</trkpt>
<trkpt lat="30.9763000" lon="35.0568400">
<ele>346.459991</ele>
<time>2023-02-01T10:53:28.799Z</time>
</trkpt>
<trkpt lat="30.9758400" lon="35.0567700">
<ele>347.330017</ele>
<time>2023-02-01T10:53:28.799Z</time>
</trkpt>
<trkpt lat="30.9753900" lon="35.0566900">
<ele>345.409973</ele>
<time>2023-02-01T10:53:28.799Z</time>
</trkpt>
<trkpt lat="30.9749300" lon="35.0566100">
<ele>341.559998</ele>
<time>2023-02-01T10:53:28.799Z</time>
</trkpt>
<trkpt lat="30.9744700" lon="35.0565400">
<ele>345.850006</ele>
<time>2023-02-01T10:53:28.799Z</time>
</trkpt>
<trkpt lat="30.9740100" lon="35.0564600">
<ele>346.269989</ele>
<time>2023-02-01T10:53:28.799Z</time>
</trkpt>
<trkpt lat="30.9733500" lon="35.0564100">
<ele>342.329987</ele>
<time>2023-02-01T10:53:28.799Z</time>
</trkpt>
<trkpt lat="30.9726500" lon="35.0564300">
<ele>350.179993</ele>
<time>2023-02-01T10:53:28.799Z</time>
</trkpt>
<trkpt lat="30.9721500" lon="35.0564600">
<ele>341.769989</ele>
<time>2023-02-01T10:53:28.799Z</time>
</trkpt>
<trkpt lat="30.9716500" lon="35.0564900">
<ele>336.190002</ele>
<time>2023-02-01T10:53:28.799Z</time>
</trkpt>
<trkpt lat="30.9711500" lon="35.0565200">
<ele>341.649994</ele>
<time>2023-02-01T10:53:28.799Z</time>
</trkpt>
<trkpt lat="30.9706500" lon="35.0565500">
<ele>342.150024</ele>
<time>2023-02-01T10:53:28.799Z</time>
</trkpt>
<trkpt lat="30.9701500" lon="35.0565800">
<ele>350.859985</ele>
<time>2023-02-01T10:53:28.799Z</time>
</trkpt>
<trkpt lat="30.9696500" lon="35.0566100">
<ele>354.929993</ele>
<time>2023-02-01T10:53:28.799Z</time>
</trkpt>
<trkpt lat="30.9691500" lon="35.0566400">
<ele>354.279999</ele>
<time>2023-02-01T10:53:28.799Z</time>
</trkpt>
<trkpt lat="30.9687600" lon="35.0566100">
<ele>353.750031</ele>
<time>2023-02-01T10:53:28.799Z</time>
</trkpt>
<trkpt lat="30.9683200" lon="35.0564600">
<ele>354.720001</ele>
<time>2023-02-01T10:53:28.799Z</time>
</trkpt>
<trkpt lat="30.9679200" lon="35.0562500">
<ele>370.369995</ele>
<time>2023-02-01T10:53:28.799Z</time>
</trkpt>
<trkpt lat="30.9675500" lon="35.0560000">
<ele>377.279999</ele>
<time>2023-02-01T10:53:28.799Z</time>
</trkpt>
<trkpt lat="30.9671700" lon="35.0555400">
<ele>368.699982</ele>
<time>2023-02-01T10:53:28.799Z</time>
</trkpt>
<trkpt lat="30.9669000" lon="35.0550500">
<ele>360.420013</ele>
<time>2023-02-01T10:53:28.799Z</time>
</trkpt>
<trkpt lat="30.9666800" lon="35.0545400">
<ele>353.570007</ele>
<time>2023-02-01T10:53:28.799Z</time>
</trkpt>
<trkpt lat="30.9664500" lon="35.0540300">
<ele>343.029999</ele>
<time>2023-02-01T10:53:28.799Z</time>
</trkpt>
<trkpt lat="30.9662300" lon="35.0535200">
<ele>332.730011</ele>
<time>2023-02-01T10:53:28.799Z</time>
</trkpt>
<trkpt lat="30.9660000" lon="35.0530100">
<ele>327.540009</ele>
<time>2023-02-01T10:53:28.799Z</time>
</trkpt>
<trkpt lat="30.9656000" lon="35.0524400">
<ele>329.369995</ele>
<time>2023-02-01T10:53:28.799Z</time>
</trkpt>
<trkpt lat="30.9651900" lon="35.0518700">
<ele>325.769989</ele>
<time>2023-02-01T10:53:28.799Z</time>
</trkpt>
<trkpt lat="30.9648800" lon="35.0514500">
<ele>323.700012</ele>
<time>2023-02-01T10:53:28.799Z</time>
</trkpt>
<trkpt lat="30.9645600" lon="35.0510300">
<ele>318.589996</ele>
<time>2023-02-01T10:53:28.799Z</time>
</trkpt>
<trkpt lat="30.9642500" lon="35.0506100">
<ele>315.950012</ele>
<time>2023-02-01T10:53:28.799Z</time>
</trkpt>
<trkpt lat="30.9639300" lon="35.0501800">
<ele>315.600006</ele>
<time>2023-02-01T10:53:28.799Z</time>
</trkpt>
<trkpt lat="30.9636200" lon="35.0497600">
<ele>315.809998</ele>
<time>2023-02-01T10:53:28.799Z</time>
</trkpt>
<trkpt lat="30.9633000" lon="35.0493400">
<ele>315.449982</ele>
<time>2023-02-01T10:53:28.799Z</time>
</trkpt>
<trkpt lat="30.9632800" lon="35.0494200">
<ele>315.059998</ele>
<time>2023-02-01T10:53:28.799Z</time>
</trkpt>
<trkpt lat="30.9634700" lon="35.0499400">
<ele>313.110016</ele>
<time>2023-02-01T10:53:28.799Z</time>
</trkpt>
<trkpt lat="30.9637100" lon="35.0504900">
<ele>308.929993</ele>
<time>2023-02-01T10:53:28.799Z</time>
</trkpt>
<trkpt lat="30.9639400" lon="35.0510400">
<ele>308.649994</ele>
<time>2023-02-01T10:53:28.799Z</time>
</trkpt>
<trkpt lat="30.9641800" lon="35.0515900">
<ele>309.839996</ele>
<time>2023-02-01T10:53:28.799Z</time>
</trkpt>
<trkpt lat="30.9642600" lon="35.0522300">
<ele>308.980011</ele>
<time>2023-02-01T10:53:28.799Z</time>
</trkpt>
<trkpt lat="30.9642500" lon="35.0527500">
<ele>306.730011</ele>
<time>2023-02-01T10:53:28.799Z</time>
</trkpt>
<trkpt lat="30.9642300" lon="35.0528200">
<ele>306.690002</ele>
<time>2023-02-01T10:53:28.799Z</time>
</trkpt>
<trkpt lat="30.9641900" lon="35.0530500">
<ele>307.959991</ele>
<time>2023-02-01T10:53:28.799Z</time>
</trkpt>
<trkpt lat="30.9638000" lon="35.0538700">
<ele>317.150024</ele>
<time>2023-02-01T10:53:28.799Z</time>
</trkpt>
<trkpt lat="30.9635100" lon="35.0542300">
<ele>328.709991</ele>
<time>2023-02-01T10:53:28.799Z</time>
</trkpt>
<trkpt lat="30.9631600" lon="35.0545300">
<ele>346.900024</ele>
<time>2023-02-01T10:53:28.799Z</time>
</trkpt>
<trkpt lat="30.9631400" lon="35.0546900">
<ele>350.649994</ele>
<time>2023-02-01T10:53:28.799Z</time>
</trkpt>
<trkpt lat="30.9632300" lon="35.0550900">
<ele>353.270020</ele>
<time>2023-02-01T10:53:28.799Z</time>
</trkpt>
<trkpt lat="30.9631800" lon="35.0558100">
<ele>348.470001</ele>
<time>2023-02-01T10:53:28.799Z</time>
</trkpt>
<trkpt lat="30.9630500" lon="35.0563400">
<ele>343.320007</ele>
<time>2023-02-01T10:53:28.799Z</time>
</trkpt>
<trkpt lat="30.9628000" lon="35.0569400">
<ele>337.160004</ele>
<time>2023-02-01T10:53:28.799Z</time>
</trkpt>
<trkpt lat="30.9625500" lon="35.0576000">
<ele>331.879974</ele>
<time>2023-02-01T10:53:28.799Z</time>
</trkpt>
<trkpt lat="30.9623000" lon="35.0582500">
<ele>328.600006</ele>
<time>2023-02-01T10:53:28.799Z</time>
</trkpt>
<trkpt lat="30.9620800" lon="35.0588000">
<ele>330.690002</ele>
<time>2023-02-01T10:53:28.799Z</time>
</trkpt>
<trkpt lat="30.9618600" lon="35.0593500">
<ele>333.470001</ele>
<time>2023-02-01T10:53:28.799Z</time>
</trkpt>
<trkpt lat="30.9617100" lon="35.0597800">
<ele>330.470001</ele>
<time>2023-02-01T10:53:28.799Z</time>
</trkpt>
<trkpt lat="30.9614700" lon="35.0603900">
<ele>327.320007</ele>
<time>2023-02-01T10:53:28.799Z</time>
</trkpt>
<trkpt lat="30.9612100" lon="35.0610300">
<ele>326.279999</ele>
<time>2023-02-01T10:53:28.799Z</time>
</trkpt>
<trkpt lat="30.9609500" lon="35.0616600">
<ele>326.380005</ele>
<time>2023-02-01T10:53:28.799Z</time>
</trkpt>
<trkpt lat="30.9608600" lon="35.0619200">
<ele>327.739990</ele>
<time>2023-02-01T10:53:28.799Z</time>
</trkpt>
<trkpt lat="30.9608300" lon="35.0621600">
<ele>330.309998</ele>
<time>2023-02-01T10:53:28.799Z</time>
</trkpt>
<trkpt lat="30.9608500" lon="35.0624300">
<ele>330.880005</ele>
<time>2023-02-01T10:53:28.799Z</time>
</trkpt>
<trkpt lat="30.9610100" lon="35.0634500">
<ele>334.369995</ele>
<time>2023-02-01T10:53:28.799Z</time>
</trkpt>
<trkpt lat="30.9611400" lon="35.0638300">
<ele>332.569977</ele>
<time>2023-02-01T10:53:28.799Z</time>
</trkpt>
<trkpt lat="30.9614100" lon="35.0643500">
<ele>330.930023</ele>
<time>2023-02-01T10:53:28.799Z</time>
</trkpt>
<trkpt lat="30.9614400" lon="35.0645600">
<ele>330.710022</ele>
<time>2023-02-01T10:53:28.799Z</time>
</trkpt>
<trkpt lat="30.9614300" lon="35.0646700">
<ele>330.820007</ele>
<time>2023-02-01T10:53:28.799Z</time>
</trkpt>
<trkpt lat="30.9613900" lon="35.0647700">
<ele>331.339996</ele>
<time>2023-02-01T10:53:28.799Z</time>
</trkpt>
<trkpt lat="30.9613300" lon="35.0649000">
<ele>331.160004</ele>
<time>2023-02-01T10:53:28.799Z</time>
</trkpt>
<trkpt lat="30.9612700" lon="35.0650300">
<ele>330.570007</ele>
<time>2023-02-01T10:53:28.799Z</time>
</trkpt>
<trkpt lat="30.9611500" lon="35.0652400">
<ele>327.460022</ele>
<time>2023-02-01T10:53:28.799Z</time>
</trkpt>
<trkpt lat="30.9610000" lon="35.0653900">
<ele>322.379974</ele>
<time>2023-02-01T10:53:28.799Z</time>
</trkpt>
<trkpt lat="30.9608900" lon="35.0654500">
<ele>319.540009</ele>
<time>2023-02-01T10:53:28.799Z</time>
</trkpt>
<trkpt lat="30.9607800" lon="35.0654900">
<ele>315.799988</ele>
<time>2023-02-01T10:53:28.799Z</time>
</trkpt>
<trkpt lat="30.9602300" lon="35.0656600">
<ele>305.040009</ele>
<time>2023-02-01T10:53:28.799Z</time>
</trkpt>
<trkpt lat="30.9596800" lon="35.0658200">
<ele>310.029999</ele>
<time>2023-02-01T10:53:28.799Z</time>
</trkpt>
<trkpt lat="30.9594500" lon="35.0659900">
<ele>315.600006</ele>
<time>2023-02-01T10:53:28.799Z</time>
</trkpt>
<trkpt lat="30.9592400" lon="35.0661700">
<ele>315.579987</ele>
<time>2023-02-01T10:53:28.799Z</time>
</trkpt>
<trkpt lat="30.9590800" lon="35.0663500">
<ele>316.819977</ele>
<time>2023-02-01T10:53:28.799Z</time>
</trkpt>
<trkpt lat="30.9590200" lon="35.0664600">
<ele>317.820007</ele>
<time>2023-02-01T10:53:28.799Z</time>
</trkpt>
<trkpt lat="30.9589300" lon="35.0666900">
<ele>318.770020</ele>
<time>2023-02-01T10:53:28.799Z</time>
</trkpt>
<trkpt lat="30.9586800" lon="35.0673500">
<ele>316.039978</ele>
<time>2023-02-01T10:53:28.799Z</time>
</trkpt>
<trkpt lat="30.9584200" lon="35.0680100">
<ele>309.970001</ele>
<time>2023-02-01T10:53:28.799Z</time>
</trkpt>
<trkpt lat="30.9583800" lon="35.0681000">
<ele>310.899994</ele>
<time>2023-02-01T10:53:28.799Z</time>
</trkpt>
<trkpt lat="30.9582800" lon="35.0683100">
<ele>315.209991</ele>
<time>2023-02-01T10:53:28.799Z</time>
</trkpt>
<trkpt lat="30.9580600" lon="35.0688800">
<ele>318.109985</ele>
<time>2023-02-01T10:53:28.799Z</time>
</trkpt>
<trkpt lat="30.9578300" lon="35.0694600">
<ele>321.779999</ele>
<time>2023-02-01T10:53:28.799Z</time>
</trkpt>
<trkpt lat="30.9576100" lon="35.0700300">
<ele>329.070007</ele>
<time>2023-02-01T10:53:28.799Z</time>
</trkpt>
<trkpt lat="30.9575900" lon="35.0700900">
<ele>329.390015</ele>
<time>2023-02-01T10:53:28.799Z</time>
</trkpt>
<trkpt lat="30.9573600" lon="35.0706600">
<ele>325.280029</ele>
<time>2023-02-01T10:53:28.799Z</time>
</trkpt>
<trkpt lat="30.9571300" lon="35.0712300">
<ele>320.390015</ele>
<time>2023-02-01T10:53:28.799Z</time>
</trkpt>
<trkpt lat="30.9569000" lon="35.0718000">
<ele>320.480011</ele>
<time>2023-02-01T10:53:28.799Z</time>
</trkpt>
<trkpt lat="30.9566800" lon="35.0723700">
<ele>320.720001</ele>
<time>2023-02-01T10:53:28.799Z</time>
</trkpt>
<trkpt lat="30.9564600" lon="35.0729300">
<ele>319.570007</ele>
<time>2023-02-01T10:53:28.799Z</time>
</trkpt>
<trkpt lat="30.9562300" lon="35.0735000">
<ele>319.429993</ele>
<time>2023-02-01T10:53:28.799Z</time>
</trkpt>
<trkpt lat="30.9560100" lon="35.0740600">
<ele>317.910004</ele>
<time>2023-02-01T10:53:28.799Z</time>
</trkpt>
<trkpt lat="30.9557600" lon="35.0746800">
<ele>317.940002</ele>
<time>2023-02-01T10:53:28.799Z</time>
</trkpt>
<trkpt lat="30.9555100" lon="35.0752900">
<ele>318.940002</ele>
<time>2023-02-01T10:53:28.799Z</time>
</trkpt>
<trkpt lat="30.9552200" lon="35.0760300">
<ele>315.579987</ele>
<time>2023-02-01T10:53:28.799Z</time>
</trkpt>
<trkpt lat="30.9550000" lon="35.0766100">
<ele>317.799988</ele>
<time>2023-02-01T10:53:28.799Z</time>
</trkpt>
<trkpt lat="30.9547000" lon="35.0773400">
<ele>317.260010</ele>
<time>2023-02-01T10:53:28.799Z</time>
</trkpt>
<trkpt lat="30.9545700" lon="35.0773100">
<ele>316.220001</ele>
<time>2023-02-01T10:53:28.799Z</time>
</trkpt>
<trkpt lat="30.9541700" lon="35.0773200">
<ele>312.390015</ele>
<time>2023-02-01T10:53:28.799Z</time>
</trkpt>
<trkpt lat="30.9535700" lon="35.0773800">
<ele>323.040009</ele>
<time>2023-02-01T10:53:28.799Z</time>
</trkpt>
<trkpt lat="30.9541700" lon="35.0773200">
<ele>312.390015</ele>
<time>2023-02-01T10:53:28.799Z</time>
</trkpt>
<trkpt lat="30.9545700" lon="35.0773100">
<ele>316.220001</ele>
<time>2023-02-01T10:53:28.799Z</time>
</trkpt>
<trkpt lat="30.9547000" lon="35.0773400">
<ele>317.260010</ele>
<time>2023-02-01T10:53:28.799Z</time>
</trkpt>
<trkpt lat="30.9543200" lon="35.0782900">
<ele>322.500031</ele>
<time>2023-02-01T10:53:28.799Z</time>
</trkpt>
<trkpt lat="30.9539700" lon="35.0791400">
<ele>324.399994</ele>
<time>2023-02-01T10:53:28.799Z</time>
</trkpt>
<trkpt lat="30.9537800" lon="35.0796300">
<ele>323.489990</ele>
<time>2023-02-01T10:53:28.799Z</time>
</trkpt>
<trkpt lat="30.9535800" lon="35.0801200">
<ele>322.140015</ele>
<time>2023-02-01T10:53:28.799Z</time>
</trkpt>
<trkpt lat="30.9533900" lon="35.0806000">
<ele>321.540009</ele>
<time>2023-02-01T10:53:28.799Z</time>
</trkpt>
<trkpt lat="30.9531900" lon="35.0810900">
<ele>323.470001</ele>
<time>2023-02-01T10:53:28.799Z</time>
</trkpt>
<trkpt lat="30.9530100" lon="35.0814800">
<ele>326.260010</ele>
<time>2023-02-01T10:53:28.799Z</time>
</trkpt>
<trkpt lat="30.9529200" lon="35.0817100">
<ele>328.730011</ele>
<time>2023-02-01T10:53:28.799Z</time>
</trkpt>
<trkpt lat="30.9528300" lon="35.0819300">
<ele>329.350006</ele>
<time>2023-02-01T10:53:28.799Z</time>
</trkpt>
<trkpt lat="30.9527500" lon="35.0820700">
<ele>328.790009</ele>
<time>2023-02-01T10:53:28.799Z</time>
</trkpt>
<trkpt lat="30.9522900" lon="35.0829600">
<ele>330.760010</ele>
<time>2023-02-01T10:53:28.799Z</time>
</trkpt>
<trkpt lat="30.9520200" lon="35.0835400">
<ele>331.929993</ele>
<time>2023-02-01T10:53:28.799Z</time>
</trkpt>
<trkpt lat="30.9517500" lon="35.0841200">
<ele>338.580017</ele>
<time>2023-02-01T10:53:28.799Z</time>
</trkpt>
<trkpt lat="30.9513600" lon="35.0849300">
<ele>342.850006</ele>
<time>2023-02-01T10:53:28.799Z</time>
</trkpt>
<trkpt lat="30.9512400" lon="35.0852200">
<ele>343.540009</ele>
<time>2023-02-01T10:53:28.799Z</time>
</trkpt>
<trkpt lat="30.9510400" lon="35.0857900">
<ele>346.770020</ele>
<time>2023-02-01T10:53:28.799Z</time>
</trkpt>
<trkpt lat="30.9508400" lon="35.0863500">
<ele>349.729980</ele>
<time>2023-02-01T10:53:28.799Z</time>
</trkpt>
<trkpt lat="30.9507300" lon="35.0868200">
<ele>354.770020</ele>
<time>2023-02-01T10:53:28.799Z</time>
</trkpt>
<trkpt lat="30.9506300" lon="35.0871500">
<ele>359.109985</ele>
<time>2023-02-01T10:53:28.799Z</time>
</trkpt>
<trkpt lat="30.9504300" lon="35.0879400">
<ele>367.529999</ele>
<time>2023-02-01T10:53:28.799Z</time>
</trkpt>
<trkpt lat="30.9503700" lon="35.0882300">
<ele>368.959991</ele>
<time>2023-02-01T10:53:28.799Z</time>
</trkpt>
<trkpt lat="30.9503400" lon="35.0884600">
<ele>369.800018</ele>
<time>2023-02-01T10:53:28.799Z</time>
</trkpt>
<trkpt lat="30.9503300" lon="35.0885300">
<ele>370.069977</ele>
<time>2023-02-01T10:53:28.799Z</time>
</trkpt>
<trkpt lat="30.9503100" lon="35.0888300">
<ele>372.020020</ele>
<time>2023-02-01T10:53:28.799Z</time>
</trkpt>
<trkpt lat="30.9503200" lon="35.0892700">
<ele>375.519989</ele>
<time>2023-02-01T10:53:28.799Z</time>
</trkpt>
<trkpt lat="30.9503800" lon="35.0895700">
<ele>374.869995</ele>
<time>2023-02-01T10:53:28.799Z</time>
</trkpt>
<trkpt lat="30.9505800" lon="35.0901800">
<ele>372.500031</ele>
<time>2023-02-01T10:53:28.799Z</time>
</trkpt>
<trkpt lat="30.9507100" lon="35.0904900">
<ele>371.410004</ele>
<time>2023-02-01T10:53:28.799Z</time>
</trkpt>
<trkpt lat="30.9509400" lon="35.0911600">
<ele>371.019989</ele>
<time>2023-02-01T10:53:28.799Z</time>
</trkpt>
<trkpt lat="30.9510800" lon="35.0916400">
<ele>372.039978</ele>
<time>2023-02-01T10:53:28.799Z</time>
</trkpt>
<trkpt lat="30.9513200" lon="35.0932500">
<ele>371.399994</ele>
<time>2023-02-01T10:53:28.799Z</time>
</trkpt>
<trkpt lat="30.9515200" lon="35.0947200">
<ele>375.100006</ele>
<time>2023-02-01T10:53:28.799Z</time>
</trkpt>
<trkpt lat="30.9518200" lon="35.0966200">
<ele>376.279999</ele>
<time>2023-02-01T10:53:28.799Z</time>
</trkpt>
<trkpt lat="30.9518100" lon="35.0969500">
<ele>374.920013</ele>
<time>2023-02-01T10:53:28.799Z</time>
</trkpt>
<trkpt lat="30.9517300" lon="35.0976000">
<ele>367.989990</ele>
<time>2023-02-01T10:53:28.799Z</time>
</trkpt>
<trkpt lat="30.9517300" lon="35.0978100">
<ele>367.350006</ele>
<time>2023-02-01T10:53:28.799Z</time>
</trkpt>
<trkpt lat="30.9517500" lon="35.0979200">
<ele>366.760010</ele>
<time>2023-02-01T10:53:28.799Z</time>
</trkpt>
<trkpt lat="30.9518000" lon="35.0980400">
<ele>364.730011</ele>
<time>2023-02-01T10:53:28.799Z</time>
</trkpt>
<trkpt lat="30.9520700" lon="35.0985000">
<ele>359.910004</ele>
<time>2023-02-01T10:53:28.799Z</time>
</trkpt>
<trkpt lat="30.9521500" lon="35.0987500">
<ele>358.079987</ele>
<time>2023-02-01T10:53:28.799Z</time>
</trkpt>
<trkpt lat="30.9521800" lon="35.0988800">
<ele>355.630005</ele>
<time>2023-02-01T10:53:28.799Z</time>
</trkpt>
<trkpt lat="30.9522000" lon="35.0991500">
<ele>351.040009</ele>
<time>2023-02-01T10:53:28.799Z</time>
</trkpt>
<trkpt lat="30.9521900" lon="35.0992800">
<ele>347.580017</ele>
<time>2023-02-01T10:53:28.799Z</time>
</trkpt>
<trkpt lat="30.9521300" lon="35.0995300">
<ele>342.830017</ele>
<time>2023-02-01T10:53:28.799Z</time>
</trkpt>
<trkpt lat="30.9520200" lon="35.0997600">
<ele>342.270020</ele>
<time>2023-02-01T10:53:28.799Z</time>
</trkpt>
<trkpt lat="30.9519500" lon="35.0998500">
<ele>343.940002</ele>
<time>2023-02-01T10:53:28.799Z</time>
</trkpt>
<trkpt lat="30.9518500" lon="35.0999200">
<ele>343.640015</ele>
<time>2023-02-01T10:53:28.799Z</time>
</trkpt>
<trkpt lat="30.9516500" lon="35.1000100">
<ele>342.010010</ele>
<time>2023-02-01T10:53:28.799Z</time>
</trkpt>
<trkpt lat="30.9512100" lon="35.1001900">
<ele>342.830017</ele>
<time>2023-02-01T10:53:28.799Z</time>
</trkpt>
<trkpt lat="30.9511000" lon="35.1002400">
<ele>343.099976</ele>
<time>2023-02-01T10:53:28.799Z</time>
</trkpt>
<trkpt lat="30.9508900" lon="35.1003900">
<ele>342.610016</ele>
<time>2023-02-01T10:53:28.799Z</time>
</trkpt>
<trkpt lat="30.9507600" lon="35.1004700">
<ele>341.450012</ele>
<time>2023-02-01T10:53:28.799Z</time>
</trkpt>
<trkpt lat="30.9496100" lon="35.1014300">
<ele>331.980011</ele>
<time>2023-02-01T10:53:28.799Z</time>
</trkpt>
<trkpt lat="30.9493100" lon="35.1016500">
<ele>332.430023</ele>
<time>2023-02-01T10:53:28.799Z</time>
</trkpt>
<trkpt lat="30.9479500" lon="35.1026100">
<ele>334.700012</ele>
<time>2023-02-01T10:53:28.799Z</time>
</trkpt>
<trkpt lat="30.9471100" lon="35.1032400">
<ele>339.790009</ele>
<time>2023-02-01T10:53:28.799Z</time>
</trkpt>
<trkpt lat="30.9467600" lon="35.1035100">
<ele>339.100006</ele>
<time>2023-02-01T10:53:28.799Z</time>
</trkpt>
<trkpt lat="30.9465200" lon="35.1036800">
<ele>339.110016</ele>
<time>2023-02-01T10:53:28.799Z</time>
</trkpt>
<trkpt lat="30.9455200" lon="35.1044400">
<ele>342.870026</ele>
<time>2023-02-01T10:53:28.799Z</time>
</trkpt>
<trkpt lat="30.9452300" lon="35.1046500">
<ele>341.389984</ele>
<time>2023-02-01T10:53:28.799Z</time>
</trkpt>
<trkpt lat="30.9450900" lon="35.1047500">
<ele>341.970001</ele>
<time>2023-02-01T10:53:28.799Z</time>
</trkpt>
<trkpt lat="30.9449500" lon="35.1048600">
<ele>342.679993</ele>
<time>2023-02-01T10:53:28.799Z</time>
</trkpt>
<trkpt lat="30.9448100" lon="35.1049600">
<ele>343.049988</ele>
<time>2023-02-01T10:53:28.799Z</time>
</trkpt>
<trkpt lat="30.9446600" lon="35.1050700">
<ele>343.890015</ele>
<time>2023-02-01T10:53:28.799Z</time>
</trkpt>
<trkpt lat="30.9445200" lon="35.1051700">
<ele>344.179993</ele>
<time>2023-02-01T10:53:28.799Z</time>
</trkpt>
<trkpt lat="30.9443800" lon="35.1052800">
<ele>343.699982</ele>
<time>2023-02-01T10:53:28.799Z</time>
</trkpt>
<trkpt lat="30.9442500" lon="35.1053800">
<ele>344.440002</ele>
<time>2023-02-01T10:53:28.799Z</time>
</trkpt>
<trkpt lat="30.9441100" lon="35.1054800">
<ele>343.690002</ele>
<time>2023-02-01T10:53:28.799Z</time>
</trkpt>
<trkpt lat="30.9438300" lon="35.1056600">
<ele>343.760010</ele>
<time>2023-02-01T10:53:28.799Z</time>
</trkpt>
<trkpt lat="30.9437000" lon="35.1057500">
<ele>347.970001</ele>
<time>2023-02-01T10:53:28.799Z</time>
</trkpt>
<trkpt lat="30.9434900" lon="35.1059800">
<ele>350.950012</ele>
<time>2023-02-01T10:53:28.799Z</time>
</trkpt>
<trkpt lat="30.9433900" lon="35.1061000">
<ele>351.109985</ele>
<time>2023-02-01T10:53:28.799Z</time>
</trkpt>
<trkpt lat="30.9423500" lon="35.1075600">
<ele>356.910004</ele>
<time>2023-02-01T10:53:28.799Z</time>
</trkpt>
<trkpt lat="30.9418300" lon="35.1082100">
<ele>357.139984</ele>
<time>2023-02-01T10:53:28.799Z</time>
</trkpt>
<trkpt lat="30.9413200" lon="35.1089000">
<ele>358.030029</ele>
<time>2023-02-01T10:53:28.799Z</time>
</trkpt>
<trkpt lat="30.9407700" lon="35.1098000">
<ele>358.440002</ele>
<time>2023-02-01T10:53:28.799Z</time>
</trkpt>
<trkpt lat="30.9406200" lon="35.1101000">
<ele>359.279999</ele>
<time>2023-02-01T10:53:28.799Z</time>
</trkpt>
<trkpt lat="30.9404000" lon="35.1105900">
<ele>360.630005</ele>
<time>2023-02-01T10:53:28.799Z</time>
</trkpt>
<trkpt lat="30.9400100" lon="35.1115900">
<ele>369.139984</ele>
<time>2023-02-01T10:53:28.799Z</time>
</trkpt>
<trkpt lat="30.9395300" lon="35.1125500">
<ele>366.299988</ele>
<time>2023-02-01T10:53:28.799Z</time>
</trkpt>
<trkpt lat="30.9389700" lon="35.1134500">
<ele>370.299988</ele>
<time>2023-02-01T10:53:28.799Z</time>
</trkpt>
<trkpt lat="30.9383700" lon="35.1145500">
<ele>376.630005</ele>
<time>2023-02-01T10:53:28.799Z</time>
</trkpt>
<trkpt lat="30.9380200" lon="35.1151100">
<ele>374.810028</ele>
<time>2023-02-01T10:53:28.799Z</time>
</trkpt>
<trkpt lat="30.9379000" lon="35.1154200">
<ele>375.130005</ele>
<time>2023-02-01T10:53:28.799Z</time>
</trkpt>
<trkpt lat="30.9376500" lon="35.1160400">
<ele>375.960022</ele>
<time>2023-02-01T10:53:28.799Z</time>
</trkpt>
<trkpt lat="30.9368500" lon="35.1177700">
<ele>383.279999</ele>
<time>2023-02-01T10:53:28.799Z</time>
</trkpt>
<trkpt lat="30.9364600" lon="35.1185300">
<ele>381.769989</ele>
<time>2023-02-01T10:53:28.799Z</time>
</trkpt>
<trkpt lat="30.9362700" lon="35.1190200">
<ele>383.279999</ele>
<time>2023-02-01T10:53:28.799Z</time>
</trkpt>
<trkpt lat="30.9356100" lon="35.1205100">
<ele>385.000031</ele>
<time>2023-02-01T10:53:28.799Z</time>
</trkpt>
<trkpt lat="30.9355400" lon="35.1206800">
<ele>385.130005</ele>
<time>2023-02-01T10:53:28.799Z</time>
</trkpt>
<trkpt lat="30.9354700" lon="35.1208500">
<ele>384.889984</ele>
<time>2023-02-01T10:53:28.799Z</time>
</trkpt>
<trkpt lat="30.9354000" lon="35.1210200">
<ele>385.100006</ele>
<time>2023-02-01T10:53:28.799Z</time>
</trkpt>
<trkpt lat="30.9353300" lon="35.1212000">
<ele>385.790009</ele>
<time>2023-02-01T10:53:28.799Z</time>
</trkpt>
<trkpt lat="30.9352500" lon="35.1213700">
<ele>387.429993</ele>
<time>2023-02-01T10:53:28.799Z</time>
</trkpt>
<trkpt lat="30.9351800" lon="35.1215400">
<ele>388.410004</ele>
<time>2023-02-01T10:53:28.799Z</time>
</trkpt>
<trkpt lat="30.9351000" lon="35.1217300">
<ele>389.940002</ele>
<time>2023-02-01T10:53:28.799Z</time>
</trkpt>
<trkpt lat="30.9350300" lon="35.1219000">
<ele>392.109985</ele>
<time>2023-02-01T10:53:28.799Z</time>
</trkpt>
<trkpt lat="30.9349600" lon="35.1220800">
<ele>392.289978</ele>
<time>2023-02-01T10:53:28.799Z</time>
</trkpt>
<trkpt lat="30.9348900" lon="35.1222500">
<ele>392.060028</ele>
<time>2023-02-01T10:53:28.799Z</time>
</trkpt>
<trkpt lat="30.9348200" lon="35.1224200">
<ele>392.250000</ele>
<time>2023-02-01T10:53:28.799Z</time>
</trkpt>
<trkpt lat="30.9347400" lon="35.1225900">
<ele>392.429993</ele>
<time>2023-02-01T10:53:28.799Z</time>
</trkpt>
<trkpt lat="30.9346700" lon="35.1227600">
<ele>393.479980</ele>
<time>2023-02-01T10:53:28.799Z</time>
</trkpt>
<trkpt lat="30.9345800" lon="35.1229300">
<ele>394.519989</ele>
<time>2023-02-01T10:53:28.799Z</time>
</trkpt>
<trkpt lat="30.9344900" lon="35.1230900">
<ele>394.609985</ele>
<time>2023-02-01T10:53:28.799Z</time>
</trkpt>
<trkpt lat="30.9343900" lon="35.1232500">
<ele>393.990021</ele>
<time>2023-02-01T10:53:28.799Z</time>
</trkpt>
<trkpt lat="30.9343000" lon="35.1234100">
<ele>393.359985</ele>
<time>2023-02-01T10:53:28.799Z</time>
</trkpt>
<trkpt lat="30.9341900" lon="35.1235500">
<ele>393.210022</ele>
<time>2023-02-01T10:53:28.799Z</time>
</trkpt>
<trkpt lat="30.9341000" lon="35.1237000">
<ele>393.160004</ele>
<time>2023-02-01T10:53:28.799Z</time>
</trkpt>
<trkpt lat="30.9339900" lon="35.1238400">
<ele>393.779968</ele>
<time>2023-02-01T10:53:28.799Z</time>
</trkpt>
<trkpt lat="30.9339000" lon="35.1240000">
<ele>396.040009</ele>
<time>2023-02-01T10:53:28.799Z</time>
</trkpt>
<trkpt lat="30.9338100" lon="35.1241600">
<ele>398.799988</ele>
<time>2023-02-01T10:53:28.799Z</time>
</trkpt>
<trkpt lat="30.9337300" lon="35.1243100">
<ele>398.980011</ele>
<time>2023-02-01T10:53:28.799Z</time>
</trkpt>
<trkpt lat="30.9336600" lon="35.1244700">
<ele>399.250000</ele>
<time>2023-02-01T10:53:28.799Z</time>
</trkpt>
<trkpt lat="30.9335800" lon="35.1246200">
<ele>399.929993</ele>
<time>2023-02-01T10:53:28.799Z</time>
</trkpt>
<trkpt lat="30.9335000" lon="35.1247600">
<ele>400.759979</ele>
<time>2023-02-01T10:53:28.799Z</time>
</trkpt>
<trkpt lat="30.9334200" lon="35.1249100">
<ele>401.809998</ele>
<time>2023-02-01T10:53:28.799Z</time>
</trkpt>
<trkpt lat="30.9333600" lon="35.1250600">
<ele>403.079987</ele>
<time>2023-02-01T10:53:28.799Z</time>
</trkpt>
<trkpt lat="30.9333200" lon="35.1252100">
<ele>403.360016</ele>
<time>2023-02-01T10:53:28.799Z</time>
</trkpt>
<trkpt lat="30.9332800" lon="35.1253700">
<ele>404.040009</ele>
<time>2023-02-01T10:53:28.799Z</time>
</trkpt>
<trkpt lat="30.9332600" lon="35.1255300">
<ele>405.179993</ele>
<time>2023-02-01T10:53:28.799Z</time>
</trkpt>
<trkpt lat="30.9332600" lon="35.1256800">
<ele>406.449982</ele>
<time>2023-02-01T10:53:28.799Z</time>
</trkpt>
<trkpt lat="30.9332700" lon="35.1258300">
<ele>407.569977</ele>
<time>2023-02-01T10:53:28.799Z</time>
</trkpt>
<trkpt lat="30.9332900" lon="35.1259800">
<ele>409.239990</ele>
<time>2023-02-01T10:53:28.799Z</time>
</trkpt>
<trkpt lat="30.9333100" lon="35.1261400">
<ele>411.470001</ele>
<time>2023-02-01T10:53:28.799Z</time>
</trkpt>
<trkpt lat="30.9333300" lon="35.1263000">
<ele>413.709991</ele>
<time>2023-02-01T10:53:28.799Z</time>
</trkpt>
<trkpt lat="30.9333500" lon="35.1264500">
<ele>415.310028</ele>
<time>2023-02-01T10:53:28.799Z</time>
</trkpt>
<trkpt lat="30.9333400" lon="35.1266000">
<ele>415.140015</ele>
<time>2023-02-01T10:53:28.799Z</time>
</trkpt>
<trkpt lat="30.9333400" lon="35.1267400">
<ele>415.410004</ele>
<time>2023-02-01T10:53:28.799Z</time>
</trkpt>
<trkpt lat="30.9333200" lon="35.1268800">
<ele>415.410004</ele>
<time>2023-02-01T10:53:28.799Z</time>
</trkpt>
<trkpt lat="30.9332900" lon="35.1270200">
<ele>414.519989</ele>
<time>2023-02-01T10:53:28.799Z</time>
</trkpt>
<trkpt lat="30.9332300" lon="35.1271300">
<ele>412.600006</ele>
<time>2023-02-01T10:53:28.799Z</time>
</trkpt>
<trkpt lat="30.9331600" lon="35.1272400">
<ele>410.720001</ele>
<time>2023-02-01T10:53:28.799Z</time>
</trkpt>
<trkpt lat="30.9330800" lon="35.1273400">
<ele>409.079987</ele>
<time>2023-02-01T10:53:28.799Z</time>
</trkpt>
<trkpt lat="30.9330000" lon="35.1274500">
<ele>408.379974</ele>
<time>2023-02-01T10:53:28.799Z</time>
</trkpt>
<trkpt lat="30.9329100" lon="35.1275600">
<ele>408.920013</ele>
<time>2023-02-01T10:53:28.799Z</time>
</trkpt>
<trkpt lat="30.9328200" lon="35.1276700">
<ele>409.850006</ele>
<time>2023-02-01T10:53:28.799Z</time>
</trkpt>
<trkpt lat="30.9327500" lon="35.1277900">
<ele>411.049988</ele>
<time>2023-02-01T10:53:28.799Z</time>
</trkpt>
<trkpt lat="30.9326900" lon="35.1279000">
<ele>411.750000</ele>
<time>2023-02-01T10:53:28.799Z</time>
</trkpt>
<trkpt lat="30.9326300" lon="35.1280300">
<ele>411.679993</ele>
<time>2023-02-01T10:53:28.799Z</time>
</trkpt>
<trkpt lat="30.9325800" lon="35.1281500">
<ele>411.260010</ele>
<time>2023-02-01T10:53:28.799Z</time>
</trkpt>
<trkpt lat="30.9325300" lon="35.1282800">
<ele>410.630005</ele>
<time>2023-02-01T10:53:28.799Z</time>
</trkpt>
<trkpt lat="30.9324700" lon="35.1283900">
<ele>410.059998</ele>
<time>2023-02-01T10:53:28.799Z</time>
</trkpt>
<trkpt lat="30.9324000" lon="35.1284900">
<ele>409.839996</ele>
<time>2023-02-01T10:53:28.799Z</time>
</trkpt>
<trkpt lat="30.9323400" lon="35.1285900">
<ele>409.589996</ele>
<time>2023-02-01T10:53:28.799Z</time>
</trkpt>
<trkpt lat="30.9322700" lon="35.1286900">
<ele>409.589996</ele>
<time>2023-02-01T10:53:28.799Z</time>
</trkpt>
<trkpt lat="30.9321900" lon="35.1287900">
<ele>410.709991</ele>
<time>2023-02-01T10:53:28.799Z</time>
</trkpt>
<trkpt lat="30.9321200" lon="35.1288900">
<ele>413.220001</ele>
<time>2023-02-01T10:53:28.799Z</time>
</trkpt>
<trkpt lat="30.9320500" lon="35.1290000">
<ele>415.579987</ele>
<time>2023-02-01T10:53:28.799Z</time>
</trkpt>
<trkpt lat="30.9319900" lon="35.1290900">
<ele>417.100006</ele>
<time>2023-02-01T10:53:28.799Z</time>
</trkpt>
<trkpt lat="30.9319400" lon="35.1291900">
<ele>418.029999</ele>
<time>2023-02-01T10:53:28.799Z</time>
</trkpt>
<trkpt lat="30.9318900" lon="35.1292900">
<ele>418.479980</ele>
<time>2023-02-01T10:53:28.799Z</time>
</trkpt>
<trkpt lat="30.9318500" lon="35.1293800">
<ele>418.940002</ele>
<time>2023-02-01T10:53:28.799Z</time>
</trkpt>
<trkpt lat="30.9318200" lon="35.1294700">
<ele>419.609985</ele>
<time>2023-02-01T10:53:28.799Z</time>
</trkpt>
<trkpt lat="30.9318200" lon="35.1295800">
<ele>420.759979</ele>
<time>2023-02-01T10:53:28.799Z</time>
</trkpt>
<trkpt lat="30.9318300" lon="35.1296900">
<ele>421.730011</ele>
<time>2023-02-01T10:53:28.799Z</time>
</trkpt>
<trkpt lat="30.9318500" lon="35.1297900">
<ele>422.840027</ele>
<time>2023-02-01T10:53:28.799Z</time>
</trkpt>
<trkpt lat="30.9318800" lon="35.1299000">
<ele>424.210022</ele>
<time>2023-02-01T10:53:28.799Z</time>
</trkpt>
<trkpt lat="30.9319200" lon="35.1300000">
<ele>425.350006</ele>
<time>2023-02-01T10:53:28.799Z</time>
</trkpt>
<trkpt lat="30.9319800" lon="35.1301000">
<ele>427.489990</ele>
<time>2023-02-01T10:53:28.799Z</time>
</trkpt>
<trkpt lat="30.9320300" lon="35.1302000">
<ele>429.659973</ele>
<time>2023-02-01T10:53:28.799Z</time>
</trkpt>
<trkpt lat="30.9321000" lon="35.1302900">
<ele>430.809998</ele>
<time>2023-02-01T10:53:28.799Z</time>
</trkpt>
<trkpt lat="30.9321700" lon="35.1303900">
<ele>428.629974</ele>
<time>2023-02-01T10:53:28.799Z</time>
</trkpt>
<trkpt lat="30.9322500" lon="35.1304900">
<ele>425.629974</ele>
<time>2023-02-01T10:53:28.799Z</time>
</trkpt>
<trkpt lat="30.9323200" lon="35.1305800">
<ele>424.200012</ele>
<time>2023-02-01T10:53:28.799Z</time>
</trkpt>
<trkpt lat="30.9324000" lon="35.1306700">
<ele>423.700012</ele>
<time>2023-02-01T10:53:28.799Z</time>
</trkpt>
<trkpt lat="30.9324800" lon="35.1307700">
<ele>422.719971</ele>
<time>2023-02-01T10:53:28.799Z</time>
</trkpt>
<trkpt lat="30.9325600" lon="35.1308600">
<ele>422.450012</ele>
<time>2023-02-01T10:53:28.799Z</time>
</trkpt>
<trkpt lat="30.9326400" lon="35.1309600">
<ele>422.429993</ele>
<time>2023-02-01T10:53:28.799Z</time>
</trkpt>
<trkpt lat="30.9327300" lon="35.1310600">
<ele>423.260010</ele>
<time>2023-02-01T10:53:28.799Z</time>
</trkpt>
<trkpt lat="30.9328200" lon="35.1311500">
<ele>425.370026</ele>
<time>2023-02-01T10:53:28.799Z</time>
</trkpt>
<trkpt lat="30.9329100" lon="35.1312500">
<ele>427.380005</ele>
<time>2023-02-01T10:53:28.799Z</time>
</trkpt>
<trkpt lat="30.9330000" lon="35.1313400">
<ele>428.089996</ele>
<time>2023-02-01T10:53:28.799Z</time>
</trkpt>
<trkpt lat="30.9330900" lon="35.1314300">
<ele>427.709991</ele>
<time>2023-02-01T10:53:28.799Z</time>
</trkpt>
<trkpt lat="30.9331900" lon="35.1315100">
<ele>428.119995</ele>
<time>2023-02-01T10:53:28.799Z</time>
</trkpt>
<trkpt lat="30.9332800" lon="35.1316000">
<ele>429.080017</ele>
<time>2023-02-01T10:53:28.799Z</time>
</trkpt>
<trkpt lat="30.9333800" lon="35.1316800">
<ele>430.350006</ele>
<time>2023-02-01T10:53:28.799Z</time>
</trkpt>
<trkpt lat="30.9334800" lon="35.1317600">
<ele>431.409973</ele>
<time>2023-02-01T10:53:28.799Z</time>
</trkpt>
<trkpt lat="30.9335900" lon="35.1318400">
<ele>433.000000</ele>
<time>2023-02-01T10:53:28.799Z</time>
</trkpt>
<trkpt lat="30.9337000" lon="35.1319200">
<ele>433.910004</ele>
<time>2023-02-01T10:53:28.799Z</time>
</trkpt>
<trkpt lat="30.9338000" lon="35.1320100">
<ele>435.410004</ele>
<time>2023-02-01T10:53:28.799Z</time>
</trkpt>
<trkpt lat="30.9339000" lon="35.1321100">
<ele>436.719971</ele>
<time>2023-02-01T10:53:28.799Z</time>
</trkpt>
<trkpt lat="30.9340000" lon="35.1322100">
<ele>435.649994</ele>
<time>2023-02-01T10:53:28.799Z</time>
</trkpt>
<trkpt lat="30.9340900" lon="35.1323100">
<ele>434.260010</ele>
<time>2023-02-01T10:53:28.799Z</time>
</trkpt>
<trkpt lat="30.9341800" lon="35.1324100">
<ele>434.109985</ele>
<time>2023-02-01T10:53:28.799Z</time>
</trkpt>
<trkpt lat="30.9342700" lon="35.1325000">
<ele>433.769989</ele>
<time>2023-02-01T10:53:28.799Z</time>
</trkpt>
<trkpt lat="30.9343600" lon="35.1326100">
<ele>433.290009</ele>
<time>2023-02-01T10:53:28.799Z</time>
</trkpt>
<trkpt lat="30.9344600" lon="35.1327100">
<ele>432.850006</ele>
<time>2023-02-01T10:53:28.799Z</time>
</trkpt>
<trkpt lat="30.9345500" lon="35.1328100">
<ele>432.799988</ele>
<time>2023-02-01T10:53:28.799Z</time>
</trkpt>
<trkpt lat="30.9346400" lon="35.1329200">
<ele>432.929993</ele>
<time>2023-02-01T10:53:28.799Z</time>
</trkpt>
<trkpt lat="30.9347100" lon="35.1330200">
<ele>433.590027</ele>
<time>2023-02-01T10:53:28.799Z</time>
</trkpt>
<trkpt lat="30.9347900" lon="35.1331200">
<ele>433.639984</ele>
<time>2023-02-01T10:53:28.799Z</time>
</trkpt>
<trkpt lat="30.9348500" lon="35.1332300">
<ele>432.959991</ele>
<time>2023-02-01T10:53:28.799Z</time>
</trkpt>
<trkpt lat="30.9349100" lon="35.1333400">
<ele>431.929993</ele>
<time>2023-02-01T10:53:28.799Z</time>
</trkpt>
<trkpt lat="30.9349500" lon="35.1334600">
<ele>430.500000</ele>
<time>2023-02-01T10:53:28.799Z</time>
</trkpt>
<trkpt lat="30.9349800" lon="35.1335900">
<ele>428.710022</ele>
<time>2023-02-01T10:53:28.799Z</time>
</trkpt>
<trkpt lat="30.9350100" lon="35.1337200">
<ele>427.609985</ele>
<time>2023-02-01T10:53:28.799Z</time>
</trkpt>
<trkpt lat="30.9350400" lon="35.1338600">
<ele>427.100006</ele>
<time>2023-02-01T10:53:28.799Z</time>
</trkpt>
<trkpt lat="30.9350700" lon="35.1339900">
<ele>427.279999</ele>
<time>2023-02-01T10:53:28.799Z</time>
</trkpt>
<trkpt lat="30.9351100" lon="35.1343100">
<ele>431.069977</ele>
<time>2023-02-01T10:53:28.799Z</time>
</trkpt>
<trkpt lat="30.9351200" lon="35.1344600">
<ele>434.130005</ele>
<time>2023-02-01T10:53:28.799Z</time>
</trkpt>
<trkpt lat="30.9351100" lon="35.1346100">
<ele>434.980011</ele>
<time>2023-02-01T10:53:28.799Z</time>
</trkpt>
<trkpt lat="30.9349800" lon="35.1353600">
<ele>432.820007</ele>
<time>2023-02-01T10:53:28.799Z</time>
</trkpt>
<trkpt lat="30.9347800" lon="35.1364300">
<ele>436.800018</ele>
<time>2023-02-01T10:53:28.799Z</time>
</trkpt>
<trkpt lat="30.9347500" lon="35.1365700">
<ele>435.890015</ele>
<time>2023-02-01T10:53:28.799Z</time>
</trkpt>
<trkpt lat="30.9347400" lon="35.1367300">
<ele>434.779999</ele>
<time>2023-02-01T10:53:28.799Z</time>
</trkpt>
<trkpt lat="30.9347600" lon="35.1370500">
<ele>435.340027</ele>
<time>2023-02-01T10:53:28.799Z</time>
</trkpt>
<trkpt lat="30.9347800" lon="35.1372100">
<ele>438.070007</ele>
<time>2023-02-01T10:53:28.799Z</time>
</trkpt>
<trkpt lat="30.9348000" lon="35.1375100">
<ele>442.889984</ele>
<time>2023-02-01T10:53:28.799Z</time>
</trkpt>
<trkpt lat="30.9348000" lon="35.1376600">
<ele>444.179993</ele>
<time>2023-02-01T10:53:28.799Z</time>
</trkpt>
<trkpt lat="30.9347700" lon="35.1378100">
<ele>443.699982</ele>
<time>2023-02-01T10:53:28.799Z</time>
</trkpt>
<trkpt lat="30.9347400" lon="35.1379400">
<ele>442.539978</ele>
<time>2023-02-01T10:53:28.799Z</time>
</trkpt>
<trkpt lat="30.9346900" lon="35.1380600">
<ele>441.680023</ele>
<time>2023-02-01T10:53:28.799Z</time>
</trkpt>
<trkpt lat="30.9346200" lon="35.1381600">
<ele>441.649994</ele>
<time>2023-02-01T10:53:28.799Z</time>
</trkpt>
<trkpt lat="30.9343100" lon="35.1385200">
<ele>444.570007</ele>
<time>2023-02-01T10:53:28.799Z</time>
</trkpt>
<trkpt lat="30.9342000" lon="35.1388500">
<ele>449.739990</ele>
<time>2023-02-01T10:53:28.799Z</time>
</trkpt>
<trkpt lat="30.9341900" lon="35.1389600">
<ele>451.239990</ele>
<time>2023-02-01T10:53:28.799Z</time>
</trkpt>
<trkpt lat="30.9342400" lon="35.1390900">
<ele>451.399994</ele>
<time>2023-02-01T10:53:28.799Z</time>
</trkpt>
<trkpt lat="30.9342700" lon="35.1392100">
<ele>451.809998</ele>
<time>2023-02-01T10:53:28.799Z</time>
</trkpt>
<trkpt lat="30.9344700" lon="35.1395200">
<ele>448.520020</ele>
<time>2023-02-01T10:53:28.799Z</time>
</trkpt>
<trkpt lat="30.9345300" lon="35.1396200">
<ele>447.559998</ele>
<time>2023-02-01T10:53:28.799Z</time>
</trkpt>
<trkpt lat="30.9345600" lon="35.1397200">
<ele>446.760010</ele>
<time>2023-02-01T10:53:28.799Z</time>
</trkpt>
<trkpt lat="30.9345800" lon="35.1398100">
<ele>446.680023</ele>
<time>2023-02-01T10:53:28.799Z</time>
</trkpt>
<trkpt lat="30.9345700" lon="35.1399100">
<ele>446.880005</ele>
<time>2023-02-01T10:53:28.799Z</time>
</trkpt>
<trkpt lat="30.9344900" lon="35.1402000">
<ele>447.959991</ele>
<time>2023-02-01T10:53:28.799Z</time>
</trkpt>
<trkpt lat="30.9343600" lon="35.1405300">
<ele>448.390015</ele>
<time>2023-02-01T10:53:28.799Z</time>
</trkpt>
<trkpt lat="30.9342600" lon="35.1407400">
<ele>449.989990</ele>
<time>2023-02-01T10:53:28.799Z</time>
</trkpt>
<trkpt lat="30.9341500" lon="35.1409300">
<ele>450.529999</ele>
<time>2023-02-01T10:53:28.799Z</time>
</trkpt>
<trkpt lat="30.9340200" lon="35.1410700">
<ele>449.910004</ele>
<time>2023-02-01T10:53:28.799Z</time>
</trkpt>
<trkpt lat="30.9335800" lon="35.1413500">
<ele>449.019989</ele>
<time>2023-02-01T10:53:28.799Z</time>
</trkpt>
<trkpt lat="30.9334900" lon="35.1414200">
<ele>449.210022</ele>
<time>2023-02-01T10:53:28.799Z</time>
</trkpt>
<trkpt lat="30.9330500" lon="35.1418200">
<ele>453.539978</ele>
<time>2023-02-01T10:53:28.799Z</time>
</trkpt>
<trkpt lat="30.9327300" lon="35.1422200">
<ele>458.000000</ele>
<time>2023-02-01T10:53:28.799Z</time>
</trkpt>
<trkpt lat="30.9326700" lon="35.1423300">
<ele>458.540009</ele>
<time>2023-02-01T10:53:28.799Z</time>
</trkpt>
<trkpt lat="30.9326300" lon="35.1425000">
<ele>459.530029</ele>
<time>2023-02-01T10:53:28.799Z</time>
</trkpt>
<trkpt lat="30.9325900" lon="35.1425800">
<ele>460.349976</ele>
<time>2023-02-01T10:53:28.799Z</time>
</trkpt>
<trkpt lat="30.9320900" lon="35.1427500">
<ele>468.470001</ele>
<time>2023-02-01T10:53:28.799Z</time>
</trkpt>
<trkpt lat="30.9318900" lon="35.1428000">
<ele>469.029999</ele>
<time>2023-02-01T10:53:28.799Z</time>
</trkpt>
<trkpt lat="30.9316600" lon="35.1429200">
<ele>467.869995</ele>
<time>2023-02-01T10:53:28.799Z</time>
</trkpt>
<trkpt lat="30.9315800" lon="35.1429800">
<ele>466.070007</ele>
<time>2023-02-01T10:53:28.799Z</time>
</trkpt>
<trkpt lat="30.9315200" lon="35.1430700">
<ele>464.389984</ele>
<time>2023-02-01T10:53:28.799Z</time>
</trkpt>
<trkpt lat="30.9313600" lon="35.1432000">
<ele>462.570007</ele>
<time>2023-02-01T10:53:28.799Z</time>
</trkpt>
<trkpt lat="30.9313100" lon="35.1432700">
<ele>462.189972</ele>
<time>2023-02-01T10:53:28.799Z</time>
</trkpt>
<trkpt lat="30.9312400" lon="35.1433300">
<ele>461.299988</ele>
<time>2023-02-01T10:53:28.799Z</time>
</trkpt>
<trkpt lat="30.9310900" lon="35.1433900">
<ele>459.910004</ele>
<time>2023-02-01T10:53:28.799Z</time>
</trkpt>
<trkpt lat="30.9310000" lon="35.1433800">
<ele>460.139984</ele>
<time>2023-02-01T10:53:28.799Z</time>
</trkpt>
<trkpt lat="30.9308700" lon="35.1433100">
<ele>459.779999</ele>
<time>2023-02-01T10:53:28.799Z</time>
</trkpt>
<trkpt lat="30.9306700" lon="35.1430900">
<ele>458.020020</ele>
<time>2023-02-01T10:53:28.799Z</time>
</trkpt>
<trkpt lat="30.9306100" lon="35.1430500">
<ele>457.380005</ele>
<time>2023-02-01T10:53:28.799Z</time>
</trkpt>
<trkpt lat="30.9304000" lon="35.1429600">
<ele>459.429993</ele>
<time>2023-02-01T10:53:28.799Z</time>
</trkpt>
<trkpt lat="30.9301100" lon="35.1428000">
<ele>462.570007</ele>
<time>2023-02-01T10:53:28.799Z</time>
</trkpt>
<trkpt lat="30.9299400" lon="35.1427400">
<ele>461.379974</ele>
<time>2023-02-01T10:53:28.799Z</time>
</trkpt>
<trkpt lat="30.9297600" lon="35.1427100">
<ele>456.920013</ele>
<time>2023-02-01T10:53:28.799Z</time>
</trkpt>
<trkpt lat="30.9296900" lon="35.1427200">
<ele>455.169983</ele>
<time>2023-02-01T10:53:28.799Z</time>
</trkpt>
<trkpt lat="30.9296100" lon="35.1427400">
<ele>452.989990</ele>
<time>2023-02-01T10:53:28.799Z</time>
</trkpt>
<trkpt lat="30.9293700" lon="35.1428900">
<ele>449.130005</ele>
<time>2023-02-01T10:53:28.799Z</time>
</trkpt>
<trkpt lat="30.9292000" lon="35.1429700">
<ele>448.669983</ele>
<time>2023-02-01T10:53:28.799Z</time>
</trkpt>
<trkpt lat="30.9291000" lon="35.1430000">
<ele>447.830017</ele>
<time>2023-02-01T10:53:28.799Z</time>
</trkpt>
<trkpt lat="30.9289300" lon="35.1430000">
<ele>445.870026</ele>
<time>2023-02-01T10:53:28.799Z</time>
</trkpt>
<trkpt lat="30.9288400" lon="35.1429600">
<ele>444.500000</ele>
<time>2023-02-01T10:53:28.799Z</time>
</trkpt>
<trkpt lat="30.9287200" lon="35.1428300">
<ele>442.230011</ele>
<time>2023-02-01T10:53:28.799Z</time>
</trkpt>
<trkpt lat="30.9286200" lon="35.1425900">
<ele>443.029999</ele>
<time>2023-02-01T10:53:28.799Z</time>
</trkpt>
<trkpt lat="30.9285800" lon="35.1425300">
<ele>443.839996</ele>
<time>2023-02-01T10:53:28.799Z</time>
</trkpt>
<trkpt lat="30.9284700" lon="35.1424400">
<ele>445.050018</ele>
<time>2023-02-01T10:53:28.799Z</time>
</trkpt>
<trkpt lat="30.9283300" lon="35.1423800">
<ele>445.910004</ele>
<time>2023-02-01T10:53:28.799Z</time>
</trkpt>
<trkpt lat="30.9280800" lon="35.1423300">
<ele>449.309998</ele>
<time>2023-02-01T10:53:28.799Z</time>
</trkpt>
<trkpt lat="30.9274200" lon="35.1423200">
<ele>443.550018</ele>
<time>2023-02-01T10:53:28.799Z</time>
</trkpt>
<trkpt lat="30.9272500" lon="35.1423500">
<ele>444.290009</ele>
<time>2023-02-01T10:53:28.799Z</time>
</trkpt>
<trkpt lat="30.9271000" lon="35.1424400">
<ele>444.540009</ele>
<time>2023-02-01T10:53:28.799Z</time>
</trkpt>
<trkpt lat="30.9269700" lon="35.1425600">
<ele>443.449982</ele>
<time>2023-02-01T10:53:28.799Z</time>
</trkpt>
<trkpt lat="30.9267300" lon="35.1428500">
<ele>439.809998</ele>
<time>2023-02-01T10:53:28.799Z</time>
</trkpt>
<trkpt lat="30.9265900" lon="35.1429700">
<ele>439.199982</ele>
<time>2023-02-01T10:53:28.799Z</time>
</trkpt>
<trkpt lat="30.9265100" lon="35.1430000">
<ele>437.630005</ele>
<time>2023-02-01T10:53:28.799Z</time>
</trkpt>
<trkpt lat="30.9262300" lon="35.1430100">
<ele>432.220032</ele>
<time>2023-02-01T10:53:28.799Z</time>
</trkpt>
<trkpt lat="30.9259500" lon="35.1430800">
<ele>428.920013</ele>
<time>2023-02-01T10:53:28.799Z</time>
</trkpt>
<trkpt lat="30.9256200" lon="35.1432500">
<ele>425.549988</ele>
<time>2023-02-01T10:53:28.799Z</time>
</trkpt>
<trkpt lat="30.9251300" lon="35.1435600">
<ele>425.350006</ele>
<time>2023-02-01T10:53:28.799Z</time>
</trkpt>
<trkpt lat="30.9250100" lon="35.1435800">
<ele>425.559998</ele>
<time>2023-02-01T10:53:28.799Z</time>
</trkpt>
<trkpt lat="30.9249400" lon="35.1435800">
<ele>426.369995</ele>
<time>2023-02-01T10:53:28.799Z</time>
</trkpt>
<trkpt lat="30.9248200" lon="35.1435100">
<ele>426.659973</ele>
<time>2023-02-01T10:53:28.799Z</time>
</trkpt>
<trkpt lat="30.9247400" lon="35.1434000">
<ele>425.279999</ele>
<time>2023-02-01T10:53:28.799Z</time>
</trkpt>
<trkpt lat="30.9246100" lon="35.1432600">
<ele>423.799988</ele>
<time>2023-02-01T10:53:28.799Z</time>
</trkpt>
<trkpt lat="30.9245500" lon="35.1431600">
<ele>422.589996</ele>
<time>2023-02-01T10:53:28.799Z</time>
</trkpt>
<trkpt lat="30.9244300" lon="35.1429500">
<ele>420.360016</ele>
<time>2023-02-01T10:53:28.799Z</time>
</trkpt>
<trkpt lat="30.9244100" lon="35.1428300">
<ele>419.720032</ele>
<time>2023-02-01T10:53:28.799Z</time>
</trkpt>
<trkpt lat="30.9243500" lon="35.1417800">
<ele>417.329987</ele>
<time>2023-02-01T10:53:28.799Z</time>
</trkpt>
<trkpt lat="30.9243500" lon="35.1410200">
<ele>409.360016</ele>
<time>2023-02-01T10:53:28.799Z</time>
</trkpt>
<trkpt lat="30.9243400" lon="35.1409000">
<ele>409.089996</ele>
<time>2023-02-01T10:53:28.799Z</time>
</trkpt>
<trkpt lat="30.9242900" lon="35.1406700">
<ele>410.760010</ele>
<time>2023-02-01T10:53:28.799Z</time>
</trkpt>
<trkpt lat="30.9241100" lon="35.1401600">
<ele>412.260010</ele>
<time>2023-02-01T10:53:28.799Z</time>
</trkpt>
<trkpt lat="30.9240700" lon="35.1400300">
<ele>413.479980</ele>
<time>2023-02-01T10:53:28.799Z</time>
</trkpt>
<trkpt lat="30.9239400" lon="35.1391700">
<ele>413.279999</ele>
<time>2023-02-01T10:53:28.799Z</time>
</trkpt>
<trkpt lat="30.9239100" lon="35.1385900">
<ele>408.769989</ele>
<time>2023-02-01T10:53:28.799Z</time>
</trkpt>
<trkpt lat="30.9238300" lon="35.1379000">
<ele>405.970001</ele>
<time>2023-02-01T10:53:28.799Z</time>
</trkpt>
<trkpt lat="30.9238200" lon="35.1376500">
<ele>405.829987</ele>
<time>2023-02-01T10:53:28.799Z</time>
</trkpt>
<trkpt lat="30.9239400" lon="35.1368300">
<ele>400.260010</ele>
<time>2023-02-01T10:53:28.799Z</time>
</trkpt>
<trkpt lat="30.9240300" lon="35.1364900">
<ele>401.569977</ele>
<time>2023-02-01T10:53:28.799Z</time>
</trkpt>
<trkpt lat="30.9240700" lon="35.1362800">
<ele>402.690002</ele>
<time>2023-02-01T10:53:28.799Z</time>
</trkpt>
<trkpt lat="30.9240700" lon="35.1360600">
<ele>402.779999</ele>
<time>2023-02-01T10:53:28.799Z</time>
</trkpt>
<trkpt lat="30.9240400" lon="35.1358700">
<ele>399.570007</ele>
<time>2023-02-01T10:53:28.799Z</time>
</trkpt>
<trkpt lat="30.9239900" lon="35.1357800">
<ele>399.179993</ele>
<time>2023-02-01T10:53:28.799Z</time>
</trkpt>
<trkpt lat="30.9239400" lon="35.1357000">
<ele>399.760010</ele>
<time>2023-02-01T10:53:28.799Z</time>
</trkpt>
<trkpt lat="30.9235000" lon="35.1352200">
<ele>408.429993</ele>
<time>2023-02-01T10:53:28.799Z</time>
</trkpt>
<trkpt lat="30.9233500" lon="35.1349500">
<ele>409.360016</ele>
<time>2023-02-01T10:53:28.799Z</time>
</trkpt>
<trkpt lat="30.9233300" lon="35.1348600">
<ele>409.019989</ele>
<time>2023-02-01T10:53:28.799Z</time>
</trkpt>
<trkpt lat="30.9233400" lon="35.1344900">
<ele>405.399994</ele>
<time>2023-02-01T10:53:28.799Z</time>
</trkpt>
<trkpt lat="30.9233000" lon="35.1340600">
<ele>400.370026</ele>
<time>2023-02-01T10:53:28.799Z</time>
</trkpt>
<trkpt lat="30.9232600" lon="35.1338400">
<ele>399.500000</ele>
<time>2023-02-01T10:53:28.799Z</time>
</trkpt>
<trkpt lat="30.9232000" lon="35.1336700">
<ele>401.189972</ele>
<time>2023-02-01T10:53:28.799Z</time>
</trkpt>
<trkpt lat="30.9231400" lon="35.1336000">
<ele>402.399994</ele>
<time>2023-02-01T10:53:28.799Z</time>
</trkpt>
<trkpt lat="30.9229800" lon="35.1335000">
<ele>403.559998</ele>
<time>2023-02-01T10:53:28.799Z</time>
</trkpt>
<trkpt lat="30.9224400" lon="35.1333100">
<ele>408.519989</ele>
<time>2023-02-01T10:53:28.799Z</time>
</trkpt>
<trkpt lat="30.9222300" lon="35.1332200">
<ele>409.220001</ele>
<time>2023-02-01T10:53:28.799Z</time>
</trkpt>
<trkpt lat="30.9221400" lon="35.1331600">
<ele>407.720001</ele>
<time>2023-02-01T10:53:28.799Z</time>
</trkpt>
<trkpt lat="30.9219400" lon="35.1329900">
<ele>403.079987</ele>
<time>2023-02-01T10:53:28.799Z</time>
</trkpt>
<trkpt lat="30.9218800" lon="35.1329600">
<ele>403.010010</ele>
<time>2023-02-01T10:53:28.799Z</time>
</trkpt>
<trkpt lat="30.9213700" lon="35.1329600">
<ele>404.640015</ele>
<time>2023-02-01T10:53:28.799Z</time>
</trkpt>
<trkpt lat="30.9212900" lon="35.1329400">
<ele>404.300018</ele>
<time>2023-02-01T10:53:28.799Z</time>
</trkpt>
<trkpt lat="30.9212300" lon="35.1328900">
<ele>403.059998</ele>
<time>2023-02-01T10:53:28.799Z</time>
</trkpt>
<trkpt lat="30.9211000" lon="35.1327200">
<ele>398.740021</ele>
<time>2023-02-01T10:53:28.799Z</time>
</trkpt>
<trkpt lat="30.9209900" lon="35.1326300">
<ele>396.579987</ele>
<time>2023-02-01T10:53:28.799Z</time>
</trkpt>
<trkpt lat="30.9208600" lon="35.1326100">
<ele>395.830017</ele>
<time>2023-02-01T10:53:28.799Z</time>
</trkpt>
<trkpt lat="30.9207200" lon="35.1326300">
<ele>395.050018</ele>
<time>2023-02-01T10:53:28.799Z</time>
</trkpt>
<trkpt lat="30.9205600" lon="35.1326900">
<ele>394.839996</ele>
<time>2023-02-01T10:53:28.799Z</time>
</trkpt>
<trkpt lat="30.9204200" lon="35.1328000">
<ele>392.069977</ele>
<time>2023-02-01T10:53:28.799Z</time>
</trkpt>
<trkpt lat="30.9199600" lon="35.1332900">
<ele>387.640015</ele>
<time>2023-02-01T10:53:28.799Z</time>
</trkpt>
<trkpt lat="30.9198700" lon="35.1333500">
<ele>387.970001</ele>
<time>2023-02-01T10:53:28.799Z</time>
</trkpt>
<trkpt lat="30.9197800" lon="35.1333800">
<ele>387.870026</ele>
<time>2023-02-01T10:53:28.799Z</time>
</trkpt>
<trkpt lat="30.9196800" lon="35.1333900">
<ele>387.589996</ele>
<time>2023-02-01T10:53:28.799Z</time>
</trkpt>
<trkpt lat="30.9195100" lon="35.1333500">
<ele>386.549988</ele>
<time>2023-02-01T10:53:28.799Z</time>
</trkpt>
<trkpt lat="30.9194300" lon="35.1333500">
<ele>385.850006</ele>
<time>2023-02-01T10:53:28.799Z</time>
</trkpt>
<trkpt lat="30.9193600" lon="35.1333700">
<ele>384.660004</ele>
<time>2023-02-01T10:53:28.799Z</time>
</trkpt>
<trkpt lat="30.9193100" lon="35.1334100">
<ele>383.859985</ele>
<time>2023-02-01T10:53:28.799Z</time>
</trkpt>
<trkpt lat="30.9192700" lon="35.1334600">
<ele>383.200012</ele>
<time>2023-02-01T10:53:28.799Z</time>
</trkpt>
<trkpt lat="30.9192200" lon="35.1335800">
<ele>382.300018</ele>
<time>2023-02-01T10:53:28.799Z</time>
</trkpt>
<trkpt lat="30.9192000" lon="35.1337200">
<ele>381.749969</ele>
<time>2023-02-01T10:53:28.799Z</time>
</trkpt>
<trkpt lat="30.9192100" lon="35.1341400">
<ele>381.920013</ele>
<time>2023-02-01T10:53:28.799Z</time>
</trkpt>
<trkpt lat="30.9191700" lon="35.1342100">
<ele>381.380005</ele>
<time>2023-02-01T10:53:28.799Z</time>
</trkpt>
<trkpt lat="30.9189300" lon="35.1343200">
<ele>377.670013</ele>
<time>2023-02-01T10:53:28.799Z</time>
</trkpt>
<trkpt lat="30.9188700" lon="35.1344200">
<ele>376.099976</ele>
<time>2023-02-01T10:53:28.799Z</time>
</trkpt>
<trkpt lat="30.9188600" lon="35.1344800">
<ele>375.750000</ele>
<time>2023-02-01T10:53:28.799Z</time>
</trkpt>
<trkpt lat="30.9188500" lon="35.1355700">
<ele>384.630005</ele>
<time>2023-02-01T10:53:28.799Z</time>
</trkpt>
<trkpt lat="30.9186800" lon="35.1364200">
<ele>387.339996</ele>
<time>2023-02-01T10:53:28.799Z</time>
</trkpt>
<trkpt lat="30.9186700" lon="35.1372100">
<ele>396.430023</ele>
<time>2023-02-01T10:53:28.799Z</time>
</trkpt>
<trkpt lat="30.9186200" lon="35.1380400">
<ele>404.109985</ele>
<time>2023-02-01T10:53:28.799Z</time>
</trkpt>
<trkpt lat="30.9186000" lon="35.1381600">
<ele>405.230011</ele>
<time>2023-02-01T10:53:28.799Z</time>
</trkpt>
<trkpt lat="30.9185300" lon="35.1383500">
<ele>407.009979</ele>
<time>2023-02-01T10:53:28.799Z</time>
</trkpt>
<trkpt lat="30.9183900" lon="35.1386200">
<ele>405.580017</ele>
<time>2023-02-01T10:53:28.799Z</time>
</trkpt>
<trkpt lat="30.9183200" lon="35.1387800">
<ele>404.180023</ele>
<time>2023-02-01T10:53:28.799Z</time>
</trkpt>
<trkpt lat="30.9182800" lon="35.1388400">
<ele>403.369995</ele>
<time>2023-02-01T10:53:28.799Z</time>
</trkpt>
<trkpt lat="30.9182400" lon="35.1388700">
<ele>402.699982</ele>
<time>2023-02-01T10:53:28.799Z</time>
</trkpt>
<trkpt lat="30.9181900" lon="35.1388600">
<ele>401.990021</ele>
<time>2023-02-01T10:53:28.799Z</time>
</trkpt>
<trkpt lat="30.9181100" lon="35.1388000">
<ele>400.849976</ele>
<time>2023-02-01T10:53:28.799Z</time>
</trkpt>
<trkpt lat="30.9180200" lon="35.1386500">
<ele>398.980011</ele>
<time>2023-02-01T10:53:28.799Z</time>
</trkpt>
<trkpt lat="30.9179200" lon="35.1382300">
<ele>397.169983</ele>
<time>2023-02-01T10:53:28.799Z</time>
</trkpt>
<trkpt lat="30.9179000" lon="35.1381500">
<ele>396.909973</ele>
<time>2023-02-01T10:53:28.799Z</time>
</trkpt>
<trkpt lat="30.9178200" lon="35.1380300">
<ele>394.769989</ele>
<time>2023-02-01T10:53:28.799Z</time>
</trkpt>
<trkpt lat="30.9176400" lon="35.1378800">
<ele>389.440002</ele>
<time>2023-02-01T10:53:28.799Z</time>
</trkpt>
<trkpt lat="30.9173300" lon="35.1378300">
<ele>380.880005</ele>
<time>2023-02-01T10:53:28.799Z</time>
</trkpt>
<trkpt lat="30.9172800" lon="35.1378200">
<ele>379.909973</ele>
<time>2023-02-01T10:53:28.799Z</time>
</trkpt>
<trkpt lat="30.9172200" lon="35.1377700">
<ele>378.989990</ele>
<time>2023-02-01T10:53:28.799Z</time>
</trkpt>
<trkpt lat="30.9172000" lon="35.1377000">
<ele>378.850006</ele>
<time>2023-02-01T10:53:28.799Z</time>
</trkpt>
<trkpt lat="30.9172000" lon="35.1374600">
<ele>380.559998</ele>
<time>2023-02-01T10:53:28.799Z</time>
</trkpt>
<trkpt lat="30.9171900" lon="35.1374000">
<ele>380.850006</ele>
<time>2023-02-01T10:53:28.799Z</time>
</trkpt>
<trkpt lat="30.9171600" lon="35.1373400">
<ele>380.389984</ele>
<time>2023-02-01T10:53:28.799Z</time>
</trkpt>
<trkpt lat="30.9169900" lon="35.1371800">
<ele>376.860016</ele>
<time>2023-02-01T10:53:28.799Z</time>
</trkpt>
<trkpt lat="30.9167800" lon="35.1370300">
<ele>373.390015</ele>
<time>2023-02-01T10:53:28.799Z</time>
</trkpt>
<trkpt lat="30.9166700" lon="35.1369200">
<ele>371.219971</ele>
<time>2023-02-01T10:53:28.799Z</time>
</trkpt>
<trkpt lat="30.9166600" lon="35.1368400">
<ele>371.149994</ele>
<time>2023-02-01T10:53:28.799Z</time>
</trkpt>
<trkpt lat="30.9166800" lon="35.1366000">
<ele>373.429993</ele>
<time>2023-02-01T10:53:28.799Z</time>
</trkpt>
<trkpt lat="30.9166500" lon="35.1364300">
<ele>373.750000</ele>
<time>2023-02-01T10:53:28.799Z</time>
</trkpt>
<trkpt lat="30.9165600" lon="35.1362700">
<ele>370.149994</ele>
<time>2023-02-01T10:53:28.799Z</time>
</trkpt>
<trkpt lat="30.9164400" lon="35.1361500">
<ele>363.890015</ele>
<time>2023-02-01T10:53:28.799Z</time>
</trkpt>
<trkpt lat="30.9163600" lon="35.1361100">
<ele>360.399994</ele>
<time>2023-02-01T10:53:28.799Z</time>
</trkpt>
<trkpt lat="30.9162800" lon="35.1360800">
<ele>359.160004</ele>
<time>2023-02-01T10:53:28.799Z</time>
</trkpt>
<trkpt lat="30.9161900" lon="35.1360800">
<ele>357.179993</ele>
<time>2023-02-01T10:53:28.799Z</time>
</trkpt>
<trkpt lat="30.9158100" lon="35.1362000">
<ele>348.040009</ele>
<time>2023-02-01T10:53:28.799Z</time>
</trkpt>
<trkpt lat="30.9155900" lon="35.1362600">
<ele>341.389984</ele>
<time>2023-02-01T10:53:28.799Z</time>
</trkpt>
<trkpt lat="30.9152800" lon="35.1362500">
<ele>333.059998</ele>
<time>2023-02-01T10:53:28.799Z</time>
</trkpt>
<trkpt lat="30.9150300" lon="35.1362700">
<ele>328.140015</ele>
<time>2023-02-01T10:53:28.799Z</time>
</trkpt>
<trkpt lat="30.9149100" lon="35.1362500">
<ele>327.029999</ele>
<time>2023-02-01T10:53:28.799Z</time>
</trkpt>
<trkpt lat="30.9148200" lon="35.1361600">
<ele>327.580017</ele>
<time>2023-02-01T10:53:28.799Z</time>
</trkpt>
<trkpt lat="30.9148100" lon="35.1360100">
<ele>329.239990</ele>
<time>2023-02-01T10:53:28.799Z</time>
</trkpt>
<trkpt lat="30.9148600" lon="35.1357400">
<ele>331.820007</ele>
<time>2023-02-01T10:53:28.799Z</time>
</trkpt>
<trkpt lat="30.9149200" lon="35.1355600">
<ele>333.950012</ele>
<time>2023-02-01T10:53:28.799Z</time>
</trkpt>
<trkpt lat="30.9149700" lon="35.1354900">
<ele>335.239990</ele>
<time>2023-02-01T10:53:28.799Z</time>
</trkpt>
<trkpt lat="30.9151000" lon="35.1353800">
<ele>337.610016</ele>
<time>2023-02-01T10:53:28.799Z</time>
</trkpt>
<trkpt lat="30.9153000" lon="35.1353200">
<ele>340.099976</ele>
<time>2023-02-01T10:53:28.799Z</time>
</trkpt>
<trkpt lat="30.9153500" lon="35.1352700">
<ele>340.500000</ele>
<time>2023-02-01T10:53:28.799Z</time>
</trkpt>
<trkpt lat="30.9153900" lon="35.1352000">
<ele>340.750000</ele>
<time>2023-02-01T10:53:28.799Z</time>
</trkpt>
<trkpt lat="30.9155000" lon="35.1347500">
<ele>336.859985</ele>
<time>2023-02-01T10:53:28.799Z</time>
</trkpt>
<trkpt lat="30.9155300" lon="35.1346900">
<ele>335.839996</ele>
<time>2023-02-01T10:53:28.799Z</time>
</trkpt>
<trkpt lat="30.9156300" lon="35.1346100">
<ele>333.880005</ele>
<time>2023-02-01T10:53:28.799Z</time>
</trkpt>
<trkpt lat="30.9158300" lon="35.1346100">
<ele>334.170013</ele>
<time>2023-02-01T10:53:28.799Z</time>
</trkpt>
<trkpt lat="30.9158900" lon="35.1345900">
<ele>334.789978</ele>
<time>2023-02-01T10:53:28.799Z</time>
</trkpt>
<trkpt lat="30.9159300" lon="35.1345400">
<ele>334.380005</ele>
<time>2023-02-01T10:53:28.799Z</time>
</trkpt>
<trkpt lat="30.9159400" lon="35.1344800">
<ele>333.149994</ele>
<time>2023-02-01T10:53:28.799Z</time>
</trkpt>
<trkpt lat="30.9159300" lon="35.1344200">
<ele>331.889984</ele>
<time>2023-02-01T10:53:28.799Z</time>
</trkpt>
<trkpt lat="30.9159000" lon="35.1343700">
<ele>330.760010</ele>
<time>2023-02-01T10:53:28.799Z</time>
</trkpt>
<trkpt lat="30.9157300" lon="35.1341900">
<ele>326.199982</ele>
<time>2023-02-01T10:53:28.799Z</time>
</trkpt>
<trkpt lat="30.9155100" lon="35.1340100">
<ele>322.849976</ele>
<time>2023-02-01T10:53:28.799Z</time>
</trkpt>
<trkpt lat="30.9151900" lon="35.1338400">
<ele>321.709991</ele>
<time>2023-02-01T10:53:28.799Z</time>
</trkpt>
<trkpt lat="30.9148900" lon="35.1337300">
<ele>321.689972</ele>
<time>2023-02-01T10:53:28.799Z</time>
</trkpt>
<trkpt lat="30.9148200" lon="35.1337300">
<ele>321.399994</ele>
<time>2023-02-01T10:53:28.799Z</time>
</trkpt>
<trkpt lat="30.9147400" lon="35.1337400">
<ele>321.070007</ele>
<time>2023-02-01T10:53:28.799Z</time>
</trkpt>
<trkpt lat="30.9136600" lon="35.1340900">
<ele>317.669983</ele>
<time>2023-02-01T10:53:28.799Z</time>
</trkpt>
<trkpt lat="30.9135700" lon="35.1341100">
<ele>317.709991</ele>
<time>2023-02-01T10:53:28.799Z</time>
</trkpt>
<trkpt lat="30.9133900" lon="35.1340900">
<ele>318.980011</ele>
<time>2023-02-01T10:53:28.799Z</time>
</trkpt>
<trkpt lat="30.9129200" lon="35.1339800">
<ele>321.470001</ele>
<time>2023-02-01T10:53:28.799Z</time>
</trkpt>
<trkpt lat="30.9128300" lon="35.1339800">
<ele>321.800018</ele>
<time>2023-02-01T10:53:28.799Z</time>
</trkpt>
<trkpt lat="30.9125900" lon="35.1340300">
<ele>324.910004</ele>
<time>2023-02-01T10:53:28.799Z</time>
</trkpt>
<trkpt lat="30.9125200" lon="35.1340200">
<ele>325.589996</ele>
<time>2023-02-01T10:53:28.799Z</time>
</trkpt>
<trkpt lat="30.9124500" lon="35.1339800">
<ele>325.989990</ele>
<time>2023-02-01T10:53:28.799Z</time>
</trkpt>
<trkpt lat="30.9122700" lon="35.1337900">
<ele>326.900024</ele>
<time>2023-02-01T10:53:28.799Z</time>
</trkpt>
<trkpt lat="30.9119200" lon="35.1335100">
<ele>329.269989</ele>
<time>2023-02-01T10:53:28.799Z</time>
</trkpt>
<trkpt lat="30.9117400" lon="35.1333100">
<ele>326.290009</ele>
<time>2023-02-01T10:53:28.799Z</time>
</trkpt>
<trkpt lat="30.9116800" lon="35.1332800">
<ele>325.979980</ele>
<time>2023-02-01T10:53:28.799Z</time>
</trkpt>
<trkpt lat="30.9116000" lon="35.1332800">
<ele>326.910004</ele>
<time>2023-02-01T10:53:28.799Z</time>
</trkpt>
<trkpt lat="30.9113600" lon="35.1333100">
<ele>331.209991</ele>
<time>2023-02-01T10:53:28.799Z</time>
</trkpt>
<trkpt lat="30.9111800" lon="35.1333000">
<ele>335.819977</ele>
<time>2023-02-01T10:53:28.799Z</time>
</trkpt>
<trkpt lat="30.9109500" lon="35.1332200">
<ele>337.199982</ele>
<time>2023-02-01T10:53:28.799Z</time>
</trkpt>
<trkpt lat="30.9107600" lon="35.1331300">
<ele>336.820007</ele>
<time>2023-02-01T10:53:28.799Z</time>
</trkpt>
<trkpt lat="30.9105200" lon="35.1329500">
<ele>330.700012</ele>
<time>2023-02-01T10:53:28.799Z</time>
</trkpt>
<trkpt lat="30.9104100" lon="35.1328100">
<ele>325.880005</ele>
<time>2023-02-01T10:53:28.799Z</time>
</trkpt>
<trkpt lat="30.9103400" lon="35.1326700">
<ele>321.949982</ele>
<time>2023-02-01T10:53:28.799Z</time>
</trkpt>
<trkpt lat="30.9102600" lon="35.1324400">
<ele>316.760010</ele>
<time>2023-02-01T10:53:28.799Z</time>
</trkpt>
<trkpt lat="30.9102000" lon="35.1323600">
<ele>314.920013</ele>
<time>2023-02-01T10:53:28.799Z</time>
</trkpt>
<trkpt lat="30.9101500" lon="35.1323400">
<ele>314.270020</ele>
<time>2023-02-01T10:53:28.799Z</time>
</trkpt>
<trkpt lat="30.9100400" lon="35.1323600">
<ele>313.769989</ele>
<time>2023-02-01T10:53:28.799Z</time>
</trkpt>
<trkpt lat="30.9099300" lon="35.1324500">
<ele>313.410004</ele>
<time>2023-02-01T10:53:28.799Z</time>
</trkpt>
<trkpt lat="30.9096200" lon="35.1329000">
<ele>309.390015</ele>
<time>2023-02-01T10:53:28.799Z</time>
</trkpt>
<trkpt lat="30.9094600" lon="35.1333100">
<ele>304.529999</ele>
<time>2023-02-01T10:53:28.799Z</time>
</trkpt>
<trkpt lat="30.9094200" lon="35.1333600">
<ele>303.359985</ele>
<time>2023-02-01T10:53:28.799Z</time>
</trkpt>
<trkpt lat="30.9093600" lon="35.1333600">
<ele>301.779999</ele>
<time>2023-02-01T10:53:28.799Z</time>
</trkpt>
<trkpt lat="30.9093200" lon="35.1333300">
<ele>300.850006</ele>
<time>2023-02-01T10:53:28.799Z</time>
</trkpt>
<trkpt lat="30.9092600" lon="35.1330800">
<ele>298.440002</ele>
<time>2023-02-01T10:53:28.799Z</time>
</trkpt>
<trkpt lat="30.9091800" lon="35.1325800">
<ele>290.410004</ele>
<time>2023-02-01T10:53:28.799Z</time>
</trkpt>
<trkpt lat="30.9091800" lon="35.1321300">
<ele>289.859985</ele>
<time>2023-02-01T10:53:28.799Z</time>
</trkpt>
<trkpt lat="30.9092200" lon="35.1317700">
<ele>285.839996</ele>
<time>2023-02-01T10:53:28.799Z</time>
</trkpt>
<trkpt lat="30.9092200" lon="35.1317200">
<ele>284.609985</ele>
<time>2023-02-01T10:53:28.799Z</time>
</trkpt>
<trkpt lat="30.9091700" lon="35.1316500">
<ele>281.019989</ele>
<time>2023-02-01T10:53:28.799Z</time>
</trkpt>
<trkpt lat="30.9091200" lon="35.1316400">
<ele>279.850006</ele>
<time>2023-02-01T10:53:28.799Z</time>
</trkpt>
<trkpt lat="30.9090300" lon="35.1316700">
<ele>278.110016</ele>
<time>2023-02-01T10:53:28.799Z</time>
</trkpt>
<trkpt lat="30.9088900" lon="35.1319900">
<ele>278.690002</ele>
<time>2023-02-01T10:53:28.799Z</time>
</trkpt>
<trkpt lat="30.9087700" lon="35.1322200">
<ele>276.420013</ele>
<time>2023-02-01T10:53:28.799Z</time>
</trkpt>
<trkpt lat="30.9086600" lon="35.1324900">
<ele>271.910004</ele>
<time>2023-02-01T10:53:28.799Z</time>
</trkpt>
<trkpt lat="30.9086200" lon="35.1325600">
<ele>270.790009</ele>
<time>2023-02-01T10:53:28.799Z</time>
</trkpt>
<trkpt lat="30.9085600" lon="35.1325400">
<ele>268.399994</ele>
<time>2023-02-01T10:53:28.799Z</time>
</trkpt>
<trkpt lat="30.9085200" lon="35.1322400">
<ele>266.089996</ele>
<time>2023-02-01T10:53:28.799Z</time>
</trkpt>
<trkpt lat="30.9085400" lon="35.1317500">
<ele>266.429993</ele>
<time>2023-02-01T10:53:28.799Z</time>
</trkpt>
<trkpt lat="30.9085800" lon="35.1313600">
<ele>264.459991</ele>
<time>2023-02-01T10:53:28.799Z</time>
</trkpt>
<trkpt lat="30.9085400" lon="35.1312900">
<ele>262.500000</ele>
<time>2023-02-01T10:53:28.799Z</time>
</trkpt>
<trkpt lat="30.9084800" lon="35.1312500">
<ele>259.839996</ele>
<time>2023-02-01T10:53:28.799Z</time>
</trkpt>
<trkpt lat="30.9080600" lon="35.1320500">
<ele>254.479996</ele>
<time>2023-02-01T10:53:28.799Z</time>
</trkpt>
<trkpt lat="30.9079900" lon="35.1321000">
<ele>253.959991</ele>
<time>2023-02-01T10:53:28.799Z</time>
</trkpt>
<trkpt lat="30.9079100" lon="35.1321300">
<ele>253.269989</ele>
<time>2023-02-01T10:53:28.799Z</time>
</trkpt>
<trkpt lat="30.9078400" lon="35.1321300">
<ele>252.600006</ele>
<time>2023-02-01T10:53:28.799Z</time>
</trkpt>
<trkpt lat="30.9077600" lon="35.1321300">
<ele>251.660004</ele>
<time>2023-02-01T10:53:28.799Z</time>
</trkpt>
<trkpt lat="30.9076500" lon="35.1320200">
<ele>249.370010</ele>
<time>2023-02-01T10:53:28.799Z</time>
</trkpt>
<trkpt lat="30.9075800" lon="35.1320000">
<ele>247.870010</ele>
<time>2023-02-01T10:53:28.799Z</time>
</trkpt>
<trkpt lat="30.9075300" lon="35.1320200">
<ele>246.890015</ele>
<time>2023-02-01T10:53:28.799Z</time>
</trkpt>
<trkpt lat="30.9074900" lon="35.1320500">
<ele>245.940002</ele>
<time>2023-02-01T10:53:28.799Z</time>
</trkpt>
<trkpt lat="30.9074500" lon="35.1321100">
<ele>244.289993</ele>
<time>2023-02-01T10:53:28.799Z</time>
</trkpt>
<trkpt lat="30.9074100" lon="35.1323400">
<ele>240.910004</ele>
<time>2023-02-01T10:53:28.799Z</time>
</trkpt>
<trkpt lat="30.9073600" lon="35.1324300">
<ele>237.330002</ele>
<time>2023-02-01T10:53:28.799Z</time>
</trkpt>
<trkpt lat="30.9072800" lon="35.1324800">
<ele>232.930008</ele>
<time>2023-02-01T10:53:28.799Z</time>
</trkpt>
<trkpt lat="30.9072200" lon="35.1324200">
<ele>230.759995</ele>
<time>2023-02-01T10:53:28.799Z</time>
</trkpt>
<trkpt lat="30.9072100" lon="35.1321700">
<ele>232.800003</ele>
<time>2023-02-01T10:53:28.799Z</time>
</trkpt>
<trkpt lat="30.9072400" lon="35.1319800">
<ele>235.470001</ele>
<time>2023-02-01T10:53:28.799Z</time>
</trkpt>
<trkpt lat="30.9073600" lon="35.1316100">
<ele>237.660004</ele>
<time>2023-02-01T10:53:28.799Z</time>
</trkpt>
<trkpt lat="30.9073600" lon="35.1315500">
<ele>236.800003</ele>
<time>2023-02-01T10:53:28.799Z</time>
</trkpt>
<trkpt lat="30.9073400" lon="35.1314700">
<ele>235.240005</ele>
<time>2023-02-01T10:53:28.799Z</time>
</trkpt>
<trkpt lat="30.9073000" lon="35.1314100">
<ele>233.669998</ele>
<time>2023-02-01T10:53:28.799Z</time>
</trkpt>
<trkpt lat="30.9072600" lon="35.1313900">
<ele>232.690002</ele>
<time>2023-02-01T10:53:28.799Z</time>
</trkpt>
<trkpt lat="30.9072000" lon="35.1313800">
<ele>231.020004</ele>
<time>2023-02-01T10:53:28.799Z</time>
</trkpt>
<trkpt lat="30.9071400" lon="35.1314100">
<ele>229.250000</ele>
<time>2023-02-01T10:53:28.799Z</time>
</trkpt>
<trkpt lat="30.9070200" lon="35.1315200">
<ele>225.789993</ele>
<time>2023-02-01T10:53:28.799Z</time>
</trkpt>
<trkpt lat="30.9069900" lon="35.1315900">
<ele>225.209991</ele>
<time>2023-02-01T10:53:28.799Z</time>
</trkpt>
<trkpt lat="30.9069000" lon="35.1317400">
<ele>221.370010</ele>
<time>2023-02-01T10:53:28.799Z</time>
</trkpt>
<trkpt lat="30.9068900" lon="35.1318900">
<ele>219.550003</ele>
<time>2023-02-01T10:53:28.799Z</time>
</trkpt>
<trkpt lat="30.9069000" lon="35.1320800">
<ele>218.829987</ele>
<time>2023-02-01T10:53:28.799Z</time>
</trkpt>
<trkpt lat="30.9068800" lon="35.1321300">
<ele>217.860001</ele>
<time>2023-02-01T10:53:28.799Z</time>
</trkpt>
<trkpt lat="30.9068100" lon="35.1321800">
<ele>214.899994</ele>
<time>2023-02-01T10:53:28.799Z</time>
</trkpt>
<trkpt lat="30.9067200" lon="35.1321300">
<ele>211.709991</ele>
<time>2023-02-01T10:53:28.799Z</time>
</trkpt>
<trkpt lat="30.9066500" lon="35.1318300">
<ele>210.690002</ele>
<time>2023-02-01T10:53:28.799Z</time>
</trkpt>
<trkpt lat="30.9066300" lon="35.1314900">
<ele>208.510010</ele>
<time>2023-02-01T10:53:28.799Z</time>
</trkpt>
<trkpt lat="30.9066400" lon="35.1314100">
<ele>208.080002</ele>
<time>2023-02-01T10:53:28.799Z</time>
</trkpt>
<trkpt lat="30.9066800" lon="35.1313400">
<ele>209.260010</ele>
<time>2023-02-01T10:53:28.799Z</time>
</trkpt>
<trkpt lat="30.9067000" lon="35.1312100">
<ele>209.190002</ele>
<time>2023-02-01T10:53:28.799Z</time>
</trkpt>
<trkpt lat="30.9066800" lon="35.1311300">
<ele>207.719986</ele>
<time>2023-02-01T10:53:28.799Z</time>
</trkpt>
<trkpt lat="30.9066300" lon="35.1311300">
<ele>205.680008</ele>
<time>2023-02-01T10:53:28.799Z</time>
</trkpt>
<trkpt lat="30.9065600" lon="35.1311900">
<ele>203.229996</ele>
<time>2023-02-01T10:53:28.799Z</time>
</trkpt>
<trkpt lat="30.9065100" lon="35.1313200">
<ele>201.879990</ele>
<time>2023-02-01T10:53:28.799Z</time>
</trkpt>
<trkpt lat="30.9064400" lon="35.1315400">
<ele>200.839996</ele>
<time>2023-02-01T10:53:28.799Z</time>
</trkpt>
<trkpt lat="30.9064000" lon="35.1318100">
<ele>199.960007</ele>
<time>2023-02-01T10:53:28.799Z</time>
</trkpt>
<trkpt lat="30.9063400" lon="35.1318900">
<ele>196.699997</ele>
<time>2023-02-01T10:53:28.799Z</time>
</trkpt>
<trkpt lat="30.9062700" lon="35.1318600">
<ele>193.180008</ele>
<time>2023-02-01T10:53:28.799Z</time>
</trkpt>
<trkpt lat="30.9062400" lon="35.1317700">
<ele>191.790009</ele>
<time>2023-02-01T10:53:28.799Z</time>
</trkpt>
<trkpt lat="30.9062000" lon="35.1313600">
<ele>188.669998</ele>
<time>2023-02-01T10:53:28.799Z</time>
</trkpt>
<trkpt lat="30.9061500" lon="35.1311900">
<ele>185.350006</ele>
<time>2023-02-01T10:53:28.799Z</time>
</trkpt>
<trkpt lat="30.9061300" lon="35.1310300">
<ele>182.990005</ele>
<time>2023-02-01T10:53:28.799Z</time>
</trkpt>
<trkpt lat="30.9061000" lon="35.1309700">
<ele>181.080002</ele>
<time>2023-02-01T10:53:28.799Z</time>
</trkpt>
<trkpt lat="30.9060600" lon="35.1309400">
<ele>179.350006</ele>
<time>2023-02-01T10:53:28.799Z</time>
</trkpt>
<trkpt lat="30.9060200" lon="35.1309600">
<ele>178.119995</ele>
<time>2023-02-01T10:53:28.799Z</time>
</trkpt>
<trkpt lat="30.9059900" lon="35.1310300">
<ele>177.580002</ele>
<time>2023-02-01T10:53:28.799Z</time>
</trkpt>
<trkpt lat="30.9059100" lon="35.1312900">
<ele>174.459991</ele>
<time>2023-02-01T10:53:28.799Z</time>
</trkpt>
<trkpt lat="30.9058400" lon="35.1316600">
<ele>169.409988</ele>
<time>2023-02-01T10:53:28.799Z</time>
</trkpt>
<trkpt lat="30.9057900" lon="35.1317200">
<ele>168.000000</ele>
<time>2023-02-01T10:53:28.799Z</time>
</trkpt>
<trkpt lat="30.9057200" lon="35.1317100">
<ele>166.000000</ele>
<time>2023-02-01T10:53:28.799Z</time>
</trkpt>
<trkpt lat="30.9056800" lon="35.1316700">
<ele>166.130005</ele>
<time>2023-02-01T10:53:28.799Z</time>
</trkpt>
<trkpt lat="30.9056700" lon="35.1315500">
<ele>165.990005</ele>
<time>2023-02-01T10:53:28.799Z</time>
</trkpt>
<trkpt lat="30.9055900" lon="35.1312900">
<ele>164.269989</ele>
<time>2023-02-01T10:53:28.799Z</time>
</trkpt>
<trkpt lat="30.9054400" lon="35.1310300">
<ele>162.279999</ele>
<time>2023-02-01T10:53:28.799Z</time>
</trkpt>
<trkpt lat="30.9052700" lon="35.1305500">
<ele>157.659988</ele>
<time>2023-02-01T10:53:28.799Z</time>
</trkpt>
<trkpt lat="30.9052200" lon="35.1303300">
<ele>155.169998</ele>
<time>2023-02-01T10:53:28.799Z</time>
</trkpt>
<trkpt lat="30.9051600" lon="35.1302800">
<ele>152.070007</ele>
<time>2023-02-01T10:53:28.799Z</time>
</trkpt>
<trkpt lat="30.9051000" lon="35.1302900">
<ele>149.099991</ele>
<time>2023-02-01T10:53:28.799Z</time>
</trkpt>
<trkpt lat="30.9050400" lon="35.1303400">
<ele>146.400009</ele>
<time>2023-02-01T10:53:28.799Z</time>
</trkpt>
<trkpt lat="30.9050100" lon="35.1305000">
<ele>146.050003</ele>
<time>2023-02-01T10:53:28.799Z</time>
</trkpt>
<trkpt lat="30.9050100" lon="35.1306500">
<ele>145.419998</ele>
<time>2023-02-01T10:53:28.799Z</time>
</trkpt>
<trkpt lat="30.9049500" lon="35.1308800">
<ele>141.160004</ele>
<time>2023-02-01T10:53:28.799Z</time>
</trkpt>
<trkpt lat="30.9049200" lon="35.1310900">
<ele>139.179993</ele>
<time>2023-02-01T10:53:28.799Z</time>
</trkpt>
<trkpt lat="30.9049200" lon="35.1313600">
<ele>136.929993</ele>
<time>2023-02-01T10:53:28.799Z</time>
</trkpt>
<trkpt lat="30.9049100" lon="35.1314200">
<ele>135.320007</ele>
<time>2023-02-01T10:53:28.799Z</time>
</trkpt>
<trkpt lat="30.9048800" lon="35.1314700">
<ele>132.440002</ele>
<time>2023-02-01T10:53:28.799Z</time>
</trkpt>
<trkpt lat="30.9048500" lon="35.1314300">
<ele>131.879990</ele>
<time>2023-02-01T10:53:28.799Z</time>
</trkpt>
<trkpt lat="30.9047800" lon="35.1314000">
<ele>128.860001</ele>
<time>2023-02-01T10:53:28.799Z</time>
</trkpt>
<trkpt lat="30.9047500" lon="35.1311800">
<ele>128.400009</ele>
<time>2023-02-01T10:53:28.799Z</time>
</trkpt>
<trkpt lat="30.9046800" lon="35.1310800">
<ele>126.489998</ele>
<time>2023-02-01T10:53:28.799Z</time>
</trkpt>
<trkpt lat="30.9041700" lon="35.1310200">
<ele>113.400002</ele>
<time>2023-02-01T10:53:28.799Z</time>
</trkpt>
<trkpt lat="30.9039500" lon="35.1310400">
<ele>108.310005</ele>
<time>2023-02-01T10:53:28.799Z</time>
</trkpt>
<trkpt lat="30.9038700" lon="35.1310900">
<ele>105.400002</ele>
<time>2023-02-01T10:53:28.799Z</time>
</trkpt>
<trkpt lat="30.9037100" lon="35.1312400">
<ele>101.540001</ele>
<time>2023-02-01T10:53:28.799Z</time>
</trkpt>
<trkpt lat="30.9035000" lon="35.1313500">
<ele>97.419998</ele>
<time>2023-02-01T10:53:28.799Z</time>
</trkpt>
<trkpt lat="30.9033800" lon="35.1313800">
<ele>95.660004</ele>
<time>2023-02-01T10:53:28.799Z</time>
</trkpt>
<trkpt lat="30.9033000" lon="35.1313500">
<ele>95.510002</ele>
<time>2023-02-01T10:53:28.799Z</time>
</trkpt>
<trkpt lat="30.9031700" lon="35.1312300">
<ele>95.929993</ele>
<time>2023-02-01T10:53:28.799Z</time>
</trkpt>
<trkpt lat="30.9030600" lon="35.1310400">
<ele>95.599998</ele>
<time>2023-02-01T10:53:28.799Z</time>
</trkpt>
<trkpt lat="30.9030600" lon="35.1309100">
<ele>96.560005</ele>
<time>2023-02-01T10:53:28.799Z</time>
</trkpt>
<trkpt lat="30.9030100" lon="35.1307100">
<ele>97.170006</ele>
<time>2023-02-01T10:53:28.799Z</time>
</trkpt>
<trkpt lat="30.9029200" lon="35.1305200">
<ele>95.599998</ele>
<time>2023-02-01T10:53:28.799Z</time>
</trkpt>
<trkpt lat="30.9028700" lon="35.1303100">
<ele>95.340004</ele>
<time>2023-02-01T10:53:28.799Z</time>
</trkpt>
<trkpt lat="30.9028000" lon="35.1301100">
<ele>92.109993</ele>
<time>2023-02-01T10:53:28.799Z</time>
</trkpt>
<trkpt lat="30.9026300" lon="35.1295400">
<ele>87.450005</ele>
<time>2023-02-01T10:53:28.799Z</time>
</trkpt>
<trkpt lat="30.9026000" lon="35.1294800">
<ele>85.949997</ele>
<time>2023-02-01T10:53:28.799Z</time>
</trkpt>
<trkpt lat="30.9025000" lon="35.1294400">
<ele>80.000000</ele>
<time>2023-02-01T10:53:28.799Z</time>
</trkpt>
<trkpt lat="30.9024300" lon="35.1294400">
<ele>77.230003</ele>
<time>2023-02-01T10:53:28.799Z</time>
</trkpt>
<trkpt lat="30.9023100" lon="35.1294900">
<ele>72.650002</ele>
<time>2023-02-01T10:53:28.799Z</time>
</trkpt>
<trkpt lat="30.9022000" lon="35.1295400">
<ele>69.419998</ele>
<time>2023-02-01T10:53:28.799Z</time>
</trkpt>
<trkpt lat="30.9017400" lon="35.1299200">
<ele>69.349998</ele>
<time>2023-02-01T10:53:28.799Z</time>
</trkpt>
<trkpt lat="30.9015600" lon="35.1300800">
<ele>67.080002</ele>
<time>2023-02-01T10:53:28.799Z</time>
</trkpt>
<trkpt lat="30.9014600" lon="35.1302100">
<ele>65.279999</ele>
<time>2023-02-01T10:53:28.799Z</time>
</trkpt>
<trkpt lat="30.9013000" lon="35.1303600">
<ele>60.870003</ele>
<time>2023-02-01T10:53:28.799Z</time>
</trkpt>
<trkpt lat="30.9007800" lon="35.1307700">
<ele>56.689999</ele>
<time>2023-02-01T10:53:28.799Z</time>
</trkpt>
<trkpt lat="30.9001200" lon="35.1313500">
<ele>57.270000</ele>
<time>2023-02-01T10:53:28.799Z</time>
</trkpt>
<trkpt lat="30.8998800" lon="35.1315300">
<ele>52.379997</ele>
<time>2023-02-01T10:53:28.799Z</time>
</trkpt>
<trkpt lat="30.8996000" lon="35.1315900">
<ele>47.099998</ele>
<time>2023-02-01T10:53:28.799Z</time>
</trkpt>
<trkpt lat="30.8994100" lon="35.1316200">
<ele>45.380001</ele>
<time>2023-02-01T10:53:28.799Z</time>
</trkpt>
<trkpt lat="30.8984400" lon="35.1317300">
<ele>41.599998</ele>
<time>2023-02-01T10:53:28.799Z</time>
</trkpt>
<trkpt lat="30.8977300" lon="35.1318700">
<ele>39.510002</ele>
<time>2023-02-01T10:53:28.799Z</time>
</trkpt>
<trkpt lat="30.8961600" lon="35.1325900">
<ele>33.820000</ele>
<time>2023-02-01T10:53:28.799Z</time>
</trkpt>
<trkpt lat="30.8949700" lon="35.1329800">
<ele>30.670000</ele>
<time>2023-02-01T10:53:28.799Z</time>
</trkpt>
<trkpt lat="30.8943300" lon="35.1331400">
<ele>30.240000</ele>
<time>2023-02-01T10:53:28.799Z</time>
</trkpt>
<trkpt lat="30.8940400" lon="35.1332300">
<ele>26.379999</ele>
<time>2023-02-01T10:53:28.799Z</time>
</trkpt>
<trkpt lat="30.8926200" lon="35.1338200">
<ele>25.570000</ele>
<time>2023-02-01T10:53:28.799Z</time>
</trkpt>
<trkpt lat="30.8920900" lon="35.1340700">
<ele>24.309999</ele>
<time>2023-02-01T10:53:28.799Z</time>
</trkpt>
<trkpt lat="30.8919500" lon="35.1341200">
<ele>24.820000</ele>
<time>2023-02-01T10:53:28.799Z</time>
</trkpt>
<trkpt lat="30.8916300" lon="35.1341900">
<ele>24.799999</ele>
<time>2023-02-01T10:53:28.799Z</time>
</trkpt>
<trkpt lat="30.8915500" lon="35.1342500">
<ele>24.410000</ele>
<time>2023-02-01T10:53:28.799Z</time>
</trkpt>
<trkpt lat="30.8914400" lon="35.1344500">
<ele>23.980000</ele>
<time>2023-02-01T10:53:28.799Z</time>
</trkpt>
<trkpt lat="30.8911600" lon="35.1351500">
<ele>20.450001</ele>
<time>2023-02-01T10:53:28.799Z</time>
</trkpt>
<trkpt lat="30.8908800" lon="35.1357600">
<ele>16.860001</ele>
<time>2023-02-01T10:53:28.799Z</time>
</trkpt>
<trkpt lat="30.8905200" lon="35.1366500">
<ele>15.180000</ele>
<time>2023-02-01T10:53:28.799Z</time>
</trkpt>
<trkpt lat="30.8901600" lon="35.1374300">
<ele>17.850000</ele>
<time>2023-02-01T10:53:28.799Z</time>
</trkpt>
<trkpt lat="30.8901300" lon="35.1374900">
<ele>18.059999</ele>
<time>2023-02-01T10:53:28.799Z</time>
</trkpt>
<trkpt lat="30.8900800" lon="35.1376300">
<ele>18.230000</ele>
<time>2023-02-01T10:53:28.799Z</time>
</trkpt>
<trkpt lat="30.8900600" lon="35.1377800">
<ele>17.980000</ele>
<time>2023-02-01T10:53:28.799Z</time>
</trkpt>
<trkpt lat="30.8900700" lon="35.1381800">
<ele>15.220000</ele>
<time>2023-02-01T10:53:28.799Z</time>
</trkpt>
<trkpt lat="30.8900400" lon="35.1384100">
<ele>13.360000</ele>
<time>2023-02-01T10:53:28.799Z</time>
</trkpt>
<trkpt lat="30.8899600" lon="35.1386000">
<ele>11.100000</ele>
<time>2023-02-01T10:53:28.799Z</time>
</trkpt>
<trkpt lat="30.8898600" lon="35.1387500">
<ele>10.250000</ele>
<time>2023-02-01T10:53:28.799Z</time>
</trkpt>
<trkpt lat="30.8897600" lon="35.1388300">
<ele>9.530001</ele>
<time>2023-02-01T10:53:28.799Z</time>
</trkpt>
<trkpt lat="30.8897100" lon="35.1388300">
<ele>9.410000</ele>
<time>2023-02-01T10:53:28.799Z</time>
</trkpt>
<trkpt lat="30.8896700" lon="35.1388000">
<ele>9.520000</ele>
<time>2023-02-01T10:53:28.799Z</time>
</trkpt>
<trkpt lat="30.8896400" lon="35.1387500">
<ele>9.700000</ele>
<time>2023-02-01T10:53:28.799Z</time>
</trkpt>
<trkpt lat="30.8896000" lon="35.1386100">
<ele>10.120000</ele>
<time>2023-02-01T10:53:28.799Z</time>
</trkpt>
<trkpt lat="30.8895600" lon="35.1385500">
<ele>10.090000</ele>
<time>2023-02-01T10:53:28.799Z</time>
</trkpt>
<trkpt lat="30.8895000" lon="35.1385100">
<ele>9.980000</ele>
<time>2023-02-01T10:53:28.799Z</time>
</trkpt>
<trkpt lat="30.8894100" lon="35.1384900">
<ele>9.759999</ele>
<time>2023-02-01T10:53:28.799Z</time>
</trkpt>
<trkpt lat="30.8892300" lon="35.1385200">
<ele>9.150001</ele>
<time>2023-02-01T10:53:28.799Z</time>
</trkpt>
<trkpt lat="30.8879600" lon="35.1388700">
<ele>6.660000</ele>
<time>2023-02-01T10:53:28.799Z</time>
</trkpt>
<trkpt lat="30.8878200" lon="35.1392300">
<ele>6.120000</ele>
<time>2023-02-01T10:53:28.799Z</time>
</trkpt>
<trkpt lat="30.8876000" lon="35.1396900">
<ele>6.320000</ele>
<time>2023-02-01T10:53:28.799Z</time>
</trkpt>
<trkpt lat="30.8870400" lon="35.1405200">
<ele>7.220000</ele>
<time>2023-02-01T10:53:28.799Z</time>
</trkpt>
<trkpt lat="30.8861600" lon="35.1412400">
<ele>7.640000</ele>
<time>2023-02-01T10:53:28.799Z</time>
</trkpt>
<trkpt lat="30.8842800" lon="35.1426400">
<ele>9.300000</ele>
<time>2023-02-01T10:53:28.799Z</time>
</trkpt>
<trkpt lat="30.8843000" lon="35.1428200">
<ele>9.600000</ele>
<time>2023-02-01T10:53:28.799Z</time>
</trkpt>
<trkpt lat="30.8842700" lon="35.1430200">
<ele>10.179999</ele>
<time>2023-02-01T10:53:28.799Z</time>
</trkpt>
<trkpt lat="30.8842100" lon="35.1431900">
<ele>10.280001</ele>
<time>2023-02-01T10:53:28.799Z</time>
</trkpt>
<trkpt lat="30.8841600" lon="35.1432900">
<ele>10.170000</ele>
<time>2023-02-01T10:53:28.799Z</time>
</trkpt>
<trkpt lat="30.8840900" lon="35.1433700">
<ele>10.139999</ele>
<time>2023-02-01T10:53:28.799Z</time>
</trkpt>
<trkpt lat="30.8838500" lon="35.1435500">
<ele>10.300000</ele>
<time>2023-02-01T10:53:28.799Z</time>
</trkpt>
<trkpt lat="30.8838000" lon="35.1436200">
<ele>10.280001</ele>
<time>2023-02-01T10:53:28.799Z</time>
</trkpt>
<trkpt lat="30.8837600" lon="35.1436900">
<ele>10.050000</ele>
<time>2023-02-01T10:53:28.799Z</time>
</trkpt>
<trkpt lat="30.8837500" lon="35.1437900">
<ele>9.530001</ele>
<time>2023-02-01T10:53:28.799Z</time>
</trkpt>
<trkpt lat="30.8837400" lon="35.1439700">
<ele>8.690000</ele>
<time>2023-02-01T10:53:28.799Z</time>
</trkpt>
<trkpt lat="30.8837200" lon="35.1440800">
<ele>8.160000</ele>
<time>2023-02-01T10:53:28.799Z</time>
</trkpt>
<trkpt lat="30.8833500" lon="35.1452900">
<ele>7.060000</ele>
<time>2023-02-01T10:53:28.799Z</time>
</trkpt>
<trkpt lat="30.8831400" lon="35.1461000">
<ele>7.000000</ele>
<time>2023-02-01T10:53:28.799Z</time>
</trkpt>
<trkpt lat="30.8830000" lon="35.1463700">
<ele>7.000000</ele>
<time>2023-02-01T10:53:28.799Z</time>
</trkpt>
<trkpt lat="30.8828600" lon="35.1465800">
<ele>7.890000</ele>
<time>2023-02-01T10:53:28.799Z</time>
</trkpt>
<trkpt lat="30.8827900" lon="35.1467100">
<ele>8.190001</ele>
<time>2023-02-01T10:53:28.799Z</time>
</trkpt>
<trkpt lat="30.8827000" lon="35.1470200">
<ele>8.520000</ele>
<time>2023-02-01T10:53:28.799Z</time>
</trkpt>
<trkpt lat="30.8826800" lon="35.1471600">
<ele>8.150001</ele>
<time>2023-02-01T10:53:28.799Z</time>
</trkpt>
<trkpt lat="30.8826900" lon="35.1473500">
<ele>8.770000</ele>
<time>2023-02-01T10:53:28.799Z</time>
</trkpt>
<trkpt lat="30.8826700" lon="35.1475600">
<ele>9.430000</ele>
<time>2023-02-01T10:53:28.799Z</time>
</trkpt>
<trkpt lat="30.8826800" lon="35.1476500">
<ele>9.140000</ele>
<time>2023-02-01T10:53:28.799Z</time>
</trkpt>
<trkpt lat="30.8827300" lon="35.1477200">
<ele>8.650000</ele>
<time>2023-02-01T10:53:28.799Z</time>
</trkpt>
<trkpt lat="30.8828700" lon="35.1478600">
<ele>8.000000</ele>
<time>2023-02-01T10:53:28.799Z</time>
</trkpt>
<trkpt lat="30.8829300" lon="35.1479700">
<ele>8.000000</ele>
<time>2023-02-01T10:53:28.799Z</time>
</trkpt>
<trkpt lat="30.8829500" lon="35.1480600">
<ele>8.010000</ele>
<time>2023-02-01T10:53:28.799Z</time>
</trkpt>
<trkpt lat="30.8829400" lon="35.1482500">
<ele>8.290000</ele>
<time>2023-02-01T10:53:28.799Z</time>
</trkpt>
<trkpt lat="30.8829900" lon="35.1485200">
<ele>8.080000</ele>
<time>2023-02-01T10:53:28.799Z</time>
</trkpt>
<trkpt lat="30.8830900" lon="35.1488800">
<ele>8.000000</ele>
<time>2023-02-01T10:53:28.799Z</time>
</trkpt>
<trkpt lat="30.8831300" lon="35.1493200">
<ele>7.910000</ele>
<time>2023-02-01T10:53:28.799Z</time>
</trkpt>
<trkpt lat="30.8833700" lon="35.1502500">
<ele>7.090000</ele>
<time>2023-02-01T10:53:28.799Z</time>
</trkpt>
<trkpt lat="30.8835600" lon="35.1507200">
<ele>7.220000</ele>
<time>2023-02-01T10:53:28.799Z</time>
</trkpt>
<trkpt lat="30.8837000" lon="35.1511800">
<ele>8.910000</ele>
<time>2023-02-01T10:53:28.799Z</time>
</trkpt>
<trkpt lat="30.8839000" lon="35.1515000">
<ele>7.870000</ele>
<time>2023-02-01T10:53:28.799Z</time>
</trkpt>
<trkpt lat="30.8839400" lon="35.1515400">
<ele>8.340000</ele>
<time>2023-02-01T10:53:28.799Z</time>
</trkpt>
<trkpt lat="30.8839900" lon="35.1515600">
<ele>8.650000</ele>
<time>2023-02-01T10:53:28.799Z</time>
</trkpt>
<trkpt lat="30.8841700" lon="35.1515900">
<ele>9.260000</ele>
<time>2023-02-01T10:53:28.799Z</time>
</trkpt>
<trkpt lat="30.8842200" lon="35.1516100">
<ele>8.970000</ele>
<time>2023-02-01T10:53:28.799Z</time>
</trkpt>
<trkpt lat="30.8843300" lon="35.1516900">
<ele>8.330000</ele>
<time>2023-02-01T10:53:28.799Z</time>
</trkpt>
<trkpt lat="30.8843900" lon="35.1517800">
<ele>7.790000</ele>
<time>2023-02-01T10:53:28.799Z</time>
</trkpt>
<trkpt lat="30.8844900" lon="35.1520600">
<ele>7.000000</ele>
<time>2023-02-01T10:53:28.799Z</time>
</trkpt>
<trkpt lat="30.8846100" lon="35.1521700">
<ele>7.000000</ele>
<time>2023-02-01T10:53:28.799Z</time>
</trkpt>
<trkpt lat="30.8846700" lon="35.1523100">
<ele>7.260000</ele>
<time>2023-02-01T10:53:28.799Z</time>
</trkpt>
<trkpt lat="30.8848000" lon="35.1525200">
<ele>7.460000</ele>
<time>2023-02-01T10:53:28.799Z</time>
</trkpt>
<trkpt lat="30.8848900" lon="35.1526100">
<ele>7.030000</ele>
<time>2023-02-01T10:53:28.799Z</time>
</trkpt>
<trkpt lat="30.8849400" lon="35.1526900">
<ele>6.970000</ele>
<time>2023-02-01T10:53:28.799Z</time>
</trkpt>
<trkpt lat="30.8850000" lon="35.1528700">
<ele>7.330000</ele>
<time>2023-02-01T10:53:28.799Z</time>
</trkpt>
<trkpt lat="30.8851000" lon="35.1530600">
<ele>7.660000</ele>
<time>2023-02-01T10:53:28.799Z</time>
</trkpt>
<trkpt lat="30.8852000" lon="35.1532200">
<ele>7.870000</ele>
<time>2023-02-01T10:53:28.799Z</time>
</trkpt>
<trkpt lat="30.8853200" lon="35.1533500">
<ele>7.860000</ele>
<time>2023-02-01T10:53:28.799Z</time>
</trkpt>
<trkpt lat="30.8854500" lon="35.1536100">
<ele>8.000000</ele>
<time>2023-02-01T10:53:28.799Z</time>
</trkpt>
<trkpt lat="30.8857200" lon="35.1539200">
<ele>10.930000</ele>
<time>2023-02-01T10:53:28.799Z</time>
</trkpt>
<trkpt lat="30.8860100" lon="35.1541400">
<ele>10.160000</ele>
<time>2023-02-01T10:53:28.799Z</time>
</trkpt>
<trkpt lat="30.8861600" lon="35.1542300">
<ele>10.080000</ele>
<time>2023-02-01T10:53:28.799Z</time>
</trkpt>
<trkpt lat="30.8862200" lon="35.1542500">
<ele>10.240001</ele>
<time>2023-02-01T10:53:28.799Z</time>
</trkpt>
<trkpt lat="30.8864600" lon="35.1543200">
<ele>10.540000</ele>
<time>2023-02-01T10:53:28.799Z</time>
</trkpt>
<trkpt lat="30.8866300" lon="35.1543300">
<ele>9.130000</ele>
<time>2023-02-01T10:53:28.799Z</time>
</trkpt>
<trkpt lat="30.8868200" lon="35.1543200">
<ele>9.810000</ele>
<time>2023-02-01T10:53:28.799Z</time>
</trkpt>
<trkpt lat="30.8874000" lon="35.1542200">
<ele>10.809999</ele>
<time>2023-02-01T10:53:28.799Z</time>
</trkpt>
<trkpt lat="30.8876100" lon="35.1542300">
<ele>11.470000</ele>
<time>2023-02-01T10:53:28.799Z</time>
</trkpt>
<trkpt lat="30.8877900" lon="35.1542700">
<ele>12.160000</ele>
<time>2023-02-01T10:53:28.799Z</time>
</trkpt>
<trkpt lat="30.8881200" lon="35.1544500">
<ele>9.799999</ele>
<time>2023-02-01T10:53:28.799Z</time>
</trkpt>
<trkpt lat="30.8882800" lon="35.1544800">
<ele>9.340000</ele>
<time>2023-02-01T10:53:28.799Z</time>
</trkpt>
<trkpt lat="30.8886300" lon="35.1546100">
<ele>9.110000</ele>
<time>2023-02-01T10:53:28.799Z</time>
</trkpt>
<trkpt lat="30.8886900" lon="35.1546100">
<ele>9.450000</ele>
<time>2023-02-01T10:53:28.799Z</time>
</trkpt>
<trkpt lat="30.8889100" lon="35.1545600">
<ele>10.430000</ele>
<time>2023-02-01T10:53:28.799Z</time>
</trkpt>
<trkpt lat="30.8894200" lon="35.1545500">
<ele>12.440000</ele>
<time>2023-02-01T10:53:28.799Z</time>
</trkpt>
<trkpt lat="30.8896400" lon="35.1545300">
<ele>12.690000</ele>
<time>2023-02-01T10:53:28.799Z</time>
</trkpt>
<trkpt lat="30.8899800" lon="35.1545600">
<ele>13.510000</ele>
<time>2023-02-01T10:53:28.799Z</time>
</trkpt>
<trkpt lat="30.8901000" lon="35.1546000">
<ele>13.280000</ele>
<time>2023-02-01T10:53:28.799Z</time>
</trkpt>
<trkpt lat="30.8904100" lon="35.1547800">
<ele>12.349999</ele>
<time>2023-02-01T10:53:28.799Z</time>
</trkpt>
<trkpt lat="30.8907600" lon="35.1549500">
<ele>12.389999</ele>
<time>2023-02-01T10:53:28.799Z</time>
</trkpt>
<trkpt lat="30.8908400" lon="35.1550000">
<ele>12.000000</ele>
<time>2023-02-01T10:53:28.799Z</time>
</trkpt>
<trkpt lat="30.8909100" lon="35.1550100">
<ele>12.030000</ele>
<time>2023-02-01T10:53:28.799Z</time>
</trkpt>
<trkpt lat="30.8912500" lon="35.1549800">
<ele>11.500000</ele>
<time>2023-02-01T10:53:28.799Z</time>
</trkpt>
<trkpt lat="30.8914600" lon="35.1549100">
<ele>10.999999</ele>
<time>2023-02-01T10:53:28.799Z</time>
</trkpt>
<trkpt lat="30.8915600" lon="35.1549000">
<ele>10.999999</ele>
<time>2023-02-01T10:53:28.799Z</time>
</trkpt>
<trkpt lat="30.8916800" lon="35.1549000">
<ele>10.999999</ele>
<time>2023-02-01T10:53:28.799Z</time>
</trkpt>
<trkpt lat="30.8919100" lon="35.1549700">
<ele>10.999999</ele>
<time>2023-02-01T10:53:28.799Z</time>
</trkpt>
<trkpt lat="30.8920600" lon="35.1549700">
<ele>10.630000</ele>
<time>2023-02-01T10:53:28.799Z</time>
</trkpt>
<trkpt lat="30.8922600" lon="35.1548900">
<ele>10.260000</ele>
<time>2023-02-01T10:53:28.799Z</time>
</trkpt>
<trkpt lat="30.8923400" lon="35.1548500">
<ele>10.120000</ele>
<time>2023-02-01T10:53:28.799Z</time>
</trkpt>
<trkpt lat="30.8924800" lon="35.1548200">
<ele>9.719999</ele>
<time>2023-02-01T10:53:28.799Z</time>
</trkpt>
<trkpt lat="30.8926100" lon="35.1548400">
<ele>9.740001</ele>
<time>2023-02-01T10:53:28.799Z</time>
</trkpt>
<trkpt lat="30.8926700" lon="35.1548700">
<ele>9.790000</ele>
<time>2023-02-01T10:53:28.799Z</time>
</trkpt>
<trkpt lat="30.8927200" lon="35.1549200">
<ele>9.850000</ele>
<time>2023-02-01T10:53:28.799Z</time>
</trkpt>
<trkpt lat="30.8927500" lon="35.1549700">
<ele>9.910000</ele>
<time>2023-02-01T10:53:28.799Z</time>
</trkpt>
<trkpt lat="30.8927900" lon="35.1551100">
<ele>10.000000</ele>
<time>2023-02-01T10:53:28.799Z</time>
</trkpt>
<trkpt lat="30.8927300" lon="35.1552300">
<ele>9.969999</ele>
<time>2023-02-01T10:53:28.799Z</time>
</trkpt>
<trkpt lat="30.8927200" lon="35.1553000">
<ele>9.920000</ele>
<time>2023-02-01T10:53:28.799Z</time>
</trkpt>
<trkpt lat="30.8927500" lon="35.1553600">
<ele>9.700000</ele>
<time>2023-02-01T10:53:28.799Z</time>
</trkpt>
<trkpt lat="30.8928400" lon="35.1554400">
<ele>9.420000</ele>
<time>2023-02-01T10:53:28.799Z</time>
</trkpt>
<trkpt lat="30.8929500" lon="35.1556400">
<ele>9.000000</ele>
<time>2023-02-01T10:53:28.799Z</time>
</trkpt>
<trkpt lat="30.8930000" lon="35.1557800">
<ele>9.000000</ele>
<time>2023-02-01T10:53:28.799Z</time>
</trkpt>
<trkpt lat="30.8930600" lon="35.1559700">
<ele>9.000000</ele>
<time>2023-02-01T10:53:28.799Z</time>
</trkpt>
<trkpt lat="30.8930500" lon="35.1565300">
<ele>9.510000</ele>
<time>2023-02-01T10:53:28.799Z</time>
</trkpt>
<trkpt lat="30.8929800" lon="35.1567300">
<ele>9.560000</ele>
<time>2023-02-01T10:53:28.799Z</time>
</trkpt>
<trkpt lat="30.8929900" lon="35.1568200">
<ele>9.340000</ele>
<time>2023-02-01T10:53:28.799Z</time>
</trkpt>
<trkpt lat="30.8930800" lon="35.1570200">
<ele>8.750000</ele>
<time>2023-02-01T10:53:28.799Z</time>
</trkpt>
<trkpt lat="30.8931400" lon="35.1573000">
<ele>8.690000</ele>
<time>2023-02-01T10:53:28.799Z</time>
</trkpt>
<trkpt lat="30.8933500" lon="35.1576200">
<ele>9.350000</ele>
<time>2023-02-01T10:53:28.799Z</time>
</trkpt>
<trkpt lat="30.8935300" lon="35.1580100">
<ele>9.770000</ele>
<time>2023-02-01T10:53:28.799Z</time>
</trkpt>
<trkpt lat="30.8937300" lon="35.1582900">
<ele>9.090000</ele>
<time>2023-02-01T10:53:28.799Z</time>
</trkpt>
<trkpt lat="30.8938300" lon="35.1585100">
<ele>9.000000</ele>
<time>2023-02-01T10:53:28.799Z</time>
</trkpt>
<trkpt lat="30.8938600" lon="35.1586400">
<ele>8.900000</ele>
<time>2023-02-01T10:53:28.799Z</time>
</trkpt>
<trkpt lat="30.8938700" lon="35.1588400">
<ele>8.180000</ele>
<time>2023-02-01T10:53:28.799Z</time>
</trkpt>
<trkpt lat="30.8938600" lon="35.1590400">
<ele>8.059999</ele>
<time>2023-02-01T10:53:28.799Z</time>
</trkpt>
<trkpt lat="30.8938700" lon="35.1591100">
<ele>8.050000</ele>
<time>2023-02-01T10:53:28.799Z</time>
</trkpt>
<trkpt lat="30.8939700" lon="35.1593000">
<ele>8.630000</ele>
<time>2023-02-01T10:53:28.799Z</time>
</trkpt>
<trkpt lat="30.8940600" lon="35.1597800">
<ele>9.080000</ele>
<time>2023-02-01T10:53:28.799Z</time>
</trkpt>
<trkpt lat="30.8940600" lon="35.1601100">
<ele>9.630000</ele>
<time>2023-02-01T10:53:28.799Z</time>
</trkpt>
<trkpt lat="30.8940700" lon="35.1602400">
<ele>9.910000</ele>
<time>2023-02-01T10:53:28.799Z</time>
</trkpt>
<trkpt lat="30.8941200" lon="35.1603300">
<ele>10.030001</ele>
<time>2023-02-01T10:53:28.799Z</time>
</trkpt>
<trkpt lat="30.8942400" lon="35.1605000">
<ele>9.950000</ele>
<time>2023-02-01T10:53:28.799Z</time>
</trkpt>
<trkpt lat="30.8942700" lon="35.1606000">
<ele>10.160000</ele>
<time>2023-02-01T10:53:28.799Z</time>
</trkpt>
<trkpt lat="30.8942600" lon="35.1606700">
<ele>10.410000</ele>
<time>2023-02-01T10:53:28.799Z</time>
</trkpt>
<trkpt lat="30.8941400" lon="35.1608300">
<ele>11.180000</ele>
<time>2023-02-01T10:53:28.799Z</time>
</trkpt>
<trkpt lat="30.8940900" lon="35.1609500">
<ele>11.200000</ele>
<time>2023-02-01T10:53:28.799Z</time>
</trkpt>
<trkpt lat="30.8940500" lon="35.1614400">
<ele>9.580000</ele>
<time>2023-02-01T10:53:28.799Z</time>
</trkpt>
<trkpt lat="30.8940300" lon="35.1616200">
<ele>9.510000</ele>
<time>2023-02-01T10:53:28.799Z</time>
</trkpt>
<trkpt lat="30.8939200" lon="35.1619600">
<ele>9.270000</ele>
<time>2023-02-01T10:53:28.799Z</time>
</trkpt>
<trkpt lat="30.8938900" lon="35.1621100">
<ele>9.600000</ele>
<time>2023-02-01T10:53:28.799Z</time>
</trkpt>
<trkpt lat="30.8938800" lon="35.1623300">
<ele>9.590000</ele>
<time>2023-02-01T10:53:28.799Z</time>
</trkpt>
<trkpt lat="30.8938500" lon="35.1624600">
<ele>9.120000</ele>
<time>2023-02-01T10:53:28.799Z</time>
</trkpt>
<trkpt lat="30.8936700" lon="35.1629200">
<ele>7.490000</ele>
<time>2023-02-01T10:53:28.799Z</time>
</trkpt>
<trkpt lat="30.8936300" lon="35.1632400">
<ele>6.290000</ele>
<time>2023-02-01T10:53:28.799Z</time>
</trkpt>
<trkpt lat="30.8936100" lon="35.1633000">
<ele>6.120000</ele>
<time>2023-02-01T10:53:28.799Z</time>
</trkpt>
<trkpt lat="30.8935700" lon="35.1633300">
<ele>6.020000</ele>
<time>2023-02-01T10:53:28.799Z</time>
</trkpt>
<trkpt lat="30.8935100" lon="35.1634300">
<ele>5.430000</ele>
<time>2023-02-01T10:53:28.799Z</time>
</trkpt>
<trkpt lat="30.8935100" lon="35.1636300">
<ele>4.230000</ele>
<time>2023-02-01T10:53:28.799Z</time>
</trkpt>
<trkpt lat="30.8934800" lon="35.1637500">
<ele>3.470000</ele>
<time>2023-02-01T10:53:28.799Z</time>
</trkpt>
<trkpt lat="30.8933400" lon="35.1640000">
<ele>2.180000</ele>
<time>2023-02-01T10:53:28.799Z</time>
</trkpt>
<trkpt lat="30.8932100" lon="35.1643400">
<ele>0.200000</ele>
<time>2023-02-01T10:53:28.799Z</time>
</trkpt>
<trkpt lat="30.8930100" lon="35.1646300">
<ele>-1.280000</ele>
<time>2023-02-01T10:53:28.799Z</time>
</trkpt>
<trkpt lat="30.8929400" lon="35.1648600">
<ele>-3.280000</ele>
<time>2023-02-01T10:53:28.799Z</time>
</trkpt>
<trkpt lat="30.8928700" lon="35.1650500">
<ele>-4.690000</ele>
<time>2023-02-01T10:53:28.799Z</time>
</trkpt>
<trkpt lat="30.8926900" lon="35.1654000">
<ele>-7.000000</ele>
<time>2023-02-01T10:53:28.799Z</time>
</trkpt>
<trkpt lat="30.8925300" lon="35.1656500">
<ele>-9.130000</ele>
<time>2023-02-01T10:53:28.799Z</time>
</trkpt>
<trkpt lat="30.8925100" lon="35.1657300">
<ele>-9.920000</ele>
<time>2023-02-01T10:53:28.799Z</time>
</trkpt>
<trkpt lat="30.8925000" lon="35.1659500">
<ele>-13.520000</ele>
<time>2023-02-01T10:53:28.799Z</time>
</trkpt>
<trkpt lat="30.8924700" lon="35.1660100">
<ele>-14.710000</ele>
<time>2023-02-01T10:53:28.799Z</time>
</trkpt>
<trkpt lat="30.8922500" lon="35.1662800">
<ele>-22.120001</ele>
<time>2023-02-01T10:53:28.799Z</time>
</trkpt>
<trkpt lat="30.8922400" lon="35.1663400">
<ele>-24.249998</ele>
<time>2023-02-01T10:53:28.799Z</time>
</trkpt>
<trkpt lat="30.8922900" lon="35.1665400">
<ele>-34.980000</ele>
<time>2023-02-01T10:53:28.799Z</time>
</trkpt>
<trkpt lat="30.8922900" lon="35.1666200">
<ele>-39.740002</ele>
<time>2023-02-01T10:53:28.799Z</time>
</trkpt>
<trkpt lat="30.8922100" lon="35.1667300">
<ele>-42.919998</ele>
<time>2023-02-01T10:53:28.799Z</time>
</trkpt>
<trkpt lat="30.8921900" lon="35.1667800">
<ele>-42.820000</ele>
<time>2023-02-01T10:53:28.799Z</time>
</trkpt>
<trkpt lat="30.8921900" lon="35.1668500">
<ele>-42.840000</ele>
<time>2023-02-01T10:53:28.799Z</time>
</trkpt>
<trkpt lat="30.8922100" lon="35.1669100">
<ele>-42.950001</ele>
<time>2023-02-01T10:53:28.799Z</time>
</trkpt>
<trkpt lat="30.8922900" lon="35.1669800">
<ele>-42.169998</ele>
<time>2023-02-01T10:53:28.799Z</time>
</trkpt>
<trkpt lat="30.8923500" lon="35.1671600">
<ele>-41.200001</ele>
<time>2023-02-01T10:53:28.799Z</time>
</trkpt>
<trkpt lat="30.8924000" lon="35.1672700">
<ele>-40.990002</ele>
<time>2023-02-01T10:53:28.799Z</time>
</trkpt>
<trkpt lat="30.8924800" lon="35.1673400">
<ele>-41.290001</ele>
<time>2023-02-01T10:53:28.799Z</time>
</trkpt>
<trkpt lat="30.8926200" lon="35.1673300">
<ele>-39.799999</ele>
<time>2023-02-01T10:53:28.799Z</time>
</trkpt>
<trkpt lat="30.8926600" lon="35.1673700">
<ele>-39.520000</ele>
<time>2023-02-01T10:53:28.799Z</time>
</trkpt>
<trkpt lat="30.8926900" lon="35.1674700">
<ele>-39.480000</ele>
<time>2023-02-01T10:53:28.799Z</time>
</trkpt>
<trkpt lat="30.8926500" lon="35.1675000">
<ele>-40.299999</ele>
<time>2023-02-01T10:53:28.799Z</time>
</trkpt>
<trkpt lat="30.8926400" lon="35.1675500">
<ele>-39.849998</ele>
<time>2023-02-01T10:53:28.799Z</time>
</trkpt>
<trkpt lat="30.8922600" lon="35.1680900">
<ele>-40.670002</ele>
<time>2023-02-01T10:53:28.799Z</time>
</trkpt>
<trkpt lat="30.8921600" lon="35.1683000">
<ele>-42.330002</ele>
<time>2023-02-01T10:53:28.799Z</time>
</trkpt>
<trkpt lat="30.8920400" lon="35.1684900">
<ele>-42.919998</ele>
<time>2023-02-01T10:53:28.799Z</time>
</trkpt>
<trkpt lat="30.8920600" lon="35.1685500">
<ele>-42.520000</ele>
<time>2023-02-01T10:53:28.799Z</time>
</trkpt>
<trkpt lat="30.8921100" lon="35.1685600">
<ele>-41.840000</ele>
<time>2023-02-01T10:53:28.799Z</time>
</trkpt>
<trkpt lat="30.8921300" lon="35.1686100">
<ele>-41.329998</ele>
<time>2023-02-01T10:53:28.799Z</time>
</trkpt>
<trkpt lat="30.8920600" lon="35.1687100">
<ele>-41.680000</ele>
<time>2023-02-01T10:53:28.799Z</time>
</trkpt>
<trkpt lat="30.8919800" lon="35.1689500">
<ele>-41.820000</ele>
<time>2023-02-01T10:53:28.799Z</time>
</trkpt>
<trkpt lat="30.8919700" lon="35.1691400">
<ele>-40.719997</ele>
<time>2023-02-01T10:53:28.799Z</time>
</trkpt>
<trkpt lat="30.8919300" lon="35.1693300">
<ele>-39.429996</ele>
<time>2023-02-01T10:53:28.799Z</time>
</trkpt>
<trkpt lat="30.8919300" lon="35.1694000">
<ele>-38.720001</ele>
<time>2023-02-01T10:53:28.799Z</time>
</trkpt>
<trkpt lat="30.8919700" lon="35.1695700">
<ele>-36.770000</ele>
<time>2023-02-01T10:53:28.799Z</time>
</trkpt>
<trkpt lat="30.8919600" lon="35.1696500">
<ele>-36.340000</ele>
<time>2023-02-01T10:53:28.799Z</time>
</trkpt>
<trkpt lat="30.8919100" lon="35.1698200">
<ele>-37.130001</ele>
<time>2023-02-01T10:53:28.799Z</time>
</trkpt>
<trkpt lat="30.8919100" lon="35.1699100">
<ele>-37.380001</ele>
<time>2023-02-01T10:53:28.799Z</time>
</trkpt>
<trkpt lat="30.8919000" lon="35.1699600">
<ele>-37.700001</ele>
<time>2023-02-01T10:53:28.799Z</time>
</trkpt>
<trkpt lat="30.8919600" lon="35.1702400">
<ele>-37.700001</ele>
<time>2023-02-01T10:53:28.799Z</time>
</trkpt>
<trkpt lat="30.8921100" lon="35.1705900">
<ele>-36.009998</ele>
<time>2023-02-01T10:53:28.799Z</time>
</trkpt>
<trkpt lat="30.8921800" lon="35.1709500">
<ele>-36.669998</ele>
<time>2023-02-01T10:53:28.799Z</time>
</trkpt>
<trkpt lat="30.8922200" lon="35.1710900">
<ele>-36.080002</ele>
<time>2023-02-01T10:53:28.799Z</time>
</trkpt>
<trkpt lat="30.8923300" lon="35.1712800">
<ele>-35.000000</ele>
<time>2023-02-01T10:53:28.799Z</time>
</trkpt>
<trkpt lat="30.8924500" lon="35.1713900">
<ele>-34.189999</ele>
<time>2023-02-01T10:53:28.799Z</time>
</trkpt>
<trkpt lat="30.8925400" lon="35.1716100">
<ele>-36.700001</ele>
<time>2023-02-01T10:53:28.799Z</time>
</trkpt>
<trkpt lat="30.8927100" lon="35.1718700">
<ele>-36.070000</ele>
<time>2023-02-01T10:53:28.799Z</time>
</trkpt>
<trkpt lat="30.8927800" lon="35.1720700">
<ele>-35.910000</ele>
<time>2023-02-01T10:53:28.799Z</time>
</trkpt>
<trkpt lat="30.8928500" lon="35.1722000">
<ele>-37.320000</ele>
<time>2023-02-01T10:53:28.799Z</time>
</trkpt>
<trkpt lat="30.8931200" lon="35.1724600">
<ele>-41.770000</ele>
<time>2023-02-01T10:53:28.799Z</time>
</trkpt>
<trkpt lat="30.8931600" lon="35.1725300">
<ele>-43.100002</ele>
<time>2023-02-01T10:53:28.799Z</time>
</trkpt>
<trkpt lat="30.8932000" lon="35.1726500">
<ele>-44.679996</ele>
<time>2023-02-01T10:53:28.799Z</time>
</trkpt>
<trkpt lat="30.8933300" lon="35.1727600">
<ele>-47.809998</ele>
<time>2023-02-01T10:53:28.799Z</time>
</trkpt>
<trkpt lat="30.8934600" lon="35.1728800">
<ele>-47.140003</ele>
<time>2023-02-01T10:53:28.799Z</time>
</trkpt>
<trkpt lat="30.8935500" lon="35.1729400">
<ele>-46.959999</ele>
<time>2023-02-01T10:53:28.799Z</time>
</trkpt>
<trkpt lat="30.8937700" lon="35.1729600">
<ele>-45.110001</ele>
<time>2023-02-01T10:53:28.799Z</time>
</trkpt>
<trkpt lat="30.8940600" lon="35.1731200">
<ele>-40.540001</ele>
<time>2023-02-01T10:53:28.799Z</time>
</trkpt>
<trkpt lat="30.8941500" lon="35.1731900">
<ele>-39.240002</ele>
<time>2023-02-01T10:53:28.799Z</time>
</trkpt>
<trkpt lat="30.8942300" lon="35.1733600">
<ele>-38.430000</ele>
<time>2023-02-01T10:53:28.799Z</time>
</trkpt>
<trkpt lat="30.8942700" lon="35.1734000">
<ele>-38.209999</ele>
<time>2023-02-01T10:53:28.799Z</time>
</trkpt>
<trkpt lat="30.8943200" lon="35.1734200">
<ele>-37.830002</ele>
<time>2023-02-01T10:53:28.799Z</time>
</trkpt>
<trkpt lat="30.8943600" lon="35.1734000">
<ele>-37.320000</ele>
<time>2023-02-01T10:53:28.799Z</time>
</trkpt>
<trkpt lat="30.8944500" lon="35.1733200">
<ele>-35.930000</ele>
<time>2023-02-01T10:53:28.799Z</time>
</trkpt>
<trkpt lat="30.8944600" lon="35.1732800">
<ele>-35.740002</ele>
<time>2023-02-01T10:53:28.799Z</time>
</trkpt>
<trkpt lat="30.8945200" lon="35.1732600">
<ele>-35.389999</ele>
<time>2023-02-01T10:53:28.799Z</time>
</trkpt>
<trkpt lat="30.8945400" lon="35.1731500">
<ele>-34.770000</ele>
<time>2023-02-01T10:53:28.799Z</time>
</trkpt>
<trkpt lat="30.8945100" lon="35.1729600">
<ele>-33.759998</ele>
<time>2023-02-01T10:53:28.799Z</time>
</trkpt>
<trkpt lat="30.8945000" lon="35.1727400">
<ele>-32.590000</ele>
<time>2023-02-01T10:53:28.799Z</time>
</trkpt>
<trkpt lat="30.8945400" lon="35.1726000">
<ele>-32.590000</ele>
<time>2023-02-01T10:53:28.799Z</time>
</trkpt>
<trkpt lat="30.8946100" lon="35.1725400">
<ele>-31.389999</ele>
<time>2023-02-01T10:53:28.799Z</time>
</trkpt>
<trkpt lat="30.8948300" lon="35.1724700">
<ele>-28.680000</ele>
<time>2023-02-01T10:53:28.799Z</time>
</trkpt>
<trkpt lat="30.8952300" lon="35.1721300">
<ele>-30.709999</ele>
<time>2023-02-01T10:53:28.799Z</time>
</trkpt>
<trkpt lat="30.8954500" lon="35.1719900">
<ele>-31.570002</ele>
<time>2023-02-01T10:53:28.799Z</time>
</trkpt>
<trkpt lat="30.8955100" lon="35.1719800">
<ele>-31.930000</ele>
<time>2023-02-01T10:53:28.799Z</time>
</trkpt>
<trkpt lat="30.8955800" lon="35.1719900">
<ele>-32.239998</ele>
<time>2023-02-01T10:53:28.799Z</time>
</trkpt>
<trkpt lat="30.8957500" lon="35.1720400">
<ele>-31.990002</ele>
<time>2023-02-01T10:53:28.799Z</time>
</trkpt>
<trkpt lat="30.8958100" lon="35.1720500">
<ele>-31.840000</ele>
<time>2023-02-01T10:53:28.799Z</time>
</trkpt>
<trkpt lat="30.8958600" lon="35.1720200">
<ele>-31.389999</ele>
<time>2023-02-01T10:53:28.799Z</time>
</trkpt>
<trkpt lat="30.8959000" lon="35.1719000">
<ele>-30.609999</ele>
<time>2023-02-01T10:53:28.799Z</time>
</trkpt>
<trkpt lat="30.8959300" lon="35.1718700">
<ele>-30.170000</ele>
<time>2023-02-01T10:53:28.799Z</time>
</trkpt>
<trkpt lat="30.8959800" lon="35.1718600">
<ele>-29.730000</ele>
<time>2023-02-01T10:53:28.799Z</time>
</trkpt>
<trkpt lat="30.8960800" lon="35.1718900">
<ele>-29.760000</ele>
<time>2023-02-01T10:53:28.799Z</time>
</trkpt>
<trkpt lat="30.8961600" lon="35.1719400">
<ele>-28.969999</ele>
<time>2023-02-01T10:53:28.799Z</time>
</trkpt>
<trkpt lat="30.8962100" lon="35.1721100">
<ele>-25.340000</ele>
<time>2023-02-01T10:53:28.799Z</time>
</trkpt>
<trkpt lat="30.8962100" lon="35.1722500">
<ele>-24.389999</ele>
<time>2023-02-01T10:53:28.799Z</time>
</trkpt>
<trkpt lat="30.8962400" lon="35.1723100">
<ele>-24.190001</ele>
<time>2023-02-01T10:53:28.799Z</time>
</trkpt>
<trkpt lat="30.8962800" lon="35.1723500">
<ele>-23.709999</ele>
<time>2023-02-01T10:53:28.799Z</time>
</trkpt>
<trkpt lat="30.8963800" lon="35.1724100">
<ele>-22.550001</ele>
<time>2023-02-01T10:53:28.799Z</time>
</trkpt>
<trkpt lat="30.8964100" lon="35.1724500">
<ele>-22.660000</ele>
<time>2023-02-01T10:53:28.799Z</time>
</trkpt>
<trkpt lat="30.8964400" lon="35.1725100">
<ele>-22.969999</ele>
<time>2023-02-01T10:53:28.799Z</time>
</trkpt>
<trkpt lat="30.8964500" lon="35.1725700">
<ele>-23.240000</ele>
<time>2023-02-01T10:53:28.799Z</time>
</trkpt>
<trkpt lat="30.8964400" lon="35.1728100">
<ele>-25.090000</ele>
<time>2023-02-01T10:53:28.799Z</time>
</trkpt>
<trkpt lat="30.8963900" lon="35.1729500">
<ele>-26.590000</ele>
<time>2023-02-01T10:53:28.799Z</time>
</trkpt>
<trkpt lat="30.8963700" lon="35.1730700">
<ele>-27.469999</ele>
<time>2023-02-01T10:53:28.799Z</time>
</trkpt>
<trkpt lat="30.8963200" lon="35.1732200">
<ele>-28.300001</ele>
<time>2023-02-01T10:53:28.799Z</time>
</trkpt>
<trkpt lat="30.8963000" lon="35.1732500">
<ele>-28.570000</ele>
<time>2023-02-01T10:53:28.799Z</time>
</trkpt>
<trkpt lat="30.8962800" lon="35.1734100">
<ele>-28.119999</ele>
<time>2023-02-01T10:53:28.799Z</time>
</trkpt>
<trkpt lat="30.8962800" lon="35.1735100">
<ele>-27.549999</ele>
<time>2023-02-01T10:53:28.799Z</time>
</trkpt>
<trkpt lat="30.8963400" lon="35.1738400">
<ele>-25.879999</ele>
<time>2023-02-01T10:53:28.799Z</time>
</trkpt>
<trkpt lat="30.8964700" lon="35.1742000">
<ele>-27.789999</ele>
<time>2023-02-01T10:53:28.799Z</time>
</trkpt>
<trkpt lat="30.8965200" lon="35.1744400">
<ele>-29.450001</ele>
<time>2023-02-01T10:53:28.799Z</time>
</trkpt>
<trkpt lat="30.8965000" lon="35.1745700">
<ele>-31.029999</ele>
<time>2023-02-01T10:53:28.799Z</time>
</trkpt>
<trkpt lat="30.8962800" lon="35.1750000">
<ele>-37.389999</ele>
<time>2023-02-01T10:53:28.799Z</time>
</trkpt>
<trkpt lat="30.8962300" lon="35.1752100">
<ele>-40.269997</ele>
<time>2023-02-01T10:53:28.799Z</time>
</trkpt>
<trkpt lat="30.8962300" lon="35.1753600">
<ele>-41.309998</ele>
<time>2023-02-01T10:53:28.799Z</time>
</trkpt>
<trkpt lat="30.8962500" lon="35.1754300">
<ele>-41.270000</ele>
<time>2023-02-01T10:53:28.799Z</time>
</trkpt>
<trkpt lat="30.8963100" lon="35.1756300">
<ele>-40.740002</ele>
<time>2023-02-01T10:53:28.799Z</time>
</trkpt>
<trkpt lat="30.8963900" lon="35.1757900">
<ele>-40.830002</ele>
<time>2023-02-01T10:53:28.799Z</time>
</trkpt>
<trkpt lat="30.8965300" lon="35.1760400">
<ele>-38.380001</ele>
<time>2023-02-01T10:53:28.799Z</time>
</trkpt>
<trkpt lat="30.8966300" lon="35.1761900">
<ele>-38.850002</ele>
<time>2023-02-01T10:53:28.799Z</time>
</trkpt>
<trkpt lat="30.8967000" lon="35.1762600">
<ele>-39.970001</ele>
<time>2023-02-01T10:53:28.799Z</time>
</trkpt>
<trkpt lat="30.8968400" lon="35.1763500">
<ele>-42.450001</ele>
<time>2023-02-01T10:53:28.799Z</time>
</trkpt>
<trkpt lat="30.8970500" lon="35.1763800">
<ele>-44.299999</ele>
<time>2023-02-01T10:53:28.799Z</time>
</trkpt>
<trkpt lat="30.8971600" lon="35.1763800">
<ele>-44.700001</ele>
<time>2023-02-01T10:53:28.799Z</time>
</trkpt>
<trkpt lat="30.8972000" lon="35.1764100">
<ele>-45.160000</ele>
<time>2023-02-01T10:53:28.799Z</time>
</trkpt>
<trkpt lat="30.8973100" lon="35.1765900">
<ele>-47.169998</ele>
<time>2023-02-01T10:53:28.799Z</time>
</trkpt>
<trkpt lat="30.8973200" lon="35.1767000">
<ele>-48.360001</ele>
<time>2023-02-01T10:53:28.799Z</time>
</trkpt>
<trkpt lat="30.8973200" lon="35.1767700">
<ele>-49.120003</ele>
<time>2023-02-01T10:53:28.799Z</time>
</trkpt>
<trkpt lat="30.8972600" lon="35.1770000">
<ele>-51.000000</ele>
<time>2023-02-01T10:53:28.799Z</time>
</trkpt>
<trkpt lat="30.8972500" lon="35.1772600">
<ele>-50.849998</ele>
<time>2023-02-01T10:53:28.799Z</time>
</trkpt>
<trkpt lat="30.8972100" lon="35.1773800">
<ele>-50.430000</ele>
<time>2023-02-01T10:53:28.799Z</time>
</trkpt>
<trkpt lat="30.8971800" lon="35.1774700">
<ele>-50.110001</ele>
<time>2023-02-01T10:53:28.799Z</time>
</trkpt>
<trkpt lat="30.8971900" lon="35.1775500">
<ele>-49.299999</ele>
<time>2023-02-01T10:53:28.799Z</time>
</trkpt>
<trkpt lat="30.8973500" lon="35.1777500">
<ele>-47.180000</ele>
<time>2023-02-01T10:53:28.799Z</time>
</trkpt>
<trkpt lat="30.8973600" lon="35.1778000">
<ele>-46.910004</ele>
<time>2023-02-01T10:53:28.799Z</time>
</trkpt>
<trkpt lat="30.8972800" lon="35.1781200">
<ele>-45.049999</ele>
<time>2023-02-01T10:53:28.799Z</time>
</trkpt>
<trkpt lat="30.8972800" lon="35.1782600">
<ele>-44.250000</ele>
<time>2023-02-01T10:53:28.799Z</time>
</trkpt>
<trkpt lat="30.8973100" lon="35.1783400">
<ele>-44.289997</ele>
<time>2023-02-01T10:53:28.799Z</time>
</trkpt>
<trkpt lat="30.8974800" lon="35.1786100">
<ele>-45.930000</ele>
<time>2023-02-01T10:53:28.799Z</time>
</trkpt>
<trkpt lat="30.8975200" lon="35.1786500">
<ele>-46.099998</ele>
<time>2023-02-01T10:53:28.799Z</time>
</trkpt>
<trkpt lat="30.8976500" lon="35.1787100">
<ele>-46.310001</ele>
<time>2023-02-01T10:53:28.799Z</time>
</trkpt>
<trkpt lat="30.8978300" lon="35.1789100">
<ele>-44.770000</ele>
<time>2023-02-01T10:53:28.799Z</time>
</trkpt>
<trkpt lat="30.8981600" lon="35.1791100">
<ele>-48.949997</ele>
<time>2023-02-01T10:53:28.799Z</time>
</trkpt>
<trkpt lat="30.8986100" lon="35.1794400">
<ele>-52.010002</ele>
<time>2023-02-01T10:53:28.799Z</time>
</trkpt>
<trkpt lat="30.8987900" lon="35.1796100">
<ele>-53.840000</ele>
<time>2023-02-01T10:53:28.799Z</time>
</trkpt>
<trkpt lat="30.8988500" lon="35.1796500">
<ele>-54.340000</ele>
<time>2023-02-01T10:53:28.799Z</time>
</trkpt>
<trkpt lat="30.8990500" lon="35.1797200">
<ele>-56.139999</ele>
<time>2023-02-01T10:53:28.799Z</time>
</trkpt>
<trkpt lat="30.8992200" lon="35.1798100">
<ele>-56.370003</ele>
<time>2023-02-01T10:53:28.799Z</time>
</trkpt>
<trkpt lat="30.8993600" lon="35.1799200">
<ele>-54.600002</ele>
<time>2023-02-01T10:53:28.799Z</time>
</trkpt>
<trkpt lat="30.8995000" lon="35.1801500">
<ele>-52.660000</ele>
<time>2023-02-01T10:53:28.799Z</time>
</trkpt>
<trkpt lat="30.8997500" lon="35.1803000">
<ele>-53.590000</ele>
<time>2023-02-01T10:53:28.799Z</time>
</trkpt>
<trkpt lat="30.8999000" lon="35.1803600">
<ele>-55.570000</ele>
<time>2023-02-01T10:53:28.799Z</time>
</trkpt>
<trkpt lat="30.9000400" lon="35.1804600">
<ele>-57.629997</ele>
<time>2023-02-01T10:53:28.799Z</time>
</trkpt>
<trkpt lat="30.9000800" lon="35.1805100">
<ele>-58.200001</ele>
<time>2023-02-01T10:53:28.799Z</time>
</trkpt>
<trkpt lat="30.9001600" lon="35.1809000">
<ele>-55.480000</ele>
<time>2023-02-01T10:53:28.799Z</time>
</trkpt>
<trkpt lat="30.9002900" lon="35.1810900">
<ele>-56.020000</ele>
<time>2023-02-01T10:53:28.799Z</time>
</trkpt>
<trkpt lat="30.9003700" lon="35.1814000">
<ele>-53.490002</ele>
<time>2023-02-01T10:53:28.799Z</time>
</trkpt>
<trkpt lat="30.9005100" lon="35.1815600">
<ele>-53.200001</ele>
<time>2023-02-01T10:53:28.799Z</time>
</trkpt>
<trkpt lat="30.9005300" lon="35.1816800">
<ele>-51.299999</ele>
<time>2023-02-01T10:53:28.799Z</time>
</trkpt>
<trkpt lat="30.9005900" lon="35.1817800">
<ele>-49.340004</ele>
<time>2023-02-01T10:53:28.799Z</time>
</trkpt>
<trkpt lat="30.9008300" lon="35.1820100">
<ele>-45.969997</ele>
<time>2023-02-01T10:53:28.799Z</time>
</trkpt>
<trkpt lat="30.9010900" lon="35.1821500">
<ele>-50.859997</ele>
<time>2023-02-01T10:53:28.799Z</time>
</trkpt>
<trkpt lat="30.9012400" lon="35.1822000">
<ele>-52.620003</ele>
<time>2023-02-01T10:53:28.799Z</time>
</trkpt>
<trkpt lat="30.9013800" lon="35.1822700">
<ele>-53.230003</ele>
<time>2023-02-01T10:53:28.799Z</time>
</trkpt>
<trkpt lat="30.9014200" lon="35.1823100">
<ele>-53.219997</ele>
<time>2023-02-01T10:53:28.799Z</time>
</trkpt>
<trkpt lat="30.9014700" lon="35.1824300">
<ele>-52.390003</ele>
<time>2023-02-01T10:53:28.799Z</time>
</trkpt>
<trkpt lat="30.9014800" lon="35.1825600">
<ele>-51.139999</ele>
<time>2023-02-01T10:53:28.799Z</time>
</trkpt>
<trkpt lat="30.9015200" lon="35.1825900">
<ele>-51.420002</ele>
<time>2023-02-01T10:53:28.799Z</time>
</trkpt>
<trkpt lat="30.9015700" lon="35.1825800">
<ele>-52.219997</ele>
<time>2023-02-01T10:53:28.799Z</time>
</trkpt>
<trkpt lat="30.9016100" lon="35.1825400">
<ele>-53.380001</ele>
<time>2023-02-01T10:53:28.799Z</time>
</trkpt>
<trkpt lat="30.9017300" lon="35.1825700">
<ele>-54.080002</ele>
<time>2023-02-01T10:53:28.799Z</time>
</trkpt>
<trkpt lat="30.9017700" lon="35.1826100">
<ele>-53.690002</ele>
<time>2023-02-01T10:53:28.799Z</time>
</trkpt>
<trkpt lat="30.9017900" lon="35.1826700">
<ele>-52.930000</ele>
<time>2023-02-01T10:53:28.799Z</time>
</trkpt>
<trkpt lat="30.9018000" lon="35.1827900">
<ele>-51.290001</ele>
<time>2023-02-01T10:53:28.799Z</time>
</trkpt>
<trkpt lat="30.9018700" lon="35.1829500">
<ele>-49.880001</ele>
<time>2023-02-01T10:53:28.799Z</time>
</trkpt>
<trkpt lat="30.9020100" lon="35.1830500">
<ele>-50.019997</ele>
<time>2023-02-01T10:53:28.799Z</time>
</trkpt>
<trkpt lat="30.9019700" lon="35.1830900">
<ele>-49.500000</ele>
<time>2023-02-01T10:53:28.799Z</time>
</trkpt>
<trkpt lat="30.9019900" lon="35.1831400">
<ele>-50.009998</ele>
<time>2023-02-01T10:53:28.799Z</time>
</trkpt>
<trkpt lat="30.9021500" lon="35.1833200">
<ele>-53.620003</ele>
<time>2023-02-01T10:53:28.799Z</time>
</trkpt>
<trkpt lat="30.9023400" lon="35.1835800">
<ele>-56.730000</ele>
<time>2023-02-01T10:53:28.799Z</time>
</trkpt>
<trkpt lat="30.9024000" lon="35.1837700">
<ele>-57.369999</ele>
<time>2023-02-01T10:53:28.799Z</time>
</trkpt>
<trkpt lat="30.9025700" lon="35.1840400">
<ele>-58.510002</ele>
<time>2023-02-01T10:53:28.799Z</time>
</trkpt>
<trkpt lat="30.9027200" lon="35.1843500">
<ele>-59.769997</ele>
<time>2023-02-01T10:53:28.799Z</time>
</trkpt>
<trkpt lat="30.9027800" lon="35.1845100">
<ele>-59.790001</ele>
<time>2023-02-01T10:53:28.799Z</time>
</trkpt>
<trkpt lat="30.9028600" lon="35.1846500">
<ele>-60.010002</ele>
<time>2023-02-01T10:53:28.799Z</time>
</trkpt>
<trkpt lat="30.9030900" lon="35.1853900">
<ele>-58.929996</ele>
<time>2023-02-01T10:53:28.799Z</time>
</trkpt>
<trkpt lat="30.9032300" lon="35.1858000">
<ele>-59.230000</ele>
<time>2023-02-01T10:53:28.799Z</time>
</trkpt>
<trkpt lat="30.9032200" lon="35.1859100">
<ele>-59.350002</ele>
<time>2023-02-01T10:53:28.799Z</time>
</trkpt>
<trkpt lat="30.9032000" lon="35.1859500">
<ele>-59.260002</ele>
<time>2023-02-01T10:53:28.799Z</time>
</trkpt>
<trkpt lat="30.9030900" lon="35.1860700">
<ele>-58.350002</ele>
<time>2023-02-01T10:53:28.799Z</time>
</trkpt>
<trkpt lat="30.9030300" lon="35.1861700">
<ele>-57.740002</ele>
<time>2023-02-01T10:53:28.799Z</time>
</trkpt>
<trkpt lat="30.9029800" lon="35.1863200">
<ele>-57.389999</ele>
<time>2023-02-01T10:53:28.799Z</time>
</trkpt>
<trkpt lat="30.9029700" lon="35.1863800">
<ele>-57.369999</ele>
<time>2023-02-01T10:53:28.799Z</time>
</trkpt>
<trkpt lat="30.9030200" lon="35.1864200">
<ele>-57.559998</ele>
<time>2023-02-01T10:53:28.799Z</time>
</trkpt>
<trkpt lat="30.9031800" lon="35.1863800">
<ele>-59.340000</ele>
<time>2023-02-01T10:53:28.799Z</time>
</trkpt>
<trkpt lat="30.9032400" lon="35.1864000">
<ele>-59.910000</ele>
<time>2023-02-01T10:53:28.799Z</time>
</trkpt>
<trkpt lat="30.9032800" lon="35.1864400">
<ele>-60.059998</ele>
<time>2023-02-01T10:53:28.799Z</time>
</trkpt>
<trkpt lat="30.9032800" lon="35.1865300">
<ele>-59.410000</ele>
<time>2023-02-01T10:53:28.799Z</time>
</trkpt>
<trkpt lat="30.9031500" lon="35.1867700">
<ele>-56.649998</ele>
<time>2023-02-01T10:53:28.799Z</time>
</trkpt>
<trkpt lat="30.9029800" lon="35.1872000">
<ele>-52.119999</ele>
<time>2023-02-01T10:53:28.799Z</time>
</trkpt>
<trkpt lat="30.9029800" lon="35.1872600">
<ele>-51.889999</ele>
<time>2023-02-01T10:53:28.799Z</time>
</trkpt>
<trkpt lat="30.9030000" lon="35.1873400">
<ele>-52.030003</ele>
<time>2023-02-01T10:53:28.799Z</time>
</trkpt>
<trkpt lat="30.9030700" lon="35.1874900">
<ele>-52.189999</ele>
<time>2023-02-01T10:53:28.799Z</time>
</trkpt>
<trkpt lat="30.9030800" lon="35.1875400">
<ele>-52.650002</ele>
<time>2023-02-01T10:53:28.799Z</time>
</trkpt>
<trkpt lat="30.9030700" lon="35.1876600">
<ele>-53.760002</ele>
<time>2023-02-01T10:53:28.799Z</time>
</trkpt>
<trkpt lat="30.9030100" lon="35.1878900">
<ele>-56.080002</ele>
<time>2023-02-01T10:53:28.799Z</time>
</trkpt>
<trkpt lat="30.9030100" lon="35.1880600">
<ele>-57.700001</ele>
<time>2023-02-01T10:53:28.799Z</time>
</trkpt>
<trkpt lat="30.9030300" lon="35.1881300">
<ele>-58.350002</ele>
<time>2023-02-01T10:53:28.799Z</time>
</trkpt>
<trkpt lat="30.9031300" lon="35.1883300">
<ele>-60.780003</ele>
<time>2023-02-01T10:53:28.799Z</time>
</trkpt>
<trkpt lat="30.9031200" lon="35.1884100">
<ele>-61.400002</ele>
<time>2023-02-01T10:53:28.799Z</time>
</trkpt>
<trkpt lat="30.9030900" lon="35.1884600">
<ele>-61.630001</ele>
<time>2023-02-01T10:53:28.799Z</time>
</trkpt>
<trkpt lat="30.9029900" lon="35.1887300">
<ele>-62.289997</ele>
<time>2023-02-01T10:53:28.799Z</time>
</trkpt>
<trkpt lat="30.9029700" lon="35.1890600">
<ele>-61.650002</ele>
<time>2023-02-01T10:53:28.799Z</time>
</trkpt>
<trkpt lat="30.9029700" lon="35.1892400">
<ele>-61.400002</ele>
<time>2023-02-01T10:53:28.799Z</time>
</trkpt>
<trkpt lat="30.9029100" lon="35.1894800">
<ele>-60.390003</ele>
<time>2023-02-01T10:53:28.799Z</time>
</trkpt>
<trkpt lat="30.9029100" lon="35.1897900">
<ele>-60.299999</ele>
<time>2023-02-01T10:53:28.799Z</time>
</trkpt>
<trkpt lat="30.9029600" lon="35.1900100">
<ele>-60.560001</ele>
<time>2023-02-01T10:53:28.799Z</time>
</trkpt>
<trkpt lat="30.9029700" lon="35.1901900">
<ele>-59.660000</ele>
<time>2023-02-01T10:53:28.799Z</time>
</trkpt>
<trkpt lat="30.9029400" lon="35.1904400">
<ele>-56.750000</ele>
<time>2023-02-01T10:53:28.799Z</time>
</trkpt>
<trkpt lat="30.9028900" lon="35.1906900">
<ele>-52.970001</ele>
<time>2023-02-01T10:53:28.799Z</time>
</trkpt>
<trkpt lat="30.9028900" lon="35.1908500">
<ele>-51.379997</ele>
<time>2023-02-01T10:53:28.799Z</time>
</trkpt>
<trkpt lat="30.9029500" lon="35.1910000">
<ele>-52.639999</ele>
<time>2023-02-01T10:53:28.799Z</time>
</trkpt>
<trkpt lat="30.9029700" lon="35.1912400">
<ele>-52.119999</ele>
<time>2023-02-01T10:53:28.799Z</time>
</trkpt>
<trkpt lat="30.9030400" lon="35.1914500">
<ele>-53.010002</ele>
<time>2023-02-01T10:53:28.799Z</time>
</trkpt>
<trkpt lat="30.9031000" lon="35.1915600">
<ele>-55.380001</ele>
<time>2023-02-01T10:53:28.799Z</time>
</trkpt>
<trkpt lat="30.9031300" lon="35.1917700">
<ele>-56.709999</ele>
<time>2023-02-01T10:53:28.799Z</time>
</trkpt>
<trkpt lat="30.9031700" lon="35.1918400">
<ele>-57.730003</ele>
<time>2023-02-01T10:53:28.799Z</time>
</trkpt>
<trkpt lat="30.9032700" lon="35.1919300">
<ele>-60.360001</ele>
<time>2023-02-01T10:53:28.799Z</time>
</trkpt>
<trkpt lat="30.9033000" lon="35.1919700">
<ele>-61.230003</ele>
<time>2023-02-01T10:53:28.799Z</time>
</trkpt>
<trkpt lat="30.9033100" lon="35.1920400">
<ele>-61.700001</ele>
<time>2023-02-01T10:53:28.799Z</time>
</trkpt>
<trkpt lat="30.9033100" lon="35.1922300">
<ele>-62.189999</ele>
<time>2023-02-01T10:53:28.799Z</time>
</trkpt>
<trkpt lat="30.9032700" lon="35.1924800">
<ele>-59.089996</ele>
<time>2023-02-01T10:53:28.799Z</time>
</trkpt>
<trkpt lat="30.9032300" lon="35.1926200">
<ele>-55.220001</ele>
<time>2023-02-01T10:53:28.799Z</time>
</trkpt>
<trkpt lat="30.9032200" lon="35.1926900">
<ele>-53.500000</ele>
<time>2023-02-01T10:53:28.799Z</time>
</trkpt>
<trkpt lat="30.9032500" lon="35.1927500">
<ele>-53.170002</ele>
<time>2023-02-01T10:53:28.799Z</time>
</trkpt>
<trkpt lat="30.9033900" lon="35.1928900">
<ele>-55.630001</ele>
<time>2023-02-01T10:53:28.799Z</time>
</trkpt>
<trkpt lat="30.9034700" lon="35.1930000">
<ele>-57.209999</ele>
<time>2023-02-01T10:53:28.799Z</time>
</trkpt>
<trkpt lat="30.9035700" lon="35.1933000">
<ele>-57.469997</ele>
<time>2023-02-01T10:53:28.799Z</time>
</trkpt>
<trkpt lat="30.9035800" lon="35.1933300">
<ele>-57.580002</ele>
<time>2023-02-01T10:53:28.799Z</time>
</trkpt>
<trkpt lat="30.9036100" lon="35.1935900">
<ele>-55.259998</ele>
<time>2023-02-01T10:53:28.799Z</time>
</trkpt>
<trkpt lat="30.9037000" lon="35.1938500">
<ele>-59.469997</ele>
<time>2023-02-01T10:53:28.799Z</time>
</trkpt>
<trkpt lat="30.9037600" lon="35.1940800">
<ele>-62.950001</ele>
<time>2023-02-01T10:53:28.799Z</time>
</trkpt>
<trkpt lat="30.9038000" lon="35.1944700">
<ele>-65.760002</ele>
<time>2023-02-01T10:53:28.799Z</time>
</trkpt>
<trkpt lat="30.9037800" lon="35.1948900">
<ele>-66.750000</ele>
<time>2023-02-01T10:53:28.799Z</time>
</trkpt>
<trkpt lat="30.9037900" lon="35.1950600">
<ele>-68.139999</ele>
<time>2023-02-01T10:53:28.799Z</time>
</trkpt>
<trkpt lat="30.9039000" lon="35.1954800">
<ele>-70.580002</ele>
<time>2023-02-01T10:53:28.799Z</time>
</trkpt>
<trkpt lat="30.9039200" lon="35.1957400">
<ele>-68.599998</ele>
<time>2023-02-01T10:53:28.799Z</time>
</trkpt>
<trkpt lat="30.9039400" lon="35.1958300">
<ele>-68.309998</ele>
<time>2023-02-01T10:53:28.799Z</time>
</trkpt>
<trkpt lat="30.9040900" lon="35.1961100">
<ele>-70.250000</ele>
<time>2023-02-01T10:53:28.799Z</time>
</trkpt>
<trkpt lat="30.9041400" lon="35.1962500">
<ele>-71.180000</ele>
<time>2023-02-01T10:53:28.799Z</time>
</trkpt>
<trkpt lat="30.9041800" lon="35.1965100">
<ele>-70.139999</ele>
<time>2023-02-01T10:53:28.799Z</time>
</trkpt>
<trkpt lat="30.9042100" lon="35.1966500">
<ele>-69.400002</ele>
<time>2023-02-01T10:53:28.799Z</time>
</trkpt>
<trkpt lat="30.9041800" lon="35.1966900">
<ele>-69.090004</ele>
<time>2023-02-01T10:53:28.799Z</time>
</trkpt>
<trkpt lat="30.9040500" lon="35.1967000">
<ele>-67.470001</ele>
<time>2023-02-01T10:53:28.799Z</time>
</trkpt>
<trkpt lat="30.9039200" lon="35.1966600">
<ele>-65.430000</ele>
<time>2023-02-01T10:53:28.799Z</time>
</trkpt>
<trkpt lat="30.9039100" lon="35.1966100">
<ele>-65.150002</ele>
<time>2023-02-01T10:53:28.799Z</time>
</trkpt>
<trkpt lat="30.9038700" lon="35.1965700">
<ele>-64.470001</ele>
<time>2023-02-01T10:53:28.799Z</time>
</trkpt>
<trkpt lat="30.9038000" lon="35.1965800">
<ele>-63.869999</ele>
<time>2023-02-01T10:53:28.799Z</time>
</trkpt>
<trkpt lat="30.9038100" lon="35.1966400">
<ele>-64.479996</ele>
<time>2023-02-01T10:53:28.799Z</time>
</trkpt>
<trkpt lat="30.9038700" lon="35.1966600">
<ele>-64.900002</ele>
<time>2023-02-01T10:53:28.799Z</time>
</trkpt>
<trkpt lat="30.9039200" lon="35.1966600">
<ele>-65.430000</ele>
<time>2023-02-01T10:53:28.799Z</time>
</trkpt>
<trkpt lat="30.9040500" lon="35.1967000">
<ele>-67.470001</ele>
<time>2023-02-01T10:53:28.799Z</time>
</trkpt>
<trkpt lat="30.9043200" lon="35.1968200">
<ele>-69.800003</ele>
<time>2023-02-01T10:53:28.799Z</time>
</trkpt>
<trkpt lat="30.9043600" lon="35.1968300">
<ele>-69.979996</ele>
<time>2023-02-01T10:53:28.799Z</time>
</trkpt>
<trkpt lat="30.9044000" lon="35.1968400">
<ele>-70.160004</ele>
<time>2023-02-01T10:53:28.799Z</time>
</trkpt>
<trkpt lat="30.9044300" lon="35.1968500">
<ele>-70.269997</ele>
<time>2023-02-01T10:53:28.799Z</time>
</trkpt>
<trkpt lat="30.9044700" lon="35.1968600">
<ele>-70.279999</ele>
<time>2023-02-01T10:53:28.799Z</time>
</trkpt>
<trkpt lat="30.9045800" lon="35.1968600">
<ele>-70.199997</ele>
<time>2023-02-01T10:53:28.799Z</time>
</trkpt>
<trkpt lat="30.9046500" lon="35.1969500">
<ele>-70.790001</ele>
<time>2023-02-01T10:53:28.799Z</time>
</trkpt>
<trkpt lat="30.9047000" lon="35.1969900">
<ele>-71.269997</ele>
<time>2023-02-01T10:53:28.799Z</time>
</trkpt>
<trkpt lat="30.9049300" lon="35.1970800">
<ele>-71.959999</ele>
<time>2023-02-01T10:53:28.799Z</time>
</trkpt>
<trkpt lat="30.9050300" lon="35.1971000">
<ele>-72.230003</ele>
<time>2023-02-01T10:53:28.799Z</time>
</trkpt>
<trkpt lat="30.9050700" lon="35.1971300">
<ele>-72.590004</ele>
<time>2023-02-01T10:53:28.799Z</time>
</trkpt>
<trkpt lat="30.9051800" lon="35.1972800">
<ele>-73.559998</ele>
<time>2023-02-01T10:53:28.799Z</time>
</trkpt>
<trkpt lat="30.9052900" lon="35.1973300">
<ele>-73.230003</ele>
<time>2023-02-01T10:53:28.799Z</time>
</trkpt>
<trkpt lat="30.9054000" lon="35.1975700">
<ele>-72.540001</ele>
<time>2023-02-01T10:53:28.799Z</time>
</trkpt>
<trkpt lat="30.9055100" lon="35.1978800">
<ele>-70.709999</ele>
<time>2023-02-01T10:53:28.799Z</time>
</trkpt>
<trkpt lat="30.9055800" lon="35.1981300">
<ele>-67.979996</ele>
<time>2023-02-01T10:53:28.799Z</time>
</trkpt>
<trkpt lat="30.9056300" lon="35.1982800">
<ele>-65.620003</ele>
<time>2023-02-01T10:53:28.799Z</time>
</trkpt>
<trkpt lat="30.9057300" lon="35.1986500">
<ele>-61.980000</ele>
<time>2023-02-01T10:53:28.799Z</time>
</trkpt>
<trkpt lat="30.9057500" lon="35.1987800">
<ele>-61.509998</ele>
<time>2023-02-01T10:53:28.799Z</time>
</trkpt>
<trkpt lat="30.9057200" lon="35.1988200">
<ele>-63.060001</ele>
<time>2023-02-01T10:53:28.799Z</time>
</trkpt>
<trkpt lat="30.9056800" lon="35.1988500">
<ele>-65.040001</ele>
<time>2023-02-01T10:53:28.799Z</time>
</trkpt>
<trkpt lat="30.9056700" lon="35.1989000">
<ele>-65.669998</ele>
<time>2023-02-01T10:53:28.799Z</time>
</trkpt>
<trkpt lat="30.9057300" lon="35.1992800">
<ele>-63.210003</ele>
<time>2023-02-01T10:53:28.799Z</time>
</trkpt>
<trkpt lat="30.9057300" lon="35.1993400">
<ele>-63.210003</ele>
<time>2023-02-01T10:53:28.799Z</time>
</trkpt>
<trkpt lat="30.9056800" lon="35.1995100">
<ele>-65.939995</ele>
<time>2023-02-01T10:53:28.799Z</time>
</trkpt>
<trkpt lat="30.9056700" lon="35.1996300">
<ele>-66.779999</ele>
<time>2023-02-01T10:53:28.799Z</time>
</trkpt>
<trkpt lat="30.9057100" lon="35.1997400">
<ele>-65.389999</ele>
<time>2023-02-01T10:53:28.799Z</time>
</trkpt>
<trkpt lat="30.9057200" lon="35.1997700">
<ele>-65.070000</ele>
<time>2023-02-01T10:53:28.799Z</time>
</trkpt>
<trkpt lat="30.9057100" lon="35.1999200">
<ele>-66.040001</ele>
<time>2023-02-01T10:53:28.799Z</time>
</trkpt>
<trkpt lat="30.9056500" lon="35.2001100">
<ele>-67.860001</ele>
<time>2023-02-01T10:53:28.799Z</time>
</trkpt>
<trkpt lat="30.9056400" lon="35.2001400">
<ele>-68.040001</ele>
<time>2023-02-01T10:53:28.799Z</time>
</trkpt>
<trkpt lat="30.9055600" lon="35.2002900">
<ele>-70.510002</ele>
<time>2023-02-01T10:53:28.799Z</time>
</trkpt>
<trkpt lat="30.9054900" lon="35.2003700">
<ele>-70.739998</ele>
<time>2023-02-01T10:53:28.799Z</time>
</trkpt>
<trkpt lat="30.9053400" lon="35.2006200">
<ele>-71.729996</ele>
<time>2023-02-01T10:53:28.799Z</time>
</trkpt>
<trkpt lat="30.9053400" lon="35.2006700">
<ele>-70.930000</ele>
<time>2023-02-01T10:53:28.799Z</time>
</trkpt>
<trkpt lat="30.9053700" lon="35.2007300">
<ele>-68.750000</ele>
<time>2023-02-01T10:53:28.799Z</time>
</trkpt>
<trkpt lat="30.9053600" lon="35.2007800">
<ele>-68.330002</ele>
<time>2023-02-01T10:53:28.799Z</time>
</trkpt>
<trkpt lat="30.9053100" lon="35.2007900">
<ele>-70.269997</ele>
<time>2023-02-01T10:53:28.799Z</time>
</trkpt>
<trkpt lat="30.9052600" lon="35.2009000">
<ele>-69.970001</ele>
<time>2023-02-01T10:53:28.799Z</time>
</trkpt>
<trkpt lat="30.9052500" lon="35.2009700">
<ele>-68.750000</ele>
<time>2023-02-01T10:53:28.799Z</time>
</trkpt>
<trkpt lat="30.9052800" lon="35.2010300">
<ele>-66.639999</ele>
<time>2023-02-01T10:53:28.799Z</time>
</trkpt>
<trkpt lat="30.9054200" lon="35.2011200">
<ele>-57.670002</ele>
<time>2023-02-01T10:53:28.799Z</time>
</trkpt>
<trkpt lat="30.9054600" lon="35.2011700">
<ele>-54.820000</ele>
<time>2023-02-01T10:53:28.799Z</time>
</trkpt>
<trkpt lat="30.9054800" lon="35.2012300">
<ele>-52.860001</ele>
<time>2023-02-01T10:53:28.799Z</time>
</trkpt>
<trkpt lat="30.9054700" lon="35.2012900">
<ele>-52.340000</ele>
<time>2023-02-01T10:53:28.799Z</time>
</trkpt>
<trkpt lat="30.9053400" lon="35.2013900">
<ele>-56.310001</ele>
<time>2023-02-01T10:53:28.799Z</time>
</trkpt>
<trkpt lat="30.9052900" lon="35.2014700">
<ele>-58.190002</ele>
<time>2023-02-01T10:53:28.799Z</time>
</trkpt>
<trkpt lat="30.9052300" lon="35.2017200">
<ele>-60.180000</ele>
<time>2023-02-01T10:53:28.799Z</time>
</trkpt>
<trkpt lat="30.9052300" lon="35.2018000">
<ele>-60.599998</ele>
<time>2023-02-01T10:53:28.799Z</time>
</trkpt>
<trkpt lat="30.9053100" lon="35.2020600">
<ele>-59.190002</ele>
<time>2023-02-01T10:53:28.799Z</time>
</trkpt>
<trkpt lat="30.9053300" lon="35.2022200">
<ele>-59.110001</ele>
<time>2023-02-01T10:53:28.799Z</time>
</trkpt>
<trkpt lat="30.9053500" lon="35.2022800">
<ele>-58.249996</ele>
<time>2023-02-01T10:53:28.799Z</time>
</trkpt>
<trkpt lat="30.9054100" lon="35.2023700">
<ele>-56.440002</ele>
<time>2023-02-01T10:53:28.799Z</time>
</trkpt>
<trkpt lat="30.9054500" lon="35.2024600">
<ele>-55.739998</ele>
<time>2023-02-01T10:53:28.799Z</time>
</trkpt>
<trkpt lat="30.9054900" lon="35.2026800">
<ele>-56.480000</ele>
<time>2023-02-01T10:53:28.799Z</time>
</trkpt>
<trkpt lat="30.9055700" lon="35.2028500">
<ele>-55.670002</ele>
<time>2023-02-01T10:53:28.799Z</time>
</trkpt>
<trkpt lat="30.9059500" lon="35.2032100">
<ele>-55.110001</ele>
<time>2023-02-01T10:53:28.799Z</time>
</trkpt>
<trkpt lat="30.9061000" lon="35.2034500">
<ele>-57.389999</ele>
<time>2023-02-01T10:53:28.799Z</time>
</trkpt>
<trkpt lat="30.9061800" lon="35.2035400">
<ele>-57.430000</ele>
<time>2023-02-01T10:53:28.799Z</time>
</trkpt>
<trkpt lat="30.9062700" lon="35.2036100">
<ele>-57.420002</ele>
<time>2023-02-01T10:53:28.799Z</time>
</trkpt>
<trkpt lat="30.9065300" lon="35.2037400">
<ele>-58.660000</ele>
<time>2023-02-01T10:53:28.799Z</time>
</trkpt>
<trkpt lat="30.9067000" lon="35.2038100">
<ele>-58.720001</ele>
<time>2023-02-01T10:53:28.799Z</time>
</trkpt>
<trkpt lat="30.9069500" lon="35.2038700">
<ele>-58.970001</ele>
<time>2023-02-01T10:53:28.799Z</time>
</trkpt>
<trkpt lat="30.9073800" lon="35.2039300">
<ele>-62.620003</ele>
<time>2023-02-01T10:53:28.799Z</time>
</trkpt>
<trkpt lat="30.9079000" lon="35.2039700">
<ele>-62.579998</ele>
<time>2023-02-01T10:53:28.799Z</time>
</trkpt>
<trkpt lat="30.9081000" lon="35.2039600">
<ele>-59.250004</ele>
<time>2023-02-01T10:53:28.799Z</time>
</trkpt>
<trkpt lat="30.9082000" lon="35.2039600">
<ele>-58.070000</ele>
<time>2023-02-01T10:53:28.799Z</time>
</trkpt>
<trkpt lat="30.9083400" lon="35.2039200">
<ele>-56.320000</ele>
<time>2023-02-01T10:53:28.799Z</time>
</trkpt>
<trkpt lat="30.9085900" lon="35.2037900">
<ele>-59.420002</ele>
<time>2023-02-01T10:53:28.799Z</time>
</trkpt>
<trkpt lat="30.9087700" lon="35.2037400">
<ele>-61.139999</ele>
<time>2023-02-01T10:53:28.799Z</time>
</trkpt>
<trkpt lat="30.9089200" lon="35.2036700">
<ele>-61.799999</ele>
<time>2023-02-01T10:53:28.799Z</time>
</trkpt>
<trkpt lat="30.9091100" lon="35.2036800">
<ele>-63.129997</ele>
<time>2023-02-01T10:53:28.799Z</time>
</trkpt>
<trkpt lat="30.9094400" lon="35.2036600">
<ele>-57.670002</ele>
<time>2023-02-01T10:53:28.799Z</time>
</trkpt>
<trkpt lat="30.9099000" lon="35.2036700">
<ele>-60.820000</ele>
<time>2023-02-01T10:53:28.799Z</time>
</trkpt>
<trkpt lat="30.9100500" lon="35.2036300">
<ele>-62.830002</ele>
<time>2023-02-01T10:53:28.799Z</time>
</trkpt>
<trkpt lat="30.9102200" lon="35.2036100">
<ele>-66.519997</ele>
<time>2023-02-01T10:53:28.799Z</time>
</trkpt>
<trkpt lat="30.9104700" lon="35.2035000">
<ele>-70.029999</ele>
<time>2023-02-01T10:53:28.799Z</time>
</trkpt>
<trkpt lat="30.9105500" lon="35.2035000">
<ele>-71.870003</ele>
<time>2023-02-01T10:53:28.799Z</time>
</trkpt>
<trkpt lat="30.9107500" lon="35.2035400">
<ele>-76.040001</ele>
<time>2023-02-01T10:53:28.799Z</time>
</trkpt>
<trkpt lat="30.9111200" lon="35.2035100">
<ele>-79.849998</ele>
<time>2023-02-01T10:53:28.799Z</time>
</trkpt>
<trkpt lat="30.9112300" lon="35.2034600">
<ele>-80.779999</ele>
<time>2023-02-01T10:53:28.799Z</time>
</trkpt>
<trkpt lat="30.9113900" lon="35.2033100">
<ele>-81.110001</ele>
<time>2023-02-01T10:53:28.799Z</time>
</trkpt>
<trkpt lat="30.9116700" lon="35.2031100">
<ele>-84.709999</ele>
<time>2023-02-01T10:53:28.799Z</time>
</trkpt>
<trkpt lat="30.9117800" lon="35.2030900">
<ele>-88.889999</ele>
<time>2023-02-01T10:53:28.799Z</time>
</trkpt>
<trkpt lat="30.9119000" lon="35.2031100">
<ele>-94.169998</ele>
<time>2023-02-01T10:53:28.799Z</time>
</trkpt>
<trkpt lat="30.9121600" lon="35.2030200">
<ele>-99.010002</ele>
<time>2023-02-01T10:53:28.799Z</time>
</trkpt>
<trkpt lat="30.9123100" lon="35.2028600">
<ele>-93.540001</ele>
<time>2023-02-01T10:53:28.799Z</time>
</trkpt>
<trkpt lat="30.9123500" lon="35.2028000">
<ele>-90.879997</ele>
<time>2023-02-01T10:53:28.799Z</time>
</trkpt>
<trkpt lat="30.9123600" lon="35.2027300">
<ele>-88.389999</ele>
<time>2023-02-01T10:53:28.799Z</time>
</trkpt>
<trkpt lat="30.9124100" lon="35.2027000">
<ele>-86.380005</ele>
<time>2023-02-01T10:53:28.799Z</time>
</trkpt>
<trkpt lat="30.9125500" lon="35.2027000">
<ele>-85.300003</ele>
<time>2023-02-01T10:53:28.799Z</time>
</trkpt>
<trkpt lat="30.9126200" lon="35.2026800">
<ele>-85.790001</ele>
<time>2023-02-01T10:53:28.799Z</time>
</trkpt>
<trkpt lat="30.9128600" lon="35.2024600">
<ele>-85.070000</ele>
<time>2023-02-01T10:53:28.799Z</time>
</trkpt>
<trkpt lat="30.9130100" lon="35.2023300">
<ele>-87.470001</ele>
<time>2023-02-01T10:53:28.799Z</time>
</trkpt>
<trkpt lat="30.9131700" lon="35.2021900">
<ele>-88.389999</ele>
<time>2023-02-01T10:53:28.799Z</time>
</trkpt>
<trkpt lat="30.9134400" lon="35.2020000">
<ele>-89.430000</ele>
<time>2023-02-01T10:53:28.799Z</time>
</trkpt>
<trkpt lat="30.9135800" lon="35.2019400">
<ele>-90.129997</ele>
<time>2023-02-01T10:53:28.799Z</time>
</trkpt>
<trkpt lat="30.9137700" lon="35.2019200">
<ele>-94.699997</ele>
<time>2023-02-01T10:53:28.799Z</time>
</trkpt>
<trkpt lat="30.9138500" lon="35.2019000">
<ele>-95.830002</ele>
<time>2023-02-01T10:53:28.799Z</time>
</trkpt>
<trkpt lat="30.9140400" lon="35.2017700">
<ele>-86.309998</ele>
<time>2023-02-01T10:53:28.799Z</time>
</trkpt>
<trkpt lat="30.9142600" lon="35.2015700">
<ele>-82.440002</ele>
<time>2023-02-01T10:53:28.799Z</time>
</trkpt>
<trkpt lat="30.9145200" lon="35.2013800">
<ele>-88.149994</ele>
<time>2023-02-01T10:53:28.799Z</time>
</trkpt>
<trkpt lat="30.9146300" lon="35.2012800">
<ele>-91.209999</ele>
<time>2023-02-01T10:53:28.799Z</time>
</trkpt>
<trkpt lat="30.9147200" lon="35.2011200">
<ele>-93.930000</ele>
<time>2023-02-01T10:53:28.799Z</time>
</trkpt>
<trkpt lat="30.9148300" lon="35.2006900">
<ele>-91.949997</ele>
<time>2023-02-01T10:53:28.799Z</time>
</trkpt>
<trkpt lat="30.9150100" lon="35.2004900">
<ele>-92.959999</ele>
<time>2023-02-01T10:53:28.799Z</time>
</trkpt>
<trkpt lat="30.9151700" lon="35.2003300">
<ele>-91.889999</ele>
<time>2023-02-01T10:53:28.799Z</time>
</trkpt>
<trkpt lat="30.9155700" lon="35.2000300">
<ele>-94.790001</ele>
<time>2023-02-01T10:53:28.799Z</time>
</trkpt>
<trkpt lat="30.9156700" lon="35.2000400">
<ele>-95.980003</ele>
<time>2023-02-01T10:53:28.799Z</time>
</trkpt>
<trkpt lat="30.9157600" lon="35.2000900">
<ele>-97.680000</ele>
<time>2023-02-01T10:53:28.799Z</time>
</trkpt>
<trkpt lat="30.9158100" lon="35.2000900">
<ele>-98.100006</ele>
<time>2023-02-01T10:53:28.799Z</time>
</trkpt>
<trkpt lat="30.9159300" lon="35.2000000">
<ele>-98.390007</ele>
<time>2023-02-01T10:53:28.799Z</time>
</trkpt>
<trkpt lat="30.9161100" lon="35.1998500">
<ele>-99.360001</ele>
<time>2023-02-01T10:53:28.799Z</time>
</trkpt>
<trkpt lat="30.9162300" lon="35.1996200">
<ele>-97.080002</ele>
<time>2023-02-01T10:53:28.799Z</time>
</trkpt>
<trkpt lat="30.9162700" lon="35.1995100">
<ele>-95.129997</ele>
<time>2023-02-01T10:53:28.799Z</time>
</trkpt>
<trkpt lat="30.9163100" lon="35.1994600">
<ele>-94.480003</ele>
<time>2023-02-01T10:53:28.799Z</time>
</trkpt>
<trkpt lat="30.9164800" lon="35.1993600">
<ele>-95.070000</ele>
<time>2023-02-01T10:53:28.799Z</time>
</trkpt>
<trkpt lat="30.9167100" lon="35.1991900">
<ele>-94.169998</ele>
<time>2023-02-01T10:53:28.799Z</time>
</trkpt>
<trkpt lat="30.9168200" lon="35.1991100">
<ele>-95.609993</ele>
<time>2023-02-01T10:53:28.799Z</time>
</trkpt>
<trkpt lat="30.9168800" lon="35.1990900">
<ele>-96.900002</ele>
<time>2023-02-01T10:53:28.799Z</time>
</trkpt>
<trkpt lat="30.9170100" lon="35.1991000">
<ele>-99.959999</ele>
<time>2023-02-01T10:53:28.799Z</time>
</trkpt>
<trkpt lat="30.9171500" lon="35.1990100">
<ele>-99.959999</ele>
<time>2023-02-01T10:53:28.799Z</time>
</trkpt>
<trkpt lat="30.9172100" lon="35.1990100">
<ele>-100.970001</ele>
<time>2023-02-01T10:53:28.799Z</time>
</trkpt>
<trkpt lat="30.9173100" lon="35.1990600">
<ele>-103.000000</ele>
<time>2023-02-01T10:53:28.799Z</time>
</trkpt>
<trkpt lat="30.9175000" lon="35.1990000">
<ele>-105.000000</ele>
<time>2023-02-01T10:53:28.799Z</time>
</trkpt>
<trkpt lat="30.9175600" lon="35.1989500">
<ele>-105.379997</ele>
<time>2023-02-01T10:53:28.799Z</time>
</trkpt>
<trkpt lat="30.9175900" lon="35.1989000">
<ele>-105.639999</ele>
<time>2023-02-01T10:53:28.799Z</time>
</trkpt>
<trkpt lat="30.9176500" lon="35.1987700">
<ele>-105.330002</ele>
<time>2023-02-01T10:53:28.799Z</time>
</trkpt>
<trkpt lat="30.9178900" lon="35.1984900">
<ele>-105.620003</ele>
<time>2023-02-01T10:53:28.799Z</time>
</trkpt>
<trkpt lat="30.9179500" lon="35.1984800">
<ele>-106.010002</ele>
<time>2023-02-01T10:53:28.799Z</time>
</trkpt>
<trkpt lat="30.9182600" lon="35.1985800">
<ele>-109.860001</ele>
<time>2023-02-01T10:53:28.799Z</time>
</trkpt>
<trkpt lat="30.9184000" lon="35.1985800">
<ele>-111.159996</ele>
<time>2023-02-01T10:53:28.799Z</time>
</trkpt>
<trkpt lat="30.9185200" lon="35.1985300">
<ele>-112.049995</ele>
<time>2023-02-01T10:53:28.799Z</time>
</trkpt>
<trkpt lat="30.9188100" lon="35.1984700">
<ele>-112.979996</ele>
<time>2023-02-01T10:53:28.799Z</time>
</trkpt>
<trkpt lat="30.9190500" lon="35.1983800">
<ele>-111.279999</ele>
<time>2023-02-01T10:53:28.799Z</time>
</trkpt>
<trkpt lat="30.9194500" lon="35.1983900">
<ele>-110.529999</ele>
<time>2023-02-01T10:53:28.799Z</time>
</trkpt>
<trkpt lat="30.9195900" lon="35.1983600">
<ele>-108.140007</ele>
<time>2023-02-01T10:53:28.799Z</time>
</trkpt>
<trkpt lat="30.9198100" lon="35.1982800">
<ele>-105.440002</ele>
<time>2023-02-01T10:53:28.799Z</time>
</trkpt>
<trkpt lat="30.9201400" lon="35.1982100">
<ele>-102.220001</ele>
<time>2023-02-01T10:53:28.799Z</time>
</trkpt>
<trkpt lat="30.9202800" lon="35.1982100">
<ele>-101.220001</ele>
<time>2023-02-01T10:53:28.799Z</time>
</trkpt>
<trkpt lat="30.9210700" lon="35.1983800">
<ele>-105.150002</ele>
<time>2023-02-01T10:53:28.799Z</time>
</trkpt>
<trkpt lat="30.9211100" lon="35.1984100">
<ele>-106.089996</ele>
<time>2023-02-01T10:53:28.799Z</time>
</trkpt>
<trkpt lat="30.9212500" lon="35.1985500">
<ele>-106.839996</ele>
<time>2023-02-01T10:53:28.799Z</time>
</trkpt>
<trkpt lat="30.9213000" lon="35.1985900">
<ele>-106.760002</ele>
<time>2023-02-01T10:53:28.799Z</time>
</trkpt>
<trkpt lat="30.9214500" lon="35.1986700">
<ele>-105.659996</ele>
<time>2023-02-01T10:53:28.799Z</time>
</trkpt>
<trkpt lat="30.9216400" lon="35.1987300">
<ele>-104.889999</ele>
<time>2023-02-01T10:53:28.799Z</time>
</trkpt>
<trkpt lat="30.9219900" lon="35.1989600">
<ele>-100.029999</ele>
<time>2023-02-01T10:53:28.799Z</time>
</trkpt>
<trkpt lat="30.9221300" lon="35.1990900">
<ele>-98.530006</ele>
<time>2023-02-01T10:53:28.799Z</time>
</trkpt>
<trkpt lat="30.9222500" lon="35.1992100">
<ele>-97.729996</ele>
<time>2023-02-01T10:53:28.799Z</time>
</trkpt>
<trkpt lat="30.9223600" lon="35.1993500">
<ele>-98.820000</ele>
<time>2023-02-01T10:53:28.799Z</time>
</trkpt>
<trkpt lat="30.9226100" lon="35.1996100">
<ele>-102.019997</ele>
<time>2023-02-01T10:53:28.799Z</time>
</trkpt>
<trkpt lat="30.9227900" lon="35.1999500">
<ele>-102.840004</ele>
<time>2023-02-01T10:53:28.799Z</time>
</trkpt>
<trkpt lat="30.9230800" lon="35.2006000">
<ele>-107.329994</ele>
<time>2023-02-01T10:53:28.799Z</time>
</trkpt>
<trkpt lat="30.9231600" lon="35.2007200">
<ele>-108.409996</ele>
<time>2023-02-01T10:53:28.799Z</time>
</trkpt>
<trkpt lat="30.9233000" lon="35.2008800">
<ele>-109.949997</ele>
<time>2023-02-01T10:53:28.799Z</time>
</trkpt>
<trkpt lat="30.9235800" lon="35.2011300">
<ele>-110.239998</ele>
<time>2023-02-01T10:53:28.799Z</time>
</trkpt>
<trkpt lat="30.9236300" lon="35.2011300">
<ele>-110.059998</ele>
<time>2023-02-01T10:53:28.799Z</time>
</trkpt>
<trkpt lat="30.9236900" lon="35.2010900">
<ele>-109.510002</ele>
<time>2023-02-01T10:53:28.799Z</time>
</trkpt>
<trkpt lat="30.9237500" lon="35.2009800">
<ele>-108.320000</ele>
<time>2023-02-01T10:53:28.799Z</time>
</trkpt>
<trkpt lat="30.9238000" lon="35.2009400">
<ele>-107.889999</ele>
<time>2023-02-01T10:53:28.799Z</time>
</trkpt>
<trkpt lat="30.9238500" lon="35.2009400">
<ele>-107.819992</ele>
<time>2023-02-01T10:53:28.799Z</time>
</trkpt>
<trkpt lat="30.9239100" lon="35.2009800">
<ele>-108.020004</ele>
<time>2023-02-01T10:53:28.799Z</time>
</trkpt>
<trkpt lat="30.9241000" lon="35.2011600">
<ele>-108.910004</ele>
<time>2023-02-01T10:53:28.799Z</time>
</trkpt>
<trkpt lat="30.9241700" lon="35.2012900">
<ele>-108.360001</ele>
<time>2023-02-01T10:53:28.799Z</time>
</trkpt>
<trkpt lat="30.9243000" lon="35.2013400">
<ele>-108.489998</ele>
<time>2023-02-01T10:53:28.799Z</time>
</trkpt>
<trkpt lat="30.9251900" lon="35.2026000">
<ele>-110.280006</ele>
<time>2023-02-01T10:53:28.799Z</time>
</trkpt>
<trkpt lat="30.9257300" lon="35.2032300">
<ele>-108.389999</ele>
<time>2023-02-01T10:53:28.799Z</time>
</trkpt>
<trkpt lat="30.9259700" lon="35.2038000">
<ele>-108.989998</ele>
<time>2023-02-01T10:53:28.799Z</time>
</trkpt>
<trkpt lat="30.9264400" lon="35.2043200">
<ele>-109.840004</ele>
<time>2023-02-01T10:53:28.799Z</time>
</trkpt>
<trkpt lat="30.9265800" lon="35.2046500">
<ele>-112.300003</ele>
<time>2023-02-01T10:53:28.799Z</time>
</trkpt>
<trkpt lat="30.9265900" lon="35.2046700">
<ele>-112.489998</ele>
<time>2023-02-01T10:53:28.799Z</time>
</trkpt>
<trkpt lat="30.9267300" lon="35.2051100">
<ele>-116.769997</ele>
<time>2023-02-01T10:53:28.799Z</time>
</trkpt>
<trkpt lat="30.9269100" lon="35.2051600">
<ele>-116.120003</ele>
<time>2023-02-01T10:53:28.799Z</time>
</trkpt>
<trkpt lat="30.9269700" lon="35.2057300">
<ele>-113.680000</ele>
<time>2023-02-01T10:53:28.799Z</time>
</trkpt>
<trkpt lat="30.9270900" lon="35.2060400">
<ele>-112.650002</ele>
<time>2023-02-01T10:53:28.799Z</time>
</trkpt>
<trkpt lat="30.9272400" lon="35.2062200">
<ele>-112.989998</ele>
<time>2023-02-01T10:53:28.799Z</time>
</trkpt>
<trkpt lat="30.9275100" lon="35.2067000">
<ele>-114.779999</ele>
<time>2023-02-01T10:53:28.799Z</time>
</trkpt>
<trkpt lat="30.9275500" lon="35.2069400">
<ele>-113.739998</ele>
<time>2023-02-01T10:53:28.799Z</time>
</trkpt>
<trkpt lat="30.9275200" lon="35.2073700">
<ele>-112.430000</ele>
<time>2023-02-01T10:53:28.799Z</time>
</trkpt>
<trkpt lat="30.9273500" lon="35.2073700">
<ele>-115.129997</ele>
<time>2023-02-01T10:53:28.799Z</time>
</trkpt>
<trkpt lat="30.9273300" lon="35.2074400">
<ele>-115.229996</ele>
<time>2023-02-01T10:53:28.799Z</time>
</trkpt>
<trkpt lat="30.9273300" lon="35.2075500">
<ele>-114.739998</ele>
<time>2023-02-01T10:53:28.799Z</time>
</trkpt>
<trkpt lat="30.9274500" lon="35.2079000">
<ele>-110.259995</ele>
<time>2023-02-01T10:53:28.799Z</time>
</trkpt>
<trkpt lat="30.9273500" lon="35.2082100">
<ele>-111.970001</ele>
<time>2023-02-01T10:53:28.799Z</time>
</trkpt>
<trkpt lat="30.9271300" lon="35.2085300">
<ele>-113.020004</ele>
<time>2023-02-01T10:53:28.799Z</time>
</trkpt>
<trkpt lat="30.9265100" lon="35.2090800">
<ele>-113.330002</ele>
<time>2023-02-01T10:53:28.799Z</time>
</trkpt>
<trkpt lat="30.9263600" lon="35.2092300">
<ele>-114.390007</ele>
<time>2023-02-01T10:53:28.799Z</time>
</trkpt>
<trkpt lat="30.9259300" lon="35.2098600">
<ele>-122.559998</ele>
<time>2023-02-01T10:53:28.799Z</time>
</trkpt>
<trkpt lat="30.9258300" lon="35.2100100">
<ele>-121.930000</ele>
<time>2023-02-01T10:53:28.799Z</time>
</trkpt>
<trkpt lat="30.9257200" lon="35.2100400">
<ele>-121.829994</ele>
<time>2023-02-01T10:53:28.799Z</time>
</trkpt>
<trkpt lat="30.9257000" lon="35.2100500">
<ele>-121.809998</ele>
<time>2023-02-01T10:53:28.799Z</time>
</trkpt>
<trkpt lat="30.9256700" lon="35.2101000">
<ele>-121.700005</ele>
<time>2023-02-01T10:53:28.799Z</time>
</trkpt>
<trkpt lat="30.9256000" lon="35.2101100">
<ele>-121.870003</ele>
<time>2023-02-01T10:53:28.799Z</time>
</trkpt>
<trkpt lat="30.9255300" lon="35.2101400">
<ele>-122.230003</ele>
<time>2023-02-01T10:53:28.799Z</time>
</trkpt>
<trkpt lat="30.9254900" lon="35.2102000">
<ele>-122.749992</ele>
<time>2023-02-01T10:53:28.799Z</time>
</trkpt>
<trkpt lat="30.9254600" lon="35.2102100">
<ele>-123.120003</ele>
<time>2023-02-01T10:53:28.799Z</time>
</trkpt>
<trkpt lat="30.9253900" lon="35.2101900">
<ele>-123.819992</ele>
<time>2023-02-01T10:53:28.799Z</time>
</trkpt>
<trkpt lat="30.9253000" lon="35.2101400">
<ele>-124.310005</ele>
<time>2023-02-01T10:53:28.799Z</time>
</trkpt>
<trkpt lat="30.9253900" lon="35.2101900">
<ele>-123.819992</ele>
<time>2023-02-01T10:53:28.799Z</time>
</trkpt>
<trkpt lat="30.9254600" lon="35.2102100">
<ele>-123.120003</ele>
<time>2023-02-01T10:53:28.799Z</time>
</trkpt>
<trkpt lat="30.9254900" lon="35.2102000">
<ele>-122.749992</ele>
<time>2023-02-01T10:53:28.799Z</time>
</trkpt>
<trkpt lat="30.9255300" lon="35.2101400">
<ele>-122.230003</ele>
<time>2023-02-01T10:53:28.799Z</time>
</trkpt>
<trkpt lat="30.9256000" lon="35.2101100">
<ele>-121.870003</ele>
<time>2023-02-01T10:53:28.799Z</time>
</trkpt>
<trkpt lat="30.9256700" lon="35.2101000">
<ele>-121.700005</ele>
<time>2023-02-01T10:53:28.799Z</time>
</trkpt>
<trkpt lat="30.9257000" lon="35.2100500">
<ele>-121.809998</ele>
<time>2023-02-01T10:53:28.799Z</time>
</trkpt>
<trkpt lat="30.9257200" lon="35.2100400">
<ele>-121.829994</ele>
<time>2023-02-01T10:53:28.799Z</time>
</trkpt>
<trkpt lat="30.9258300" lon="35.2100100">
<ele>-121.930000</ele>
<time>2023-02-01T10:53:28.799Z</time>
</trkpt>
<trkpt lat="30.9259100" lon="35.2100300">
<ele>-122.430000</ele>
<time>2023-02-01T10:53:28.799Z</time>
</trkpt>
<trkpt lat="30.9259500" lon="35.2099900">
<ele>-123.230003</ele>
<time>2023-02-01T10:53:28.799Z</time>
</trkpt>
<trkpt lat="30.9259800" lon="35.2099300">
<ele>-123.479996</ele>
<time>2023-02-01T10:53:28.799Z</time>
</trkpt>
<trkpt lat="30.9260000" lon="35.2098900">
<ele>-123.720001</ele>
<time>2023-02-01T10:53:28.799Z</time>
</trkpt>
<trkpt lat="30.9261500" lon="35.2097100">
<ele>-124.170006</ele>
<time>2023-02-01T10:53:28.799Z</time>
</trkpt>
<trkpt lat="30.9261600" lon="35.2096700">
<ele>-123.300003</ele>
<time>2023-02-01T10:53:28.799Z</time>
</trkpt>
<trkpt lat="30.9262800" lon="35.2095800">
<ele>-118.210007</ele>
<time>2023-02-01T10:53:28.799Z</time>
</trkpt>
<trkpt lat="30.9263200" lon="35.2095500">
<ele>-116.830002</ele>
<time>2023-02-01T10:53:28.799Z</time>
</trkpt>
<trkpt lat="30.9263200" lon="35.2095100">
<ele>-116.789993</ele>
<time>2023-02-01T10:53:28.799Z</time>
</trkpt>
<trkpt lat="30.9264100" lon="35.2094400">
<ele>-114.380005</ele>
<time>2023-02-01T10:53:28.799Z</time>
</trkpt>
<trkpt lat="30.9264400" lon="35.2092400">
<ele>-113.330002</ele>
<time>2023-02-01T10:53:28.799Z</time>
</trkpt>
<trkpt lat="30.9265100" lon="35.2091300">
<ele>-112.710007</ele>
<time>2023-02-01T10:53:28.799Z</time>
</trkpt>
<trkpt lat="30.9265100" lon="35.2090800">
<ele>-113.330002</ele>
<time>2023-02-01T10:53:28.799Z</time>
</trkpt>
<trkpt lat="30.9271300" lon="35.2085300">
<ele>-113.020004</ele>
<time>2023-02-01T10:53:28.799Z</time>
</trkpt>
<trkpt lat="30.9273500" lon="35.2082100">
<ele>-111.970001</ele>
<time>2023-02-01T10:53:28.799Z</time>
</trkpt>
<trkpt lat="30.9274500" lon="35.2079000">
<ele>-110.259995</ele>
<time>2023-02-01T10:53:28.799Z</time>
</trkpt>
<trkpt lat="30.9273300" lon="35.2075500">
<ele>-114.739998</ele>
<time>2023-02-01T10:53:28.799Z</time>
</trkpt>
<trkpt lat="30.9273300" lon="35.2074400">
<ele>-115.229996</ele>
<time>2023-02-01T10:53:28.799Z</time>
</trkpt>
<trkpt lat="30.9273500" lon="35.2073700">
<ele>-115.129997</ele>
<time>2023-02-01T10:53:28.799Z</time>
</trkpt>
<trkpt lat="30.9275200" lon="35.2073700">
<ele>-112.430000</ele>
<time>2023-02-01T10:53:28.799Z</time>
</trkpt>
<trkpt lat="30.9275500" lon="35.2069400">
<ele>-113.739998</ele>
<time>2023-02-01T10:53:28.799Z</time>
</trkpt>
<trkpt lat="30.9275100" lon="35.2067000">
<ele>-114.779999</ele>
<time>2023-02-01T10:53:28.799Z</time>
</trkpt>
<trkpt lat="30.9272400" lon="35.2062200">
<ele>-112.989998</ele>
<time>2023-02-01T10:53:28.799Z</time>
</trkpt>
<trkpt lat="30.9270900" lon="35.2060400">
<ele>-112.650002</ele>
<time>2023-02-01T10:53:28.799Z</time>
</trkpt>
<trkpt lat="30.9269700" lon="35.2057300">
<ele>-113.680000</ele>
<time>2023-02-01T10:53:28.799Z</time>
</trkpt>
<trkpt lat="30.9269100" lon="35.2051600">
<ele>-116.120003</ele>
<time>2023-02-01T10:53:28.799Z</time>
</trkpt>
<trkpt lat="30.9269800" lon="35.2051800">
<ele>-115.699997</ele>
<time>2023-02-01T10:53:28.799Z</time>
</trkpt>
<trkpt lat="30.9270600" lon="35.2051100">
<ele>-114.919998</ele>
<time>2023-02-01T10:53:28.799Z</time>
</trkpt>
<trkpt lat="30.9271100" lon="35.2051300">
<ele>-114.489998</ele>
<time>2023-02-01T10:53:28.799Z</time>
</trkpt>
<trkpt lat="30.9271600" lon="35.2051200">
<ele>-114.010002</ele>
<time>2023-02-01T10:53:28.799Z</time>
</trkpt>
<trkpt lat="30.9272000" lon="35.2051000">
<ele>-113.570000</ele>
<time>2023-02-01T10:53:28.799Z</time>
</trkpt>
<trkpt lat="30.9272300" lon="35.2050500">
<ele>-113.099998</ele>
<time>2023-02-01T10:53:28.799Z</time>
</trkpt>
<trkpt lat="30.9272700" lon="35.2050000">
<ele>-112.479996</ele>
<time>2023-02-01T10:53:28.799Z</time>
</trkpt>
<trkpt lat="30.9273300" lon="35.2050100">
<ele>-111.889999</ele>
<time>2023-02-01T10:53:28.799Z</time>
</trkpt>
<trkpt lat="30.9273600" lon="35.2050500">
<ele>-111.779999</ele>
<time>2023-02-01T10:53:28.799Z</time>
</trkpt>
<trkpt lat="30.9273700" lon="35.2051700">
<ele>-112.339996</ele>
<time>2023-02-01T10:53:28.799Z</time>
</trkpt>
<trkpt lat="30.9274000" lon="35.2052300">
<ele>-112.440002</ele>
<time>2023-02-01T10:53:28.799Z</time>
</trkpt>
<trkpt lat="30.9276000" lon="35.2053600">
<ele>-110.220001</ele>
<time>2023-02-01T10:53:28.799Z</time>
</trkpt>
<trkpt lat="30.9277700" lon="35.2054400">
<ele>-108.259995</ele>
<time>2023-02-01T10:53:28.799Z</time>
</trkpt>
<trkpt lat="30.9278400" lon="35.2054900">
<ele>-107.580002</ele>
<time>2023-02-01T10:53:28.799Z</time>
</trkpt>
<trkpt lat="30.9278800" lon="35.2055500">
<ele>-107.479996</ele>
<time>2023-02-01T10:53:28.799Z</time>
</trkpt>
<trkpt lat="30.9279000" lon="35.2056100">
<ele>-107.300003</ele>
<time>2023-02-01T10:53:28.799Z</time>
</trkpt>
<trkpt lat="30.9279200" lon="35.2057000">
<ele>-107.230003</ele>
<time>2023-02-01T10:53:28.799Z</time>
</trkpt>
<trkpt lat="30.9279700" lon="35.2059400">
<ele>-107.690002</ele>
<time>2023-02-01T10:53:28.799Z</time>
</trkpt>
<trkpt lat="30.9280200" lon="35.2063200">
<ele>-107.570000</ele>
<time>2023-02-01T10:53:28.799Z</time>
</trkpt>
<trkpt lat="30.9280700" lon="35.2064100">
<ele>-106.540001</ele>
<time>2023-02-01T10:53:28.799Z</time>
</trkpt>
<trkpt lat="30.9281400" lon="35.2064800">
<ele>-104.680000</ele>
<time>2023-02-01T10:53:28.799Z</time>
</trkpt>
<trkpt lat="30.9283200" lon="35.2065700">
<ele>-100.919998</ele>
<time>2023-02-01T10:53:28.799Z</time>
</trkpt>
<trkpt lat="30.9283800" lon="35.2065800">
<ele>-99.770004</ele>
<time>2023-02-01T10:53:28.799Z</time>
</trkpt>
<trkpt lat="30.9284300" lon="35.2065600">
<ele>-99.310005</ele>
<time>2023-02-01T10:53:28.799Z</time>
</trkpt>
<trkpt lat="30.9284700" lon="35.2065300">
<ele>-99.239998</ele>
<time>2023-02-01T10:53:28.799Z</time>
</trkpt>
<trkpt lat="30.9285200" lon="35.2065500">
<ele>-98.019997</ele>
<time>2023-02-01T10:53:28.799Z</time>
</trkpt>
<trkpt lat="30.9285400" lon="35.2066100">
<ele>-96.450005</ele>
<time>2023-02-01T10:53:28.799Z</time>
</trkpt>
<trkpt lat="30.9285400" lon="35.2069000">
<ele>-92.979996</ele>
<time>2023-02-01T10:53:28.799Z</time>
</trkpt>
<trkpt lat="30.9284600" lon="35.2072300">
<ele>-91.830002</ele>
<time>2023-02-01T10:53:28.799Z</time>
</trkpt>
<trkpt lat="30.9285300" lon="35.2074200">
<ele>-87.699997</ele>
<time>2023-02-01T10:53:28.799Z</time>
</trkpt>
<trkpt lat="30.9286000" lon="35.2077000">
<ele>-84.980003</ele>
<time>2023-02-01T10:53:28.799Z</time>
</trkpt>
<trkpt lat="30.9286200" lon="35.2080300">
<ele>-79.899994</ele>
<time>2023-02-01T10:53:28.799Z</time>
</trkpt>
<trkpt lat="30.9286000" lon="35.2081500">
<ele>-76.589996</ele>
<time>2023-02-01T10:53:28.799Z</time>
</trkpt>
<trkpt lat="30.9285700" lon="35.2082000">
<ele>-75.459999</ele>
<time>2023-02-01T10:53:28.799Z</time>
</trkpt>
<trkpt lat="30.9283900" lon="35.2083600">
<ele>-73.570000</ele>
<time>2023-02-01T10:53:28.799Z</time>
</trkpt>
<trkpt lat="30.9278600" lon="35.2087000">
<ele>-86.410004</ele>
<time>2023-02-01T10:53:28.799Z</time>
</trkpt>
<trkpt lat="30.9278200" lon="35.2087500">
<ele>-86.750000</ele>
<time>2023-02-01T10:53:28.799Z</time>
</trkpt>
<trkpt lat="30.9277700" lon="35.2088800">
<ele>-85.500000</ele>
<time>2023-02-01T10:53:28.799Z</time>
</trkpt>
<trkpt lat="30.9276000" lon="35.2091000">
<ele>-85.320000</ele>
<time>2023-02-01T10:53:28.799Z</time>
</trkpt>
<trkpt lat="30.9274400" lon="35.2092200">
<ele>-88.419998</ele>
<time>2023-02-01T10:53:28.799Z</time>
</trkpt>
<trkpt lat="30.9273700" lon="35.2093000">
<ele>-89.500000</ele>
<time>2023-02-01T10:53:28.799Z</time>
</trkpt>
<trkpt lat="30.9272600" lon="35.2093200">
<ele>-93.889999</ele>
<time>2023-02-01T10:53:28.799Z</time>
</trkpt>
<trkpt lat="30.9271400" lon="35.2093700">
<ele>-96.839996</ele>
<time>2023-02-01T10:53:28.799Z</time>
</trkpt>
<trkpt lat="30.9271000" lon="35.2094100">
<ele>-97.449997</ele>
<time>2023-02-01T10:53:28.799Z</time>
</trkpt>
<trkpt lat="30.9270800" lon="35.2094900">
<ele>-96.400002</ele>
<time>2023-02-01T10:53:28.799Z</time>
</trkpt>
<trkpt lat="30.9270600" lon="35.2096000">
<ele>-94.180000</ele>
<time>2023-02-01T10:53:28.799Z</time>
</trkpt>
<trkpt lat="30.9270400" lon="35.2097900">
<ele>-90.190002</ele>
<time>2023-02-01T10:53:28.799Z</time>
</trkpt>
<trkpt lat="30.9270600" lon="35.2098400">
<ele>-88.579994</ele>
<time>2023-02-01T10:53:28.799Z</time>
</trkpt>
<trkpt lat="30.9271100" lon="35.2098700">
<ele>-86.580002</ele>
<time>2023-02-01T10:53:28.799Z</time>
</trkpt>
<trkpt lat="30.9271600" lon="35.2098800">
<ele>-85.029999</ele>
<time>2023-02-01T10:53:28.799Z</time>
</trkpt>
<trkpt lat="30.9273900" lon="35.2098900">
<ele>-78.120003</ele>
<time>2023-02-01T10:53:28.799Z</time>
</trkpt>
<trkpt lat="30.9274300" lon="35.2099400">
<ele>-76.500000</ele>
<time>2023-02-01T10:53:28.799Z</time>
</trkpt>
<trkpt lat="30.9274300" lon="35.2100600">
<ele>-76.010002</ele>
<time>2023-02-01T10:53:28.799Z</time>
</trkpt>
<trkpt lat="30.9274900" lon="35.2104000">
<ele>-76.010002</ele>
<time>2023-02-01T10:53:28.799Z</time>
</trkpt>
<trkpt lat="30.9275300" lon="35.2106000">
<ele>-77.800003</ele>
<time>2023-02-01T10:53:28.799Z</time>
</trkpt>
<trkpt lat="30.9276000" lon="35.2112200">
<ele>-84.750000</ele>
<time>2023-02-01T10:53:28.799Z</time>
</trkpt>
<trkpt lat="30.9276100" lon="35.2113000">
<ele>-85.559998</ele>
<time>2023-02-01T10:53:28.799Z</time>
</trkpt>
<trkpt lat="30.9276600" lon="35.2114200">
<ele>-86.739998</ele>
<time>2023-02-01T10:53:28.799Z</time>
</trkpt>
<trkpt lat="30.9276700" lon="35.2116000">
<ele>-87.669998</ele>
<time>2023-02-01T10:53:28.799Z</time>
</trkpt>
<trkpt lat="30.9277200" lon="35.2117300">
<ele>-88.459999</ele>
<time>2023-02-01T10:53:28.799Z</time>
</trkpt>
<trkpt lat="30.9278200" lon="35.2118600">
<ele>-89.440002</ele>
<time>2023-02-01T10:53:28.799Z</time>
</trkpt>
<trkpt lat="30.9281100" lon="35.2121000">
<ele>-89.610001</ele>
<time>2023-02-01T10:53:28.799Z</time>
</trkpt>
<trkpt lat="30.9281500" lon="35.2122000">
<ele>-89.320000</ele>
<time>2023-02-01T10:53:28.799Z</time>
</trkpt>
<trkpt lat="30.9281700" lon="35.2123000">
<ele>-89.059998</ele>
<time>2023-02-01T10:53:28.799Z</time>
</trkpt>
<trkpt lat="30.9281200" lon="35.2126400">
<ele>-88.409996</ele>
<time>2023-02-01T10:53:28.799Z</time>
</trkpt>
<trkpt lat="30.9281700" lon="35.2127400">
<ele>-87.389999</ele>
<time>2023-02-01T10:53:28.799Z</time>
</trkpt>
<trkpt lat="30.9281800" lon="35.2128600">
<ele>-87.399994</ele>
<time>2023-02-01T10:53:28.799Z</time>
</trkpt>
<trkpt lat="30.9282500" lon="35.2131800">
<ele>-88.630005</ele>
<time>2023-02-01T10:53:28.799Z</time>
</trkpt>
<trkpt lat="30.9283100" lon="35.2133300">
<ele>-89.229996</ele>
<time>2023-02-01T10:53:28.799Z</time>
</trkpt>
<trkpt lat="30.9283600" lon="35.2134500">
<ele>-89.479996</ele>
<time>2023-02-01T10:53:28.799Z</time>
</trkpt>
<trkpt lat="30.9284100" lon="35.2135300">
<ele>-89.790001</ele>
<time>2023-02-01T10:53:28.799Z</time>
</trkpt>
<trkpt lat="30.9284600" lon="35.2135800">
<ele>-89.939995</ele>
<time>2023-02-01T10:53:28.799Z</time>
</trkpt>
<trkpt lat="30.9285800" lon="35.2136300">
<ele>-90.150002</ele>
<time>2023-02-01T10:53:28.799Z</time>
</trkpt>
<trkpt lat="30.9286600" lon="35.2137000">
<ele>-90.699997</ele>
<time>2023-02-01T10:53:28.799Z</time>
</trkpt>
<trkpt lat="30.9287000" lon="35.2137700">
<ele>-91.099998</ele>
<time>2023-02-01T10:53:28.799Z</time>
</trkpt>
<trkpt lat="30.9287300" lon="35.2139100">
<ele>-91.580002</ele>
<time>2023-02-01T10:53:28.799Z</time>
</trkpt>
<trkpt lat="30.9287600" lon="35.2139700">
<ele>-91.440002</ele>
<time>2023-02-01T10:53:28.799Z</time>
</trkpt>
<trkpt lat="30.9288400" lon="35.2140600">
<ele>-90.780006</ele>
<time>2023-02-01T10:53:28.799Z</time>
</trkpt>
<trkpt lat="30.9289600" lon="35.2141100">
<ele>-89.440002</ele>
<time>2023-02-01T10:53:28.799Z</time>
</trkpt>
<trkpt lat="30.9291100" lon="35.2141100">
<ele>-87.820000</ele>
<time>2023-02-01T10:53:28.799Z</time>
</trkpt>
<trkpt lat="30.9292200" lon="35.2140900">
<ele>-86.929993</ele>
<time>2023-02-01T10:53:28.799Z</time>
</trkpt>
<trkpt lat="30.9292800" lon="35.2141200">
<ele>-86.550003</ele>
<time>2023-02-01T10:53:28.799Z</time>
</trkpt>
<trkpt lat="30.9294200" lon="35.2144700">
<ele>-88.269997</ele>
<time>2023-02-01T10:53:28.799Z</time>
</trkpt>
<trkpt lat="30.9295500" lon="35.2146600">
<ele>-90.879997</ele>
<time>2023-02-01T10:53:28.799Z</time>
</trkpt>
<trkpt lat="30.9297400" lon="35.2148300">
<ele>-92.059998</ele>
<time>2023-02-01T10:53:28.799Z</time>
</trkpt>
<trkpt lat="30.9298100" lon="35.2150600">
<ele>-92.959999</ele>
<time>2023-02-01T10:53:28.799Z</time>
</trkpt>
<trkpt lat="30.9298800" lon="35.2152000">
<ele>-94.730003</ele>
<time>2023-02-01T10:53:28.799Z</time>
</trkpt>
<trkpt lat="30.9299500" lon="35.2153000">
<ele>-95.909996</ele>
<time>2023-02-01T10:53:28.799Z</time>
</trkpt>
<trkpt lat="30.9300700" lon="35.2154200">
<ele>-96.130005</ele>
<time>2023-02-01T10:53:28.799Z</time>
</trkpt>
<trkpt lat="30.9301200" lon="35.2155000">
<ele>-96.019997</ele>
<time>2023-02-01T10:53:28.799Z</time>
</trkpt>
<trkpt lat="30.9302600" lon="35.2156800">
<ele>-95.580002</ele>
<time>2023-02-01T10:53:28.799Z</time>
</trkpt>
<trkpt lat="30.9303300" lon="35.2158400">
<ele>-96.400002</ele>
<time>2023-02-01T10:53:28.799Z</time>
</trkpt>
<trkpt lat="30.9303700" lon="35.2160000">
<ele>-97.259995</ele>
<time>2023-02-01T10:53:28.799Z</time>
</trkpt>
<trkpt lat="30.9304000" lon="35.2160800">
<ele>-97.770004</ele>
<time>2023-02-01T10:53:28.799Z</time>
</trkpt>
<trkpt lat="30.9305200" lon="35.2162700">
<ele>-99.320000</ele>
<time>2023-02-01T10:53:28.799Z</time>
</trkpt>
<trkpt lat="30.9306400" lon="35.2163900">
<ele>-100.009995</ele>
<time>2023-02-01T10:53:28.799Z</time>
</trkpt>
<trkpt lat="30.9307600" lon="35.2164500">
<ele>-100.440002</ele>
<time>2023-02-01T10:53:28.799Z</time>
</trkpt>
<trkpt lat="30.9308800" lon="35.2164600">
<ele>-100.510002</ele>
<time>2023-02-01T10:53:28.799Z</time>
</trkpt>
<trkpt lat="30.9310500" lon="35.2164000">
<ele>-100.080002</ele>
<time>2023-02-01T10:53:28.799Z</time>
</trkpt>
<trkpt lat="30.9311100" lon="35.2164000">
<ele>-100.080002</ele>
<time>2023-02-01T10:53:28.799Z</time>
</trkpt>
<trkpt lat="30.9311600" lon="35.2164100">
<ele>-99.809998</ele>
<time>2023-02-01T10:53:28.799Z</time>
</trkpt>
<trkpt lat="30.9313400" lon="35.2164900">
<ele>-99.379997</ele>
<time>2023-02-01T10:53:28.799Z</time>
</trkpt>
<trkpt lat="30.9314400" lon="35.2165600">
<ele>-100.290001</ele>
<time>2023-02-01T10:53:28.799Z</time>
</trkpt>
<trkpt lat="30.9315200" lon="35.2166600">
<ele>-101.880005</ele>
<time>2023-02-01T10:53:28.799Z</time>
</trkpt>
<trkpt lat="30.9315800" lon="35.2169000">
<ele>-102.849998</ele>
<time>2023-02-01T10:53:28.799Z</time>
</trkpt>
<trkpt lat="30.9316300" lon="35.2169500">
<ele>-102.490005</ele>
<time>2023-02-01T10:53:28.799Z</time>
</trkpt>
<trkpt lat="30.9317500" lon="35.2169500">
<ele>-102.410004</ele>
<time>2023-02-01T10:53:28.799Z</time>
</trkpt>
<trkpt lat="30.9320300" lon="35.2167800">
<ele>-103.309998</ele>
<time>2023-02-01T10:53:28.799Z</time>
</trkpt>
<trkpt lat="30.9322000" lon="35.2167300">
<ele>-103.919998</ele>
<time>2023-02-01T10:53:28.799Z</time>
</trkpt>
<trkpt lat="30.9322800" lon="35.2167300">
<ele>-102.750000</ele>
<time>2023-02-01T10:53:28.799Z</time>
</trkpt>
<trkpt lat="30.9326000" lon="35.2168100">
<ele>-97.289993</ele>
<time>2023-02-01T10:53:28.799Z</time>
</trkpt>
<trkpt lat="30.9326500" lon="35.2168400">
<ele>-97.050003</ele>
<time>2023-02-01T10:53:28.799Z</time>
</trkpt>
<trkpt lat="30.9326900" lon="35.2168900">
<ele>-97.050003</ele>
<time>2023-02-01T10:53:28.799Z</time>
</trkpt>
<trkpt lat="30.9327100" lon="35.2169700">
<ele>-97.520004</ele>
<time>2023-02-01T10:53:28.799Z</time>
</trkpt>
<trkpt lat="30.9326900" lon="35.2171700">
<ele>-99.750008</ele>
<time>2023-02-01T10:53:28.799Z</time>
</trkpt>
<trkpt lat="30.9327100" lon="35.2172300">
<ele>-100.329994</ele>
<time>2023-02-01T10:53:28.799Z</time>
</trkpt>
<trkpt lat="30.9328800" lon="35.2174400">
<ele>-102.589996</ele>
<time>2023-02-01T10:53:28.799Z</time>
</trkpt>
<trkpt lat="30.9330900" lon="35.2177900">
<ele>-103.040001</ele>
<time>2023-02-01T10:53:28.799Z</time>
</trkpt>
<trkpt lat="30.9331400" lon="35.2178800">
<ele>-103.369995</ele>
<time>2023-02-01T10:53:28.799Z</time>
</trkpt>
<trkpt lat="30.9331800" lon="35.2180600">
<ele>-104.050003</ele>
<time>2023-02-01T10:53:28.799Z</time>
</trkpt>
<trkpt lat="30.9332400" lon="35.2182200">
<ele>-105.779999</ele>
<time>2023-02-01T10:53:28.799Z</time>
</trkpt>
<trkpt lat="30.9334000" lon="35.2183900">
<ele>-107.099998</ele>
<time>2023-02-01T10:53:28.799Z</time>
</trkpt>
<trkpt lat="30.9337700" lon="35.2186900">
<ele>-109.500008</ele>
<time>2023-02-01T10:53:28.799Z</time>
</trkpt>
<trkpt lat="30.9338100" lon="35.2187500">
<ele>-110.139999</ele>
<time>2023-02-01T10:53:28.799Z</time>
</trkpt>
<trkpt lat="30.9338700" lon="35.2189200">
<ele>-111.479996</ele>
<time>2023-02-01T10:53:28.799Z</time>
</trkpt>
<trkpt lat="30.9339400" lon="35.2190100">
<ele>-111.680000</ele>
<time>2023-02-01T10:53:28.799Z</time>
</trkpt>
<trkpt lat="30.9341000" lon="35.2191600">
<ele>-110.910004</ele>
<time>2023-02-01T10:53:28.799Z</time>
</trkpt>
<trkpt lat="30.9343300" lon="35.2192800">
<ele>-110.730003</ele>
<time>2023-02-01T10:53:28.799Z</time>
</trkpt>
<trkpt lat="30.9344300" lon="35.2196100">
<ele>-110.859993</ele>
<time>2023-02-01T10:53:28.799Z</time>
</trkpt>
<trkpt lat="30.9346600" lon="35.2200100">
<ele>-113.589996</ele>
<time>2023-02-01T10:53:28.799Z</time>
</trkpt>
<trkpt lat="30.9347000" lon="35.2200400">
<ele>-113.639999</ele>
<time>2023-02-01T10:53:28.799Z</time>
</trkpt>
<trkpt lat="30.9347800" lon="35.2200500">
<ele>-113.989998</ele>
<time>2023-02-01T10:53:28.799Z</time>
</trkpt>
<trkpt lat="30.9348400" lon="35.2200500">
<ele>-114.459999</ele>
<time>2023-02-01T10:53:28.799Z</time>
</trkpt>
<trkpt lat="30.9349100" lon="35.2200100">
<ele>-114.479996</ele>
<time>2023-02-01T10:53:28.799Z</time>
</trkpt>
<trkpt lat="30.9350600" lon="35.2198000">
<ele>-112.590004</ele>
<time>2023-02-01T10:53:28.799Z</time>
</trkpt>
<trkpt lat="30.9351700" lon="35.2195300">
<ele>-111.989998</ele>
<time>2023-02-01T10:53:28.799Z</time>
</trkpt>
<trkpt lat="30.9353400" lon="35.2192500">
<ele>-113.439995</ele>
<time>2023-02-01T10:53:28.799Z</time>
</trkpt>
<trkpt lat="30.9353800" lon="35.2192100">
<ele>-114.010002</ele>
<time>2023-02-01T10:53:28.799Z</time>
</trkpt>
<trkpt lat="30.9354900" lon="35.2191100">
<ele>-115.510002</ele>
<time>2023-02-01T10:53:28.799Z</time>
</trkpt>
<trkpt lat="30.9356000" lon="35.2190500">
<ele>-117.190002</ele>
<time>2023-02-01T10:53:28.799Z</time>
</trkpt>
<trkpt lat="30.9356800" lon="35.2190500">
<ele>-117.809998</ele>
<time>2023-02-01T10:53:28.799Z</time>
</trkpt>
<trkpt lat="30.9358800" lon="35.2191600">
<ele>-118.980003</ele>
<time>2023-02-01T10:53:28.799Z</time>
</trkpt>
<trkpt lat="30.9359700" lon="35.2191900">
<ele>-119.040001</ele>
<time>2023-02-01T10:53:28.799Z</time>
</trkpt>
<trkpt lat="30.9361600" lon="35.2192100">
<ele>-118.729996</ele>
<time>2023-02-01T10:53:28.799Z</time>
</trkpt>
<trkpt lat="30.9364100" lon="35.2192000">
<ele>-117.120003</ele>
<time>2023-02-01T10:53:28.799Z</time>
</trkpt>
<trkpt lat="30.9364800" lon="35.2192300">
<ele>-116.629997</ele>
<time>2023-02-01T10:53:28.799Z</time>
</trkpt>
<trkpt lat="30.9366800" lon="35.2193600">
<ele>-115.089996</ele>
<time>2023-02-01T10:53:28.799Z</time>
</trkpt>
<trkpt lat="30.9368100" lon="35.2194200">
<ele>-112.680000</ele>
<time>2023-02-01T10:53:28.799Z</time>
</trkpt>
<trkpt lat="30.9369000" lon="35.2194300">
<ele>-110.809998</ele>
<time>2023-02-01T10:53:28.799Z</time>
</trkpt>
<trkpt lat="30.9370900" lon="35.2193800">
<ele>-109.580002</ele>
<time>2023-02-01T10:53:28.799Z</time>
</trkpt>
<trkpt lat="30.9373900" lon="35.2193600">
<ele>-113.289993</ele>
<time>2023-02-01T10:53:28.799Z</time>
</trkpt>
<trkpt lat="30.9377700" lon="35.2194000">
<ele>-118.619995</ele>
<time>2023-02-01T10:53:28.799Z</time>
</trkpt>
<trkpt lat="30.9380100" lon="35.2194700">
<ele>-112.160004</ele>
<time>2023-02-01T10:53:28.799Z</time>
</trkpt>
<trkpt lat="30.9381800" lon="35.2194600">
<ele>-109.050003</ele>
<time>2023-02-01T10:53:28.799Z</time>
</trkpt>
<trkpt lat="30.9383100" lon="35.2193600">
<ele>-108.500000</ele>
<time>2023-02-01T10:53:28.799Z</time>
</trkpt>
<trkpt lat="30.9383600" lon="35.2192900">
<ele>-108.650002</ele>
<time>2023-02-01T10:53:28.799Z</time>
</trkpt>
<trkpt lat="30.9384100" lon="35.2191400">
<ele>-109.449997</ele>
<time>2023-02-01T10:53:28.799Z</time>
</trkpt>
<trkpt lat="30.9384700" lon="35.2190400">
<ele>-108.950005</ele>
<time>2023-02-01T10:53:28.799Z</time>
</trkpt>
<trkpt lat="30.9386000" lon="35.2188700">
<ele>-108.950005</ele>
<time>2023-02-01T10:53:28.799Z</time>
</trkpt>
<trkpt lat="30.9386700" lon="35.2188100">
<ele>-107.400002</ele>
<time>2023-02-01T10:53:28.799Z</time>
</trkpt>
<trkpt lat="30.9387600" lon="35.2187900">
<ele>-105.839996</ele>
<time>2023-02-01T10:53:28.799Z</time>
</trkpt>
<trkpt lat="30.9389100" lon="35.2188000">
<ele>-103.410004</ele>
<time>2023-02-01T10:53:28.799Z</time>
</trkpt>
<trkpt lat="30.9391400" lon="35.2187400">
<ele>-101.910004</ele>
<time>2023-02-01T10:53:28.799Z</time>
</trkpt>
<trkpt lat="30.9394900" lon="35.2187200">
<ele>-96.860001</ele>
<time>2023-02-01T10:53:28.799Z</time>
</trkpt>
<trkpt lat="30.9396500" lon="35.2186500">
<ele>-95.989998</ele>
<time>2023-02-01T10:53:28.799Z</time>
</trkpt>
<trkpt lat="30.9397100" lon="35.2185800">
<ele>-96.620003</ele>
<time>2023-02-01T10:53:28.799Z</time>
</trkpt>
<trkpt lat="30.9397400" lon="35.2185600">
<ele>-96.250008</ele>
<time>2023-02-01T10:53:28.799Z</time>
</trkpt>
<trkpt lat="30.9398400" lon="35.2184100">
<ele>-96.120003</ele>
<time>2023-02-01T10:53:28.799Z</time>
</trkpt>
<trkpt lat="30.9399000" lon="35.2182300">
<ele>-96.529999</ele>
<time>2023-02-01T10:53:28.799Z</time>
</trkpt>
<trkpt lat="30.9399400" lon="35.2180400">
<ele>-96.010002</ele>
<time>2023-02-01T10:53:28.799Z</time>
</trkpt>
<trkpt lat="30.9399300" lon="35.2177500">
<ele>-91.000000</ele>
<time>2023-02-01T10:53:28.799Z</time>
</trkpt>
<trkpt lat="30.9399700" lon="35.2175800">
<ele>-89.529999</ele>
<time>2023-02-01T10:53:28.799Z</time>
</trkpt>
<trkpt lat="30.9400100" lon="35.2175000">
<ele>-88.780006</ele>
<time>2023-02-01T10:53:28.799Z</time>
</trkpt>
<trkpt lat="30.9401300" lon="35.2173900">
<ele>-84.260002</ele>
<time>2023-02-01T10:53:28.799Z</time>
</trkpt>
<trkpt lat="30.9402100" lon="35.2173600">
<ele>-81.430000</ele>
<time>2023-02-01T10:53:28.799Z</time>
</trkpt>
<trkpt lat="30.9402900" lon="35.2173400">
<ele>-78.730003</ele>
<time>2023-02-01T10:53:28.799Z</time>
</trkpt>
<trkpt lat="30.9405000" lon="35.2173800">
<ele>-75.519997</ele>
<time>2023-02-01T10:53:28.799Z</time>
</trkpt>
<trkpt lat="30.9405600" lon="35.2173700">
<ele>-74.169998</ele>
<time>2023-02-01T10:53:28.799Z</time>
</trkpt>
<trkpt lat="30.9406100" lon="35.2173500">
<ele>-73.599998</ele>
<time>2023-02-01T10:53:28.799Z</time>
</trkpt>
<trkpt lat="30.9406600" lon="35.2173100">
<ele>-72.799995</ele>
<time>2023-02-01T10:53:28.799Z</time>
</trkpt>
<trkpt lat="30.9408000" lon="35.2172800">
<ele>-72.400002</ele>
<time>2023-02-01T10:53:28.799Z</time>
</trkpt>
<trkpt lat="30.9409300" lon="35.2173300">
<ele>-73.339996</ele>
<time>2023-02-01T10:53:28.799Z</time>
</trkpt>
<trkpt lat="30.9410500" lon="35.2173200">
<ele>-73.989998</ele>
<time>2023-02-01T10:53:28.799Z</time>
</trkpt>
<trkpt lat="30.9411900" lon="35.2174000">
<ele>-74.839996</ele>
<time>2023-02-01T10:53:28.799Z</time>
</trkpt>
<trkpt lat="30.9412400" lon="35.2173800">
<ele>-74.970001</ele>
<time>2023-02-01T10:53:28.799Z</time>
</trkpt>
<trkpt lat="30.9414500" lon="35.2172400">
<ele>-75.250000</ele>
<time>2023-02-01T10:53:28.799Z</time>
</trkpt>
<trkpt lat="30.9416100" lon="35.2171900">
<ele>-73.029999</ele>
<time>2023-02-01T10:53:28.799Z</time>
</trkpt>
<trkpt lat="30.9416800" lon="35.2172100">
<ele>-72.349998</ele>
<time>2023-02-01T10:53:28.799Z</time>
</trkpt>
<trkpt lat="30.9418800" lon="35.2172900">
<ele>-65.360001</ele>
<time>2023-02-01T10:53:28.799Z</time>
</trkpt>
<trkpt lat="30.9419900" lon="35.2173000">
<ele>-61.330002</ele>
<time>2023-02-01T10:53:28.799Z</time>
</trkpt>
<trkpt lat="30.9422500" lon="35.2172600">
<ele>-51.469997</ele>
<time>2023-02-01T10:53:28.799Z</time>
</trkpt>
<trkpt lat="30.9424200" lon="35.2172700">
<ele>-48.339996</ele>
<time>2023-02-01T10:53:28.799Z</time>
</trkpt>
<trkpt lat="30.9426900" lon="35.2173500">
<ele>-45.620003</ele>
<time>2023-02-01T10:53:28.799Z</time>
</trkpt>
<trkpt lat="30.9428800" lon="35.2173400">
<ele>-42.060001</ele>
<time>2023-02-01T10:53:28.799Z</time>
</trkpt>
<trkpt lat="30.9430300" lon="35.2173600">
<ele>-39.039997</ele>
<time>2023-02-01T10:53:28.799Z</time>
</trkpt>
<trkpt lat="30.9431700" lon="35.2174600">
<ele>-37.630001</ele>
<time>2023-02-01T10:53:28.799Z</time>
</trkpt>
<trkpt lat="30.9433900" lon="35.2175300">
<ele>-34.939999</ele>
<time>2023-02-01T10:53:28.799Z</time>
</trkpt>
<trkpt lat="30.9435100" lon="35.2175400">
<ele>-35.160000</ele>
<time>2023-02-01T10:53:28.799Z</time>
</trkpt>
<trkpt lat="30.9437200" lon="35.2176100">
<ele>-32.220001</ele>
<time>2023-02-01T10:53:28.799Z</time>
</trkpt>
<trkpt lat="30.9439100" lon="35.2176000">
<ele>-28.500000</ele>
<time>2023-02-01T10:53:28.799Z</time>
</trkpt>
<trkpt lat="30.9439500" lon="35.2175800">
<ele>-27.850000</ele>
<time>2023-02-01T10:53:28.799Z</time>
</trkpt>
<trkpt lat="30.9440000" lon="35.2175800">
<ele>-26.799999</ele>
<time>2023-02-01T10:53:28.799Z</time>
</trkpt>
<trkpt lat="30.9440400" lon="35.2176200">
<ele>-25.840000</ele>
<time>2023-02-01T10:53:28.799Z</time>
</trkpt>
<trkpt lat="30.9441000" lon="35.2177200">
<ele>-24.710001</ele>
<time>2023-02-01T10:53:28.799Z</time>
</trkpt>
<trkpt lat="30.9442200" lon="35.2180100">
<ele>-20.660000</ele>
<time>2023-02-01T10:53:28.799Z</time>
</trkpt>
<trkpt lat="30.9444200" lon="35.2182800">
<ele>-17.660000</ele>
<time>2023-02-01T10:53:28.799Z</time>
</trkpt>
<trkpt lat="30.9445100" lon="35.2184500">
<ele>-18.130001</ele>
<time>2023-02-01T10:53:28.799Z</time>
</trkpt>
<trkpt lat="30.9445300" lon="35.2185600">
<ele>-18.709999</ele>
<time>2023-02-01T10:53:28.799Z</time>
</trkpt>
<trkpt lat="30.9445100" lon="35.2187500">
<ele>-19.410000</ele>
<time>2023-02-01T10:53:28.799Z</time>
</trkpt>
<trkpt lat="30.9444500" lon="35.2189100">
<ele>-20.040001</ele>
<time>2023-02-01T10:53:28.799Z</time>
</trkpt>
<trkpt lat="30.9443300" lon="35.2191500">
<ele>-21.349998</ele>
<time>2023-02-01T10:53:28.799Z</time>
</trkpt>
<trkpt lat="30.9443200" lon="35.2192200">
<ele>-21.260000</ele>
<time>2023-02-01T10:53:28.799Z</time>
</trkpt>
<trkpt lat="30.9443400" lon="35.2193100">
<ele>-20.860001</ele>
<time>2023-02-01T10:53:28.799Z</time>
</trkpt>
<trkpt lat="30.9443600" lon="35.2193700">
<ele>-20.570000</ele>
<time>2023-02-01T10:53:28.799Z</time>
</trkpt>
<trkpt lat="30.9444600" lon="35.2194700">
<ele>-20.000000</ele>
<time>2023-02-01T10:53:28.799Z</time>
</trkpt>
<trkpt lat="30.9445500" lon="35.2195200">
<ele>-20.000000</ele>
<time>2023-02-01T10:53:28.799Z</time>
</trkpt>
<trkpt lat="30.9446300" lon="35.2195200">
<ele>-20.000000</ele>
<time>2023-02-01T10:53:28.799Z</time>
</trkpt>
<trkpt lat="30.9448900" lon="35.2194800">
<ele>-18.340000</ele>
<time>2023-02-01T10:53:28.799Z</time>
</trkpt>
<trkpt lat="30.9449900" lon="35.2194800">
<ele>-17.350000</ele>
<time>2023-02-01T10:53:28.799Z</time>
</trkpt>
<trkpt lat="30.9456000" lon="35.2196800">
<ele>-17.940001</ele>
<time>2023-02-01T10:53:28.799Z</time>
</trkpt>
<trkpt lat="30.9458000" lon="35.2198400">
<ele>-17.629999</ele>
<time>2023-02-01T10:53:28.799Z</time>
</trkpt>
<trkpt lat="30.9462500" lon="35.2202800">
<ele>-14.020000</ele>
<time>2023-02-01T10:53:28.799Z</time>
</trkpt>
<trkpt lat="30.9463700" lon="35.2203700">
<ele>-14.130000</ele>
<time>2023-02-01T10:53:28.799Z</time>
</trkpt>
<trkpt lat="30.9464100" lon="35.2204000">
<ele>-14.400001</ele>
<time>2023-02-01T10:53:28.799Z</time>
</trkpt>
<trkpt lat="30.9469000" lon="35.2206000">
<ele>-17.910000</ele>
<time>2023-02-01T10:53:28.799Z</time>
</trkpt>
<trkpt lat="30.9472000" lon="35.2207000">
<ele>-15.719999</ele>
<time>2023-02-01T10:53:28.799Z</time>
</trkpt>
<trkpt lat="30.9474500" lon="35.2208200">
<ele>-12.630000</ele>
<time>2023-02-01T10:53:28.799Z</time>
</trkpt>
<trkpt lat="30.9476800" lon="35.2208900">
<ele>-11.060000</ele>
<time>2023-02-01T10:53:28.799Z</time>
</trkpt>
<trkpt lat="30.9477300" lon="35.2209200">
<ele>-11.230000</ele>
<time>2023-02-01T10:53:28.799Z</time>
</trkpt>
<trkpt lat="30.9477800" lon="35.2209700">
<ele>-12.000000</ele>
<time>2023-02-01T10:53:28.799Z</time>
</trkpt>
<trkpt lat="30.9478400" lon="35.2211100">
<ele>-16.320000</ele>
<time>2023-02-01T10:53:28.799Z</time>
</trkpt>
<trkpt lat="30.9479400" lon="35.2215500">
<ele>-26.449999</ele>
<time>2023-02-01T10:53:28.799Z</time>
</trkpt>
<trkpt lat="30.9480200" lon="35.2218000">
<ele>-30.059999</ele>
<time>2023-02-01T10:53:28.799Z</time>
</trkpt>
<trkpt lat="30.9482600" lon="35.2222700">
<ele>-34.079998</ele>
<time>2023-02-01T10:53:28.799Z</time>
</trkpt>
<trkpt lat="30.9483700" lon="35.2225300">
<ele>-37.220001</ele>
<time>2023-02-01T10:53:28.799Z</time>
</trkpt>
<trkpt lat="30.9484500" lon="35.2228100">
<ele>-39.809998</ele>
<time>2023-02-01T10:53:28.799Z</time>
</trkpt>
<trkpt lat="30.9485700" lon="35.2233600">
<ele>-44.049999</ele>
<time>2023-02-01T10:53:28.799Z</time>
</trkpt>
<trkpt lat="30.9487300" lon="35.2238500">
<ele>-44.759998</ele>
<time>2023-02-01T10:53:28.799Z</time>
</trkpt>
<trkpt lat="30.9487700" lon="35.2239700">
<ele>-45.770000</ele>
<time>2023-02-01T10:53:28.799Z</time>
</trkpt>
<trkpt lat="30.9488200" lon="35.2242100">
<ele>-48.350002</ele>
<time>2023-02-01T10:53:28.799Z</time>
</trkpt>
<trkpt lat="30.9488300" lon="35.2244100">
<ele>-49.939999</ele>
<time>2023-02-01T10:53:28.799Z</time>
</trkpt>
<trkpt lat="30.9487900" lon="35.2246000">
<ele>-52.040001</ele>
<time>2023-02-01T10:53:28.799Z</time>
</trkpt>
<trkpt lat="30.9484400" lon="35.2252600">
<ele>-58.680000</ele>
<time>2023-02-01T10:53:28.799Z</time>
</trkpt>
<trkpt lat="30.9482700" lon="35.2256700">
<ele>-61.090000</ele>
<time>2023-02-01T10:53:28.799Z</time>
</trkpt>
<trkpt lat="30.9480100" lon="35.2260200">
<ele>-58.130001</ele>
<time>2023-02-01T10:53:28.799Z</time>
</trkpt>
<trkpt lat="30.9478200" lon="35.2264300">
<ele>-62.860001</ele>
<time>2023-02-01T10:53:28.799Z</time>
</trkpt>
<trkpt lat="30.9477500" lon="35.2265400">
<ele>-65.900002</ele>
<time>2023-02-01T10:53:28.799Z</time>
</trkpt>
<trkpt lat="30.9475700" lon="35.2267600">
<ele>-67.870003</ele>
<time>2023-02-01T10:53:28.799Z</time>
</trkpt>
<trkpt lat="30.9472200" lon="35.2270800">
<ele>-66.939995</ele>
<time>2023-02-01T10:53:28.799Z</time>
</trkpt>
<trkpt lat="30.9470800" lon="35.2272800">
<ele>-68.389999</ele>
<time>2023-02-01T10:53:28.799Z</time>
</trkpt>
<trkpt lat="30.9469800" lon="35.2274700">
<ele>-69.040001</ele>
<time>2023-02-01T10:53:28.799Z</time>
</trkpt>
<trkpt lat="30.9469800" lon="35.2274900">
<ele>-69.180000</ele>
<time>2023-02-01T10:53:28.799Z</time>
</trkpt>
<trkpt lat="30.9468900" lon="35.2277700">
<ele>-72.889999</ele>
<time>2023-02-01T10:53:28.799Z</time>
</trkpt>
<trkpt lat="30.9467700" lon="35.2280100">
<ele>-75.820000</ele>
<time>2023-02-01T10:53:28.799Z</time>
</trkpt>
<trkpt lat="30.9467500" lon="35.2281800">
<ele>-77.290001</ele>
<time>2023-02-01T10:53:28.799Z</time>
</trkpt>
<trkpt lat="30.9467300" lon="35.2288200">
<ele>-87.070000</ele>
<time>2023-02-01T10:53:28.799Z</time>
</trkpt>
<trkpt lat="30.9468300" lon="35.2292200">
<ele>-87.270004</ele>
<time>2023-02-01T10:53:28.799Z</time>
</trkpt>
<trkpt lat="30.9468800" lon="35.2293400">
<ele>-86.419998</ele>
<time>2023-02-01T10:53:28.799Z</time>
</trkpt>
<trkpt lat="30.9469500" lon="35.2295100">
<ele>-84.470001</ele>
<time>2023-02-01T10:53:28.799Z</time>
</trkpt>
<trkpt lat="30.9469200" lon="35.2298600">
<ele>-82.900002</ele>
<time>2023-02-01T10:53:28.799Z</time>
</trkpt>
<trkpt lat="30.9468800" lon="35.2300500">
<ele>-82.570000</ele>
<time>2023-02-01T10:53:28.799Z</time>
</trkpt>
<trkpt lat="30.9468100" lon="35.2303300">
<ele>-82.029999</ele>
<time>2023-02-01T10:53:28.799Z</time>
</trkpt>
<trkpt lat="30.9466200" lon="35.2308300">
<ele>-87.820000</ele>
<time>2023-02-01T10:53:28.799Z</time>
</trkpt>
<trkpt lat="30.9466000" lon="35.2310600">
<ele>-89.019997</ele>
<time>2023-02-01T10:53:28.799Z</time>
</trkpt>
<trkpt lat="30.9466300" lon="35.2314900">
<ele>-85.109993</ele>
<time>2023-02-01T10:53:28.799Z</time>
</trkpt>
<trkpt lat="30.9467200" lon="35.2321000">
<ele>-82.449997</ele>
<time>2023-02-01T10:53:28.799Z</time>
</trkpt>
<trkpt lat="30.9470700" lon="35.2337000">
<ele>-85.180000</ele>
<time>2023-02-01T10:53:28.799Z</time>
</trkpt>
<trkpt lat="30.9471600" lon="35.2339800">
<ele>-85.549995</ele>
<time>2023-02-01T10:53:28.799Z</time>
</trkpt>
<trkpt lat="30.9475200" lon="35.2349100">
<ele>-87.070000</ele>
<time>2023-02-01T10:53:28.799Z</time>
</trkpt>
<trkpt lat="30.9477500" lon="35.2355700">
<ele>-88.400002</ele>
<time>2023-02-01T10:53:28.799Z</time>
</trkpt>
<trkpt lat="30.9479300" lon="35.2361300">
<ele>-91.589996</ele>
<time>2023-02-01T10:53:28.799Z</time>
</trkpt>
<trkpt lat="30.9479600" lon="35.2362700">
<ele>-92.669998</ele>
<time>2023-02-01T10:53:28.799Z</time>
</trkpt>
<trkpt lat="30.9481100" lon="35.2368100">
<ele>-97.889999</ele>
<time>2023-02-01T10:53:28.799Z</time>
</trkpt>
<trkpt lat="30.9483500" lon="35.2373400">
<ele>-99.310005</ele>
<time>2023-02-01T10:53:28.799Z</time>
</trkpt>
<trkpt lat="30.9481300" lon="35.2376000">
<ele>-96.610001</ele>
<time>2023-02-01T10:53:28.799Z</time>
</trkpt>
<trkpt lat="30.9480500" lon="35.2377700">
<ele>-97.030006</ele>
<time>2023-02-01T10:53:28.799Z</time>
</trkpt>
<trkpt lat="30.9480500" lon="35.2380500">
<ele>-97.059998</ele>
<time>2023-02-01T10:53:28.799Z</time>
</trkpt>
<trkpt lat="30.9480100" lon="35.2383100">
<ele>-98.870003</ele>
<time>2023-02-01T10:53:28.799Z</time>
</trkpt>
<trkpt lat="30.9479400" lon="35.2386500">
<ele>-103.029999</ele>
<time>2023-02-01T10:53:28.799Z</time>
</trkpt>
<trkpt lat="30.9478800" lon="35.2388000">
<ele>-104.230003</ele>
<time>2023-02-01T10:53:28.799Z</time>
</trkpt>
<trkpt lat="30.9478200" lon="35.2389000">
<ele>-104.439995</ele>
<time>2023-02-01T10:53:28.799Z</time>
</trkpt>
<trkpt lat="30.9476500" lon="35.2391100">
<ele>-103.910004</ele>
<time>2023-02-01T10:53:28.799Z</time>
</trkpt>
<trkpt lat="30.9475700" lon="35.2392400">
<ele>-104.129997</ele>
<time>2023-02-01T10:53:28.799Z</time>
</trkpt>
<trkpt lat="30.9474800" lon="35.2395100">
<ele>-104.500000</ele>
<time>2023-02-01T10:53:28.799Z</time>
</trkpt>
<trkpt lat="30.9473800" lon="35.2399700">
<ele>-100.760002</ele>
<time>2023-02-01T10:53:28.799Z</time>
</trkpt>
<trkpt lat="30.9472100" lon="35.2403100">
<ele>-98.159996</ele>
<time>2023-02-01T10:53:28.799Z</time>
</trkpt>
<trkpt lat="30.9471100" lon="35.2404100">
<ele>-98.850006</ele>
<time>2023-02-01T10:53:28.799Z</time>
</trkpt>
<trkpt lat="30.9466700" lon="35.2406700">
<ele>-102.129997</ele>
<time>2023-02-01T10:53:28.799Z</time>
</trkpt>
<trkpt lat="30.9461800" lon="35.2408600">
<ele>-99.910004</ele>
<time>2023-02-01T10:53:28.799Z</time>
</trkpt>
<trkpt lat="30.9456800" lon="35.2411000">
<ele>-100.129997</ele>
<time>2023-02-01T10:53:28.799Z</time>
</trkpt>
<trkpt lat="30.9453100" lon="35.2412300">
<ele>-103.110001</ele>
<time>2023-02-01T10:53:28.799Z</time>
</trkpt>
<trkpt lat="30.9449000" lon="35.2414200">
<ele>-104.459999</ele>
<time>2023-02-01T10:53:28.799Z</time>
</trkpt>
<trkpt lat="30.9444400" lon="35.2415800">
<ele>-107.309998</ele>
<time>2023-02-01T10:53:28.799Z</time>
</trkpt>
<trkpt lat="30.9431900" lon="35.2418400">
<ele>-100.680000</ele>
<time>2023-02-01T10:53:28.799Z</time>
</trkpt>
<trkpt lat="30.9429500" lon="35.2418500">
<ele>-103.659996</ele>
<time>2023-02-01T10:53:28.799Z</time>
</trkpt>
<trkpt lat="30.9421600" lon="35.2416400">
<ele>-111.769997</ele>
<time>2023-02-01T10:53:28.799Z</time>
</trkpt>
<trkpt lat="30.9420600" lon="35.2415900">
<ele>-111.779999</ele>
<time>2023-02-01T10:53:28.799Z</time>
</trkpt>
<trkpt lat="30.9419200" lon="35.2414800">
<ele>-112.779999</ele>
<time>2023-02-01T10:53:28.799Z</time>
</trkpt>
<trkpt lat="30.9419200" lon="35.2414900">
<ele>-112.680000</ele>
<time>2023-02-01T10:53:28.799Z</time>
</trkpt>
<trkpt lat="30.9416700" lon="35.2413200">
<ele>-111.030006</ele>
<time>2023-02-01T10:53:28.799Z</time>
</trkpt>
<trkpt lat="30.9414600" lon="35.2411300">
<ele>-108.020004</ele>
<time>2023-02-01T10:53:28.799Z</time>
</trkpt>
<trkpt lat="30.9413300" lon="35.2410400">
<ele>-108.239998</ele>
<time>2023-02-01T10:53:28.799Z</time>
</trkpt>
<trkpt lat="30.9410500" lon="35.2409100">
<ele>-111.500000</ele>
<time>2023-02-01T10:53:28.799Z</time>
</trkpt>
<trkpt lat="30.9409100" lon="35.2409100">
<ele>-112.870003</ele>
<time>2023-02-01T10:53:28.799Z</time>
</trkpt>
<trkpt lat="30.9407200" lon="35.2409300">
<ele>-114.080002</ele>
<time>2023-02-01T10:53:28.799Z</time>
</trkpt>
<trkpt lat="30.9401700" lon="35.2409200">
<ele>-117.669998</ele>
<time>2023-02-01T10:53:28.799Z</time>
</trkpt>
<trkpt lat="30.9396500" lon="35.2409700">
<ele>-117.180000</ele>
<time>2023-02-01T10:53:28.799Z</time>
</trkpt>
<trkpt lat="30.9392200" lon="35.2409300">
<ele>-121.760002</ele>
<time>2023-02-01T10:53:28.799Z</time>
</trkpt>
<trkpt lat="30.9386700" lon="35.2409800">
<ele>-121.799995</ele>
<time>2023-02-01T10:53:28.799Z</time>
</trkpt>
<trkpt lat="30.9382000" lon="35.2410800">
<ele>-121.240005</ele>
<time>2023-02-01T10:53:28.799Z</time>
</trkpt>
<trkpt lat="30.9375100" lon="35.2414100">
<ele>-124.669998</ele>
<time>2023-02-01T10:53:28.799Z</time>
</trkpt>
<trkpt lat="30.9372500" lon="35.2415000">
<ele>-127.940002</ele>
<time>2023-02-01T10:53:28.799Z</time>
</trkpt>
<trkpt lat="30.9368400" lon="35.2417800">
<ele>-132.570007</ele>
<time>2023-02-01T10:53:28.799Z</time>
</trkpt>
<trkpt lat="30.9365400" lon="35.2419100">
<ele>-131.809998</ele>
<time>2023-02-01T10:53:28.799Z</time>
</trkpt>
<trkpt lat="30.9359600" lon="35.2421000">
<ele>-128.050003</ele>
<time>2023-02-01T10:53:28.799Z</time>
</trkpt>
<trkpt lat="30.9356100" lon="35.2422500">
<ele>-128.860001</ele>
<time>2023-02-01T10:53:28.799Z</time>
</trkpt>
<trkpt lat="30.9355000" lon="35.2422600">
<ele>-129.139999</ele>
<time>2023-02-01T10:53:28.799Z</time>
</trkpt>
<trkpt lat="30.9352900" lon="35.2423100">
<ele>-127.729996</ele>
<time>2023-02-01T10:53:28.799Z</time>
</trkpt>
<trkpt lat="30.9349000" lon="35.2423800">
<ele>-128.430008</ele>
<time>2023-02-01T10:53:28.799Z</time>
</trkpt>
<trkpt lat="30.9348400" lon="35.2416500">
<ele>-127.139999</ele>
<time>2023-02-01T10:53:28.799Z</time>
</trkpt>
<trkpt lat="30.9348100" lon="35.2408600">
<ele>-121.130005</ele>
<time>2023-02-01T10:53:28.799Z</time>
</trkpt>
<trkpt lat="30.9347900" lon="35.2408100">
<ele>-120.599998</ele>
<time>2023-02-01T10:53:28.799Z</time>
</trkpt>
<trkpt lat="30.9347500" lon="35.2407500">
<ele>-119.529999</ele>
<time>2023-02-01T10:53:28.799Z</time>
</trkpt>
<trkpt lat="30.9346100" lon="35.2406500">
<ele>-116.080002</ele>
<time>2023-02-01T10:53:28.799Z</time>
</trkpt>
<trkpt lat="30.9345000" lon="35.2405100">
<ele>-112.940002</ele>
<time>2023-02-01T10:53:28.799Z</time>
</trkpt>
<trkpt lat="30.9344400" lon="35.2404700">
<ele>-111.589996</ele>
<time>2023-02-01T10:53:28.799Z</time>
</trkpt>
<trkpt lat="30.9343500" lon="35.2404800">
<ele>-108.170006</ele>
<time>2023-02-01T10:53:28.799Z</time>
</trkpt>
<trkpt lat="30.9341200" lon="35.2406600">
<ele>-103.389999</ele>
<time>2023-02-01T10:53:28.799Z</time>
</trkpt>
<trkpt lat="30.9339800" lon="35.2407400">
<ele>-101.500000</ele>
<time>2023-02-01T10:53:28.799Z</time>
</trkpt>
<trkpt lat="30.9339100" lon="35.2407600">
<ele>-100.000000</ele>
<time>2023-02-01T10:53:28.799Z</time>
</trkpt>
<trkpt lat="30.9338100" lon="35.2407500">
<ele>-99.650002</ele>
<time>2023-02-01T10:53:28.799Z</time>
</trkpt>
<trkpt lat="30.9337000" lon="35.2407100">
<ele>-99.620003</ele>
<time>2023-02-01T10:53:28.799Z</time>
</trkpt>
<trkpt lat="30.9333600" lon="35.2405500">
<ele>-104.269997</ele>
<time>2023-02-01T10:53:28.799Z</time>
</trkpt>
<trkpt lat="30.9332600" lon="35.2405400">
<ele>-105.860001</ele>
<time>2023-02-01T10:53:28.799Z</time>
</trkpt>
<trkpt lat="30.9329500" lon="35.2405800">
<ele>-108.010002</ele>
<time>2023-02-01T10:53:28.799Z</time>
</trkpt>
<trkpt lat="30.9323500" lon="35.2407200">
<ele>-109.380005</ele>
<time>2023-02-01T10:53:28.799Z</time>
</trkpt>
<trkpt lat="30.9321600" lon="35.2408100">
<ele>-109.220001</ele>
<time>2023-02-01T10:53:28.799Z</time>
</trkpt>
<trkpt lat="30.9317700" lon="35.2411100">
<ele>-110.000000</ele>
<time>2023-02-01T10:53:28.799Z</time>
</trkpt>
<trkpt lat="30.9316000" lon="35.2411900">
<ele>-108.809998</ele>
<time>2023-02-01T10:53:28.799Z</time>
</trkpt>
<trkpt lat="30.9315300" lon="35.2412300">
<ele>-107.619995</ele>
<time>2023-02-01T10:53:28.799Z</time>
</trkpt>
<trkpt lat="30.9313300" lon="35.2415600">
<ele>-108.779999</ele>
<time>2023-02-01T10:53:28.799Z</time>
</trkpt>
<trkpt lat="30.9312200" lon="35.2416300">
<ele>-108.059998</ele>
<time>2023-02-01T10:53:28.799Z</time>
</trkpt>
<trkpt lat="30.9311400" lon="35.2416400">
<ele>-106.780006</ele>
<time>2023-02-01T10:53:28.799Z</time>
</trkpt>
<trkpt lat="30.9309100" lon="35.2416300">
<ele>-105.940002</ele>
<time>2023-02-01T10:53:28.799Z</time>
</trkpt>
<trkpt lat="30.9307600" lon="35.2415600">
<ele>-105.349998</ele>
<time>2023-02-01T10:53:28.799Z</time>
</trkpt>
<trkpt lat="30.9305300" lon="35.2413800">
<ele>-104.909996</ele>
<time>2023-02-01T10:53:28.799Z</time>
</trkpt>
<trkpt lat="30.9304500" lon="35.2413300">
<ele>-104.340004</ele>
<time>2023-02-01T10:53:28.799Z</time>
</trkpt>
<trkpt lat="30.9303700" lon="35.2413200">
<ele>-105.100006</ele>
<time>2023-02-01T10:53:28.799Z</time>
</trkpt>
<trkpt lat="30.9303100" lon="35.2413500">
<ele>-106.250000</ele>
<time>2023-02-01T10:53:28.799Z</time>
</trkpt>
<trkpt lat="30.9302900" lon="35.2413900">
<ele>-106.920006</ele>
<time>2023-02-01T10:53:28.799Z</time>
</trkpt>
<trkpt lat="30.9302700" lon="35.2414700">
<ele>-107.700005</ele>
<time>2023-02-01T10:53:28.799Z</time>
</trkpt>
<trkpt lat="30.9302700" lon="35.2415800">
<ele>-108.849998</ele>
<time>2023-02-01T10:53:28.799Z</time>
</trkpt>
<trkpt lat="30.9303000" lon="35.2417300">
<ele>-110.880005</ele>
<time>2023-02-01T10:53:28.799Z</time>
</trkpt>
<trkpt lat="30.9303000" lon="35.2418900">
<ele>-112.700005</ele>
<time>2023-02-01T10:53:28.799Z</time>
</trkpt>
<trkpt lat="30.9302400" lon="35.2422000">
<ele>-111.510002</ele>
<time>2023-02-01T10:53:28.799Z</time>
</trkpt>
<trkpt lat="30.9302300" lon="35.2423300">
<ele>-111.879997</ele>
<time>2023-02-01T10:53:28.799Z</time>
</trkpt>
<trkpt lat="30.9302600" lon="35.2426000">
<ele>-115.450005</ele>
<time>2023-02-01T10:53:28.799Z</time>
</trkpt>
<trkpt lat="30.9302300" lon="35.2427300">
<ele>-116.019997</ele>
<time>2023-02-01T10:53:28.799Z</time>
</trkpt>
<trkpt lat="30.9301200" lon="35.2429600">
<ele>-116.260002</ele>
<time>2023-02-01T10:53:28.799Z</time>
</trkpt>
<trkpt lat="30.9300200" lon="35.2430800">
<ele>-116.799995</ele>
<time>2023-02-01T10:53:28.799Z</time>
</trkpt>
<trkpt lat="30.9299600" lon="35.2431300">
<ele>-116.700005</ele>
<time>2023-02-01T10:53:28.799Z</time>
</trkpt>
<trkpt lat="30.9298600" lon="35.2431700">
<ele>-114.910004</ele>
<time>2023-02-01T10:53:28.799Z</time>
</trkpt>
<trkpt lat="30.9297300" lon="35.2431700">
<ele>-111.609993</ele>
<time>2023-02-01T10:53:28.799Z</time>
</trkpt>
<trkpt lat="30.9295000" lon="35.2430500">
<ele>-111.750000</ele>
<time>2023-02-01T10:53:28.799Z</time>
</trkpt>
<trkpt lat="30.9293000" lon="35.2428700">
<ele>-111.879997</ele>
<time>2023-02-01T10:53:28.799Z</time>
</trkpt>
<trkpt lat="30.9292200" lon="35.2428600">
<ele>-112.539993</ele>
<time>2023-02-01T10:53:28.799Z</time>
</trkpt>
<trkpt lat="30.9290500" lon="35.2429000">
<ele>-114.919998</ele>
<time>2023-02-01T10:53:28.799Z</time>
</trkpt>
<trkpt lat="30.9287200" lon="35.2428700">
<ele>-120.099998</ele>
<time>2023-02-01T10:53:28.799Z</time>
</trkpt>
<trkpt lat="30.9286500" lon="35.2429000">
<ele>-121.279999</ele>
<time>2023-02-01T10:53:28.799Z</time>
</trkpt>
<trkpt lat="30.9286100" lon="35.2429700">
<ele>-122.409996</ele>
<time>2023-02-01T10:53:28.799Z</time>
</trkpt>
<trkpt lat="30.9286100" lon="35.2430400">
<ele>-122.920006</ele>
<time>2023-02-01T10:53:28.799Z</time>
</trkpt>
<trkpt lat="30.9286600" lon="35.2432000">
<ele>-121.390007</ele>
<time>2023-02-01T10:53:28.799Z</time>
</trkpt>
<trkpt lat="30.9286600" lon="35.2433400">
<ele>-120.660004</ele>
<time>2023-02-01T10:53:28.799Z</time>
</trkpt>
<trkpt lat="30.9286300" lon="35.2434000">
<ele>-119.820000</ele>
<time>2023-02-01T10:53:28.799Z</time>
</trkpt>
<trkpt lat="30.9285700" lon="35.2434200">
<ele>-121.540001</ele>
<time>2023-02-01T10:53:28.799Z</time>
</trkpt>
<trkpt lat="30.9284800" lon="35.2434300">
<ele>-124.920006</ele>
<time>2023-02-01T10:53:28.799Z</time>
</trkpt>
<trkpt lat="30.9281500" lon="35.2434300">
<ele>-138.679993</ele>
<time>2023-02-01T10:53:28.799Z</time>
</trkpt>
<trkpt lat="30.9280300" lon="35.2434900">
<ele>-142.720001</ele>
<time>2023-02-01T10:53:28.799Z</time>
</trkpt>
<trkpt lat="30.9277400" lon="35.2437700">
<ele>-144.050003</ele>
<time>2023-02-01T10:53:28.799Z</time>
</trkpt>
<trkpt lat="30.9272800" lon="35.2441500">
<ele>-150.350006</ele>
<time>2023-02-01T10:53:28.799Z</time>
</trkpt>
<trkpt lat="30.9270500" lon="35.2443200">
<ele>-155.500000</ele>
<time>2023-02-01T10:53:28.799Z</time>
</trkpt>
<trkpt lat="30.9268700" lon="35.2445000">
<ele>-160.130005</ele>
<time>2023-02-01T10:53:28.799Z</time>
</trkpt>
<trkpt lat="30.9267700" lon="35.2445700">
<ele>-163.210007</ele>
<time>2023-02-01T10:53:28.799Z</time>
</trkpt>
<trkpt lat="30.9267000" lon="35.2445900">
<ele>-165.690002</ele>
<time>2023-02-01T10:53:28.799Z</time>
</trkpt>
<trkpt lat="30.9266300" lon="35.2445700">
<ele>-167.670013</ele>
<time>2023-02-01T10:53:28.799Z</time>
</trkpt>
<trkpt lat="30.9265900" lon="35.2445200">
<ele>-168.509995</ele>
<time>2023-02-01T10:53:28.799Z</time>
</trkpt>
<trkpt lat="30.9264600" lon="35.2442400">
<ele>-170.229996</ele>
<time>2023-02-01T10:53:28.799Z</time>
</trkpt>
<trkpt lat="30.9263900" lon="35.2441500">
<ele>-170.989990</ele>
<time>2023-02-01T10:53:28.799Z</time>
</trkpt>
<trkpt lat="30.9263100" lon="35.2441200">
<ele>-171.520004</ele>
<time>2023-02-01T10:53:28.799Z</time>
</trkpt>
<trkpt lat="30.9262200" lon="35.2442200">
<ele>-171.750000</ele>
<time>2023-02-01T10:53:28.799Z</time>
</trkpt>
<trkpt lat="30.9262800" lon="35.2444200">
<ele>-170.349991</ele>
<time>2023-02-01T10:53:28.799Z</time>
</trkpt>
<trkpt lat="30.9263600" lon="35.2448500">
<ele>-173.270004</ele>
<time>2023-02-01T10:53:28.799Z</time>
</trkpt>
<trkpt lat="30.9263700" lon="35.2450200">
<ele>-175.010010</ele>
<time>2023-02-01T10:53:28.799Z</time>
</trkpt>
<trkpt lat="30.9264400" lon="35.2460200">
<ele>-171.840012</ele>
<time>2023-02-01T10:53:28.799Z</time>
</trkpt>
<trkpt lat="30.9264100" lon="35.2461400">
<ele>-171.160004</ele>
<time>2023-02-01T10:53:28.799Z</time>
</trkpt>
<trkpt lat="30.9261200" lon="35.2470700">
<ele>-173.309998</ele>
<time>2023-02-01T10:53:28.799Z</time>
</trkpt>
<trkpt lat="30.9260600" lon="35.2474800">
<ele>-175.669998</ele>
<time>2023-02-01T10:53:28.799Z</time>
</trkpt>
<trkpt lat="30.9260900" lon="35.2479500">
<ele>-178.849991</ele>
<time>2023-02-01T10:53:28.799Z</time>
</trkpt>
<trkpt lat="30.9263800" lon="35.2486000">
<ele>-176.839996</ele>
<time>2023-02-01T10:53:28.799Z</time>
</trkpt>
<trkpt lat="30.9283100" lon="35.2504600">
<ele>-176.860001</ele>
<time>2023-02-01T10:53:28.799Z</time>
</trkpt>
<trkpt lat="30.9288800" lon="35.2509300">
<ele>-169.510010</ele>
<time>2023-02-01T10:53:28.799Z</time>
</trkpt>
<trkpt lat="30.9297500" lon="35.2515200">
<ele>-172.639999</ele>
<time>2023-02-01T10:53:28.799Z</time>
</trkpt>
<trkpt lat="30.9308200" lon="35.2523800">
<ele>-181.190002</ele>
<time>2023-02-01T10:53:28.799Z</time>
</trkpt>
<trkpt lat="30.9310400" lon="35.2526600">
<ele>-180.680008</ele>
<time>2023-02-01T10:53:28.799Z</time>
</trkpt>
<trkpt lat="30.9310800" lon="35.2528100">
<ele>-182.360001</ele>
<time>2023-02-01T10:53:28.799Z</time>
</trkpt>
<trkpt lat="30.9310700" lon="35.2530200">
<ele>-184.020004</ele>
<time>2023-02-01T10:53:28.799Z</time>
</trkpt>
<trkpt lat="30.9310900" lon="35.2530700">
<ele>-184.190002</ele>
<time>2023-02-01T10:53:28.799Z</time>
</trkpt>
<trkpt lat="30.9311800" lon="35.2533300">
<ele>-185.220001</ele>
<time>2023-02-01T10:53:28.799Z</time>
</trkpt>
<trkpt lat="30.9313300" lon="35.2537300">
<ele>-187.910004</ele>
<time>2023-02-01T10:53:28.799Z</time>
</trkpt>
<trkpt lat="30.9315700" lon="35.2543800">
<ele>-188.390015</ele>
<time>2023-02-01T10:53:28.799Z</time>
</trkpt>
<trkpt lat="30.9316000" lon="35.2545300">
<ele>-188.479996</ele>
<time>2023-02-01T10:53:28.799Z</time>
</trkpt>
<trkpt lat="30.9315700" lon="35.2551500">
<ele>-187.529999</ele>
<time>2023-02-01T10:53:28.799Z</time>
</trkpt>
<trkpt lat="30.9314400" lon="35.2556700">
<ele>-188.370010</ele>
<time>2023-02-01T10:53:28.799Z</time>
</trkpt>
<trkpt lat="30.9313200" lon="35.2559800">
<ele>-188.639999</ele>
<time>2023-02-01T10:53:28.799Z</time>
</trkpt>
<trkpt lat="30.9313100" lon="35.2560100">
<ele>-188.520004</ele>
<time>2023-02-01T10:53:28.799Z</time>
</trkpt>
<trkpt lat="30.9312700" lon="35.2560700">
<ele>-188.889999</ele>
<time>2023-02-01T10:53:28.799Z</time>
</trkpt>
<trkpt lat="30.9312300" lon="35.2561200">
<ele>-189.310013</ele>
<time>2023-02-01T10:53:28.799Z</time>
</trkpt>
<trkpt lat="30.9311000" lon="35.2562800">
<ele>-188.289993</ele>
<time>2023-02-01T10:53:28.799Z</time>
</trkpt>
<trkpt lat="30.9310600" lon="35.2563200">
<ele>-187.770004</ele>
<time>2023-02-01T10:53:28.799Z</time>
</trkpt>
<trkpt lat="30.9307300" lon="35.2566800">
<ele>-182.659988</ele>
<time>2023-02-01T10:53:28.799Z</time>
</trkpt>
<trkpt lat="30.9302700" lon="35.2567800">
<ele>-188.349991</ele>
<time>2023-02-01T10:53:28.799Z</time>
</trkpt>
<trkpt lat="30.9299100" lon="35.2566900">
<ele>-187.740005</ele>
<time>2023-02-01T10:53:28.799Z</time>
</trkpt>
<trkpt lat="30.9295700" lon="35.2566400">
<ele>-183.889999</ele>
<time>2023-02-01T10:53:28.799Z</time>
</trkpt>
<trkpt lat="30.9294600" lon="35.2567000">
<ele>-185.520004</ele>
<time>2023-02-01T10:53:28.799Z</time>
</trkpt>
<trkpt lat="30.9294000" lon="35.2567400">
<ele>-186.829987</ele>
<time>2023-02-01T10:53:28.799Z</time>
</trkpt>
<trkpt lat="30.9292200" lon="35.2568900">
<ele>-190.299988</ele>
<time>2023-02-01T10:53:28.799Z</time>
</trkpt>
<trkpt lat="30.9288800" lon="35.2571200">
<ele>-192.880005</ele>
<time>2023-02-01T10:53:28.799Z</time>
</trkpt>
<trkpt lat="30.9284400" lon="35.2574800">
<ele>-191.020004</ele>
<time>2023-02-01T10:53:28.799Z</time>
</trkpt>
<trkpt lat="30.9279900" lon="35.2578700">
<ele>-193.729996</ele>
<time>2023-02-01T10:53:28.799Z</time>
</trkpt>
<trkpt lat="30.9278900" lon="35.2579500">
<ele>-194.100006</ele>
<time>2023-02-01T10:53:28.799Z</time>
</trkpt>
<trkpt lat="30.9277800" lon="35.2580600">
<ele>-194.940002</ele>
<time>2023-02-01T10:53:28.799Z</time>
</trkpt>
<trkpt lat="30.9277200" lon="35.2581400">
<ele>-194.810013</ele>
<time>2023-02-01T10:53:28.799Z</time>
</trkpt>
<trkpt lat="30.9275900" lon="35.2584700">
<ele>-192.070007</ele>
<time>2023-02-01T10:53:28.799Z</time>
</trkpt>
<trkpt lat="30.9274300" lon="35.2588000">
<ele>-188.960007</ele>
<time>2023-02-01T10:53:28.799Z</time>
</trkpt>
<trkpt lat="30.9274000" lon="35.2589300">
<ele>-187.539993</ele>
<time>2023-02-01T10:53:28.799Z</time>
</trkpt>
<trkpt lat="30.9273900" lon="35.2591500">
<ele>-184.799988</ele>
<time>2023-02-01T10:53:28.799Z</time>
</trkpt>
<trkpt lat="30.9273700" lon="35.2593300">
<ele>-183.660004</ele>
<time>2023-02-01T10:53:28.799Z</time>
</trkpt>
<trkpt lat="30.9273300" lon="35.2594700">
<ele>-183.559998</ele>
<time>2023-02-01T10:53:28.799Z</time>
</trkpt>
<trkpt lat="30.9270600" lon="35.2600600">
<ele>-189.699997</ele>
<time>2023-02-01T10:53:28.799Z</time>
</trkpt>
<trkpt lat="30.9269100" lon="35.2604900">
<ele>-190.539993</ele>
<time>2023-02-01T10:53:28.799Z</time>
</trkpt>
<trkpt lat="30.9268100" lon="35.2610700">
<ele>-190.860001</ele>
<time>2023-02-01T10:53:28.799Z</time>
</trkpt>
<trkpt lat="30.9268000" lon="35.2612000">
<ele>-191.250000</ele>
<time>2023-02-01T10:53:28.799Z</time>
</trkpt>
<trkpt lat="30.9268100" lon="35.2615500">
<ele>-191.419998</ele>
<time>2023-02-01T10:53:28.799Z</time>
</trkpt>
<trkpt lat="30.9268400" lon="35.2617300">
<ele>-191.250000</ele>
<time>2023-02-01T10:53:28.799Z</time>
</trkpt>
<trkpt lat="30.9268400" lon="35.2619500">
<ele>-192.500015</ele>
<time>2023-02-01T10:53:28.799Z</time>
</trkpt>
<trkpt lat="30.9268200" lon="35.2620800">
<ele>-192.789993</ele>
<time>2023-02-01T10:53:28.799Z</time>
</trkpt>
<trkpt lat="30.9267800" lon="35.2622300">
<ele>-193.350006</ele>
<time>2023-02-01T10:53:28.799Z</time>
</trkpt>
<trkpt lat="30.9267200" lon="35.2624800">
<ele>-193.480011</ele>
<time>2023-02-01T10:53:28.799Z</time>
</trkpt>
<trkpt lat="30.9266700" lon="35.2626000">
<ele>-193.259995</ele>
<time>2023-02-01T10:53:28.799Z</time>
</trkpt>
<trkpt lat="30.9266000" lon="35.2626600">
<ele>-191.989990</ele>
<time>2023-02-01T10:53:28.799Z</time>
</trkpt>
<trkpt lat="30.9264800" lon="35.2627300">
<ele>-189.770004</ele>
<time>2023-02-01T10:53:28.799Z</time>
</trkpt>
<trkpt lat="30.9264500" lon="35.2627400">
<ele>-189.259995</ele>
<time>2023-02-01T10:53:28.799Z</time>
</trkpt>
<trkpt lat="30.9263900" lon="35.2628100">
<ele>-187.550003</ele>
<time>2023-02-01T10:53:28.799Z</time>
</trkpt>
<trkpt lat="30.9264200" lon="35.2629500">
<ele>-186.180008</ele>
<time>2023-02-01T10:53:28.799Z</time>
</trkpt>
<trkpt lat="30.9264700" lon="35.2630500">
<ele>-186.110001</ele>
<time>2023-02-01T10:53:28.799Z</time>
</trkpt>
<trkpt lat="30.9265500" lon="35.2631800">
<ele>-186.639999</ele>
<time>2023-02-01T10:53:28.799Z</time>
</trkpt>
<trkpt lat="30.9267100" lon="35.2635300">
<ele>-185.309998</ele>
<time>2023-02-01T10:53:28.799Z</time>
</trkpt>
<trkpt lat="30.9269300" lon="35.2638500">
<ele>-190.410004</ele>
<time>2023-02-01T10:53:28.799Z</time>
</trkpt>
<trkpt lat="30.9270400" lon="35.2640300">
<ele>-192.909988</ele>
<time>2023-02-01T10:53:28.799Z</time>
</trkpt>
<trkpt lat="30.9271900" lon="35.2643500">
<ele>-199.090012</ele>
<time>2023-02-01T10:53:28.799Z</time>
</trkpt>
<trkpt lat="30.9272700" lon="35.2645900">
<ele>-201.250000</ele>
<time>2023-02-01T10:53:28.799Z</time>
</trkpt>
<trkpt lat="30.9272900" lon="35.2646700">
<ele>-201.290009</ele>
<time>2023-02-01T10:53:28.799Z</time>
</trkpt>
<trkpt lat="30.9272900" lon="35.2647700">
<ele>-200.979996</ele>
<time>2023-02-01T10:53:28.799Z</time>
</trkpt>
<trkpt lat="30.9272200" lon="35.2650100">
<ele>-198.819992</ele>
<time>2023-02-01T10:53:28.799Z</time>
</trkpt>
<trkpt lat="30.9273000" lon="35.2651500">
<ele>-198.910004</ele>
<time>2023-02-01T10:53:28.799Z</time>
</trkpt>
<trkpt lat="30.9273300" lon="35.2653400">
<ele>-198.280014</ele>
<time>2023-02-01T10:53:28.799Z</time>
</trkpt>
<trkpt lat="30.9274100" lon="35.2655100">
<ele>-199.159988</ele>
<time>2023-02-01T10:53:28.799Z</time>
</trkpt>
<trkpt lat="30.9274400" lon="35.2656000">
<ele>-199.670013</ele>
<time>2023-02-01T10:53:28.799Z</time>
</trkpt>
<trkpt lat="30.9274600" lon="35.2657300">
<ele>-200.050003</ele>
<time>2023-02-01T10:53:28.799Z</time>
</trkpt>
<trkpt lat="30.9274400" lon="35.2659000">
<ele>-199.300003</ele>
<time>2023-02-01T10:53:28.799Z</time>
</trkpt>
<trkpt lat="30.9274900" lon="35.2660600">
<ele>-199.960007</ele>
<time>2023-02-01T10:53:28.799Z</time>
</trkpt>
<trkpt lat="30.9275200" lon="35.2662400">
<ele>-199.789993</ele>
<time>2023-02-01T10:53:28.799Z</time>
</trkpt>
<trkpt lat="30.9275500" lon="35.2663700">
<ele>-199.779999</ele>
<time>2023-02-01T10:53:28.799Z</time>
</trkpt>
<trkpt lat="30.9277800" lon="35.2668100">
<ele>-199.470001</ele>
<time>2023-02-01T10:53:28.799Z</time>
</trkpt>
<trkpt lat="30.9278200" lon="35.2669700">
<ele>-197.860001</ele>
<time>2023-02-01T10:53:28.799Z</time>
</trkpt>
<trkpt lat="30.9280200" lon="35.2673800">
<ele>-193.270004</ele>
<time>2023-02-01T10:53:28.799Z</time>
</trkpt>
<trkpt lat="30.9281000" lon="35.2675000">
<ele>-192.639999</ele>
<time>2023-02-01T10:53:28.799Z</time>
</trkpt>
<trkpt lat="30.9282500" lon="35.2676900">
<ele>-195.069992</ele>
<time>2023-02-01T10:53:28.799Z</time>
</trkpt>
<trkpt lat="30.9283800" lon="35.2679400">
<ele>-196.529999</ele>
<time>2023-02-01T10:53:28.799Z</time>
</trkpt>
<trkpt lat="30.9285400" lon="35.2681000">
<ele>-198.559998</ele>
<time>2023-02-01T10:53:28.799Z</time>
</trkpt>
<trkpt lat="30.9286400" lon="35.2682200">
<ele>-199.410004</ele>
<time>2023-02-01T10:53:28.799Z</time>
</trkpt>
<trkpt lat="30.9287800" lon="35.2684800">
<ele>-199.730011</ele>
<time>2023-02-01T10:53:28.799Z</time>
</trkpt>
<trkpt lat="30.9288700" lon="35.2686500">
<ele>-200.590012</ele>
<time>2023-02-01T10:53:28.799Z</time>
</trkpt>
<trkpt lat="30.9289100" lon="35.2688700">
<ele>-203.889999</ele>
<time>2023-02-01T10:53:28.799Z</time>
</trkpt>
<trkpt lat="30.9289300" lon="35.2689200">
<ele>-204.440002</ele>
<time>2023-02-01T10:53:28.799Z</time>
</trkpt>
<trkpt lat="30.9289500" lon="35.2691800">
<ele>-205.850006</ele>
<time>2023-02-01T10:53:28.799Z</time>
</trkpt>
<trkpt lat="30.9289200" lon="35.2694900">
<ele>-204.619995</ele>
<time>2023-02-01T10:53:28.799Z</time>
</trkpt>
<trkpt lat="30.9288600" lon="35.2698800">
<ele>-201.860001</ele>
<time>2023-02-01T10:53:28.799Z</time>
</trkpt>
<trkpt lat="30.9288100" lon="35.2700200">
<ele>-199.990005</ele>
<time>2023-02-01T10:53:28.799Z</time>
</trkpt>
<trkpt lat="30.9287600" lon="35.2701300">
<ele>-198.210007</ele>
<time>2023-02-01T10:53:28.799Z</time>
</trkpt>
<trkpt lat="30.9287400" lon="35.2702200">
<ele>-197.360016</ele>
<time>2023-02-01T10:53:28.799Z</time>
</trkpt>
<trkpt lat="30.9287400" lon="35.2704100">
<ele>-198.699997</ele>
<time>2023-02-01T10:53:28.799Z</time>
</trkpt>
<trkpt lat="30.9287700" lon="35.2706600">
<ele>-199.360001</ele>
<time>2023-02-01T10:53:28.799Z</time>
</trkpt>
<trkpt lat="30.9287100" lon="35.2709400">
<ele>-193.710007</ele>
<time>2023-02-01T10:53:28.799Z</time>
</trkpt>
<trkpt lat="30.9287900" lon="35.2712500">
<ele>-195.339996</ele>
<time>2023-02-01T10:53:28.799Z</time>
</trkpt>
<trkpt lat="30.9287800" lon="35.2715900">
<ele>-190.039993</ele>
<time>2023-02-01T10:53:28.799Z</time>
</trkpt>
<trkpt lat="30.9287200" lon="35.2716700">
<ele>-184.389984</ele>
<time>2023-02-01T10:53:28.799Z</time>
</trkpt>
<trkpt lat="30.9285600" lon="35.2718100">
<ele>-173.779999</ele>
<time>2023-02-01T10:53:28.799Z</time>
</trkpt>
<trkpt lat="30.9285300" lon="35.2718300">
<ele>-173.119995</ele>
<time>2023-02-01T10:53:28.799Z</time>
</trkpt>
<trkpt lat="30.9284700" lon="35.2718400">
<ele>-172.290009</ele>
<time>2023-02-01T10:53:28.799Z</time>
</trkpt>
<trkpt lat="30.9282500" lon="35.2717500">
<ele>-172.690002</ele>
<time>2023-02-01T10:53:28.799Z</time>
</trkpt>
<trkpt lat="30.9280000" lon="35.2718000">
<ele>-176.220001</ele>
<time>2023-02-01T10:53:28.799Z</time>
</trkpt>
<trkpt lat="30.9275100" lon="35.2717800">
<ele>-179.959991</ele>
<time>2023-02-01T10:53:28.799Z</time>
</trkpt>
<trkpt lat="30.9273900" lon="35.2718000">
<ele>-180.400009</ele>
<time>2023-02-01T10:53:28.799Z</time>
</trkpt>
<trkpt lat="30.9271300" lon="35.2718200">
<ele>-180.369995</ele>
<time>2023-02-01T10:53:28.799Z</time>
</trkpt>
<trkpt lat="30.9270100" lon="35.2718400">
<ele>-179.659988</ele>
<time>2023-02-01T10:53:28.799Z</time>
</trkpt>
<trkpt lat="30.9267500" lon="35.2718900">
<ele>-174.009995</ele>
<time>2023-02-01T10:53:28.799Z</time>
</trkpt>
<trkpt lat="30.9262400" lon="35.2719200">
<ele>-168.919998</ele>
<time>2023-02-01T10:53:28.799Z</time>
</trkpt>
<trkpt lat="30.9255200" lon="35.2720100">
<ele>-162.699997</ele>
<time>2023-02-01T10:53:28.799Z</time>
</trkpt>
<trkpt lat="30.9252800" lon="35.2720100">
<ele>-157.110001</ele>
<time>2023-02-01T10:53:28.799Z</time>
</trkpt>
<trkpt lat="30.9249600" lon="35.2719700">
<ele>-151.320007</ele>
<time>2023-02-01T10:53:28.799Z</time>
</trkpt>
<trkpt lat="30.9247300" lon="35.2719700">
<ele>-150.570007</ele>
<time>2023-02-01T10:53:28.799Z</time>
</trkpt>
<trkpt lat="30.9246100" lon="35.2719800">
<ele>-150.009995</ele>
<time>2023-02-01T10:53:28.799Z</time>
</trkpt>
<trkpt lat="30.9242000" lon="35.2720900">
<ele>-149.709991</ele>
<time>2023-02-01T10:53:28.799Z</time>
</trkpt>
<trkpt lat="30.9240800" lon="35.2721500">
<ele>-152.319992</ele>
<time>2023-02-01T10:53:28.799Z</time>
</trkpt>
<trkpt lat="30.9239700" lon="35.2722400">
<ele>-156.059998</ele>
<time>2023-02-01T10:53:28.799Z</time>
</trkpt>
<trkpt lat="30.9237500" lon="35.2724700">
<ele>-161.449997</ele>
<time>2023-02-01T10:53:28.799Z</time>
</trkpt>
<trkpt lat="30.9235100" lon="35.2728400">
<ele>-163.799988</ele>
<time>2023-02-01T10:53:28.799Z</time>
</trkpt>
<trkpt lat="30.9232200" lon="35.2731700">
<ele>-166.960007</ele>
<time>2023-02-01T10:53:28.799Z</time>
</trkpt>
<trkpt lat="30.9227800" lon="35.2735800">
<ele>-170.750000</ele>
<time>2023-02-01T10:53:28.799Z</time>
</trkpt>
<trkpt lat="30.9224700" lon="35.2737500">
<ele>-174.000000</ele>
<time>2023-02-01T10:53:28.799Z</time>
</trkpt>
<trkpt lat="30.9223400" lon="35.2738600">
<ele>-173.660004</ele>
<time>2023-02-01T10:53:28.799Z</time>
</trkpt>
<trkpt lat="30.9216400" lon="35.2746700">
<ele>-179.100006</ele>
<time>2023-02-01T10:53:28.799Z</time>
</trkpt>
<trkpt lat="30.9214100" lon="35.2749000">
<ele>-181.820007</ele>
<time>2023-02-01T10:53:28.799Z</time>
</trkpt>
<trkpt lat="30.9213100" lon="35.2750000">
<ele>-182.849991</ele>
<time>2023-02-01T10:53:28.799Z</time>
</trkpt>
<trkpt lat="30.9212000" lon="35.2751500">
<ele>-183.669998</ele>
<time>2023-02-01T10:53:28.799Z</time>
</trkpt>
<trkpt lat="30.9211600" lon="35.2752400">
<ele>-183.759995</ele>
<time>2023-02-01T10:53:28.799Z</time>
</trkpt>
<trkpt lat="30.9211300" lon="35.2754500">
<ele>-183.949997</ele>
<time>2023-02-01T10:53:28.799Z</time>
</trkpt>
<trkpt lat="30.9210900" lon="35.2762100">
<ele>-185.099991</ele>
<time>2023-02-01T10:53:28.799Z</time>
</trkpt>
<trkpt lat="30.9210600" lon="35.2764300">
<ele>-185.520004</ele>
<time>2023-02-01T10:53:28.799Z</time>
</trkpt>
<trkpt lat="30.9209800" lon="35.2767600">
<ele>-187.620010</ele>
<time>2023-02-01T10:53:28.799Z</time>
</trkpt>
<trkpt lat="30.9209600" lon="35.2774800">
<ele>-191.510010</ele>
<time>2023-02-01T10:53:28.799Z</time>
</trkpt>
<trkpt lat="30.9208200" lon="35.2782900">
<ele>-192.990005</ele>
<time>2023-02-01T10:53:28.799Z</time>
</trkpt>
<trkpt lat="30.9207800" lon="35.2784100">
<ele>-193.279999</ele>
<time>2023-02-01T10:53:28.799Z</time>
</trkpt>
<trkpt lat="30.9207800" lon="35.2785300">
<ele>-193.710007</ele>
<time>2023-02-01T10:53:28.799Z</time>
</trkpt>
<trkpt lat="30.9207800" lon="35.2787600">
<ele>-194.740005</ele>
<time>2023-02-01T10:53:28.799Z</time>
</trkpt>
<trkpt lat="30.9207700" lon="35.2788500">
<ele>-195.250000</ele>
<time>2023-02-01T10:53:28.799Z</time>
</trkpt>
<trkpt lat="30.9207300" lon="35.2788900">
<ele>-195.750000</ele>
<time>2023-02-01T10:53:28.799Z</time>
</trkpt>
<trkpt lat="30.9206500" lon="35.2789300">
<ele>-196.269989</ele>
<time>2023-02-01T10:53:28.799Z</time>
</trkpt>
<trkpt lat="30.9205700" lon="35.2789600">
<ele>-196.669998</ele>
<time>2023-02-01T10:53:28.799Z</time>
</trkpt>
<trkpt lat="30.9204400" lon="35.2790100">
<ele>-196.509995</ele>
<time>2023-02-01T10:53:28.799Z</time>
</trkpt>
<trkpt lat="30.9204000" lon="35.2790400">
<ele>-196.509995</ele>
<time>2023-02-01T10:53:28.799Z</time>
</trkpt>
<trkpt lat="30.9203500" lon="35.2791100">
<ele>-196.639999</ele>
<time>2023-02-01T10:53:28.799Z</time>
</trkpt>
<trkpt lat="30.9203000" lon="35.2793000">
<ele>-196.919998</ele>
<time>2023-02-01T10:53:28.799Z</time>
</trkpt>
<trkpt lat="30.9203100" lon="35.2794200">
<ele>-196.880005</ele>
<time>2023-02-01T10:53:28.799Z</time>
</trkpt>
<trkpt lat="30.9203000" lon="35.2795000">
<ele>-196.149994</ele>
<time>2023-02-01T10:53:28.799Z</time>
</trkpt>
<trkpt lat="30.9202700" lon="35.2795600">
<ele>-195.369995</ele>
<time>2023-02-01T10:53:28.799Z</time>
</trkpt>
<trkpt lat="30.9202200" lon="35.2796200">
<ele>-194.870010</ele>
<time>2023-02-01T10:53:28.799Z</time>
</trkpt>
<trkpt lat="30.9201100" lon="35.2796700">
<ele>-195.219986</ele>
<time>2023-02-01T10:53:28.799Z</time>
</trkpt>
<trkpt lat="30.9195300" lon="35.2796900">
<ele>-194.889999</ele>
<time>2023-02-01T10:53:28.799Z</time>
</trkpt>
<trkpt lat="30.9194300" lon="35.2797200">
<ele>-194.179993</ele>
<time>2023-02-01T10:53:28.799Z</time>
</trkpt>
<trkpt lat="30.9193600" lon="35.2797800">
<ele>-194.699997</ele>
<time>2023-02-01T10:53:28.799Z</time>
</trkpt>
<trkpt lat="30.9193100" lon="35.2798000">
<ele>-195.169998</ele>
<time>2023-02-01T10:53:28.799Z</time>
</trkpt>
<trkpt lat="30.9185700" lon="35.2797100">
<ele>-200.639999</ele>
<time>2023-02-01T10:53:28.799Z</time>
</trkpt>
<trkpt lat="30.9184100" lon="35.2796500">
<ele>-199.779999</ele>
<time>2023-02-01T10:53:28.799Z</time>
</trkpt>
<trkpt lat="30.9183000" lon="35.2796400">
<ele>-199.470001</ele>
<time>2023-02-01T10:53:28.799Z</time>
</trkpt>
<trkpt lat="30.9181500" lon="35.2796800">
<ele>-198.639999</ele>
<time>2023-02-01T10:53:28.799Z</time>
</trkpt>
<trkpt lat="30.9177900" lon="35.2798300">
<ele>-199.509995</ele>
<time>2023-02-01T10:53:28.799Z</time>
</trkpt>
<trkpt lat="30.9175400" lon="35.2799000">
<ele>-201.069992</ele>
<time>2023-02-01T10:53:28.799Z</time>
</trkpt>
<trkpt lat="30.9174400" lon="35.2799100">
<ele>-201.110001</ele>
<time>2023-02-01T10:53:28.799Z</time>
</trkpt>
<trkpt lat="30.9170700" lon="35.2798300">
<ele>-200.949997</ele>
<time>2023-02-01T10:53:28.799Z</time>
</trkpt>
<trkpt lat="30.9168900" lon="35.2798200">
<ele>-201.630005</ele>
<time>2023-02-01T10:53:28.799Z</time>
</trkpt>
<trkpt lat="30.9167200" lon="35.2798400">
<ele>-202.649994</ele>
<time>2023-02-01T10:53:28.799Z</time>
</trkpt>
<trkpt lat="30.9165500" lon="35.2798900">
<ele>-203.919998</ele>
<time>2023-02-01T10:53:28.799Z</time>
</trkpt>
<trkpt lat="30.9162600" lon="35.2800800">
<ele>-204.750000</ele>
<time>2023-02-01T10:53:28.799Z</time>
</trkpt>
<trkpt lat="30.9160400" lon="35.2802900">
<ele>-202.179993</ele>
<time>2023-02-01T10:53:28.799Z</time>
</trkpt>
<trkpt lat="30.9157700" lon="35.2805100">
<ele>-202.689987</ele>
<time>2023-02-01T10:53:28.799Z</time>
</trkpt>
<trkpt lat="30.9154400" lon="35.2807300">
<ele>-205.349991</ele>
<time>2023-02-01T10:53:28.799Z</time>
</trkpt>
<trkpt lat="30.9152500" lon="35.2808300">
<ele>-208.270004</ele>
<time>2023-02-01T10:53:28.799Z</time>
</trkpt>
<trkpt lat="30.9148900" lon="35.2811700">
<ele>-215.040009</ele>
<time>2023-02-01T10:53:28.799Z</time>
</trkpt>
<trkpt lat="30.9146400" lon="35.2813700">
<ele>-217.869995</ele>
<time>2023-02-01T10:53:28.799Z</time>
</trkpt>
<trkpt lat="30.9144500" lon="35.2815100">
<ele>-216.910004</ele>
<time>2023-02-01T10:53:28.799Z</time>
</trkpt>
<trkpt lat="30.9142100" lon="35.2816500">
<ele>-217.039993</ele>
<time>2023-02-01T10:53:28.799Z</time>
</trkpt>
<trkpt lat="30.9140500" lon="35.2817500">
<ele>-216.880005</ele>
<time>2023-02-01T10:53:28.799Z</time>
</trkpt>
<trkpt lat="30.9137900" lon="35.2819600">
<ele>-217.360001</ele>
<time>2023-02-01T10:53:28.799Z</time>
</trkpt>
<trkpt lat="30.9137100" lon="35.2820400">
<ele>-217.639999</ele>
<time>2023-02-01T10:53:28.799Z</time>
</trkpt>
<trkpt lat="30.9136400" lon="35.2821400">
<ele>-217.900009</ele>
<time>2023-02-01T10:53:28.799Z</time>
</trkpt>
<trkpt lat="30.9135100" lon="35.2823700">
<ele>-219.449997</ele>
<time>2023-02-01T10:53:28.799Z</time>
</trkpt>
<trkpt lat="30.9133600" lon="35.2828700">
<ele>-219.649994</ele>
<time>2023-02-01T10:53:28.799Z</time>
</trkpt>
<trkpt lat="30.9132700" lon="35.2831200">
<ele>-218.729996</ele>
<time>2023-02-01T10:53:28.799Z</time>
</trkpt>
<trkpt lat="30.9130400" lon="35.2837600">
<ele>-218.180008</ele>
<time>2023-02-01T10:53:28.799Z</time>
</trkpt>
<trkpt lat="30.9129200" lon="35.2839900">
<ele>-218.400009</ele>
<time>2023-02-01T10:53:28.799Z</time>
</trkpt>
<trkpt lat="30.9121700" lon="35.2852400">
<ele>-219.589996</ele>
<time>2023-02-01T10:53:28.799Z</time>
</trkpt>
<trkpt lat="30.9119200" lon="35.2856000">
<ele>-220.190002</ele>
<time>2023-02-01T10:53:28.799Z</time>
</trkpt>
<trkpt lat="30.9117900" lon="35.2858700">
<ele>-221.220001</ele>
<time>2023-02-01T10:53:28.799Z</time>
</trkpt>
<trkpt lat="30.9116900" lon="35.2861300">
<ele>-222.729996</ele>
<time>2023-02-01T10:53:28.799Z</time>
</trkpt>
<trkpt lat="30.9116300" lon="35.2863900">
<ele>-224.399994</ele>
<time>2023-02-01T10:53:28.799Z</time>
</trkpt>
<trkpt lat="30.9115900" lon="35.2866100">
<ele>-225.619995</ele>
<time>2023-02-01T10:53:28.799Z</time>
</trkpt>
<trkpt lat="30.9114800" lon="35.2869800">
<ele>-226.129990</ele>
<time>2023-02-01T10:53:28.799Z</time>
</trkpt>
<trkpt lat="30.9112700" lon="35.2873800">
<ele>-226.470016</ele>
<time>2023-02-01T10:53:28.799Z</time>
</trkpt>
<trkpt lat="30.9111300" lon="35.2877700">
<ele>-227.799988</ele>
<time>2023-02-01T10:53:28.799Z</time>
</trkpt>
<trkpt lat="30.9111000" lon="35.2879400">
<ele>-228.619995</ele>
<time>2023-02-01T10:53:28.799Z</time>
</trkpt>
<trkpt lat="30.9110700" lon="35.2882400">
<ele>-229.809998</ele>
<time>2023-02-01T10:53:28.799Z</time>
</trkpt>
<trkpt lat="30.9110700" lon="35.2886000">
<ele>-230.680008</ele>
<time>2023-02-01T10:53:28.799Z</time>
</trkpt>
<trkpt lat="30.9110900" lon="35.2888300">
<ele>-229.210007</ele>
<time>2023-02-01T10:53:28.799Z</time>
</trkpt>
<trkpt lat="30.9112100" lon="35.2893100">
<ele>-230.470001</ele>
<time>2023-02-01T10:53:28.799Z</time>
</trkpt>
<trkpt lat="30.9112300" lon="35.2894500">
<ele>-230.570007</ele>
<time>2023-02-01T10:53:28.799Z</time>
</trkpt>
<trkpt lat="30.9115000" lon="35.2900400">
<ele>-231.799988</ele>
<time>2023-02-01T10:53:28.799Z</time>
</trkpt>
<trkpt lat="30.9115100" lon="35.2902100">
<ele>-231.869995</ele>
<time>2023-02-01T10:53:28.799Z</time>
</trkpt>
<trkpt lat="30.9114700" lon="35.2903700">
<ele>-231.490005</ele>
<time>2023-02-01T10:53:28.799Z</time>
</trkpt>
<trkpt lat="30.9113900" lon="35.2905100">
<ele>-231.000000</ele>
<time>2023-02-01T10:53:28.799Z</time>
</trkpt>
<trkpt lat="30.9112400" lon="35.2907000">
<ele>-232.860001</ele>
<time>2023-02-01T10:53:28.799Z</time>
</trkpt>
<trkpt lat="30.9110500" lon="35.2908400">
<ele>-236.010010</ele>
<time>2023-02-01T10:53:28.799Z</time>
</trkpt>
<trkpt lat="30.9108300" lon="35.2909400">
<ele>-235.589996</ele>
<time>2023-02-01T10:53:28.799Z</time>
</trkpt>
<trkpt lat="30.9100900" lon="35.2911000">
<ele>-234.000000</ele>
<time>2023-02-01T10:53:28.799Z</time>
</trkpt>
<trkpt lat="30.9099500" lon="35.2911500">
<ele>-234.069992</ele>
<time>2023-02-01T10:53:28.799Z</time>
</trkpt>
<trkpt lat="30.9096800" lon="35.2913100">
<ele>-235.000000</ele>
<time>2023-02-01T10:53:28.799Z</time>
</trkpt>
<trkpt lat="30.9095500" lon="35.2914500">
<ele>-235.050003</ele>
<time>2023-02-01T10:53:28.799Z</time>
</trkpt>
<trkpt lat="30.9094800" lon="35.2915800">
<ele>-235.509995</ele>
<time>2023-02-01T10:53:28.799Z</time>
</trkpt>
<trkpt lat="30.9093100" lon="35.2921800">
<ele>-235.880005</ele>
<time>2023-02-01T10:53:28.799Z</time>
</trkpt>
<trkpt lat="30.9092900" lon="35.2923800">
<ele>-235.569992</ele>
<time>2023-02-01T10:53:28.799Z</time>
</trkpt>
<trkpt lat="30.9093200" lon="35.2925900">
<ele>-235.660004</ele>
<time>2023-02-01T10:53:28.799Z</time>
</trkpt>
<trkpt lat="30.9094900" lon="35.2933000">
<ele>-238.529999</ele>
<time>2023-02-01T10:53:28.799Z</time>
</trkpt>
<trkpt lat="30.9095500" lon="35.2934700">
<ele>-238.220001</ele>
<time>2023-02-01T10:53:28.799Z</time>
</trkpt>
<trkpt lat="30.9097200" lon="35.2937900">
<ele>-240.939987</ele>
<time>2023-02-01T10:53:28.799Z</time>
</trkpt>
<trkpt lat="30.9097900" lon="35.2940400">
<ele>-239.800003</ele>
<time>2023-02-01T10:53:28.799Z</time>
</trkpt>
<trkpt lat="30.9098000" lon="35.2943100">
<ele>-241.059998</ele>
<time>2023-02-01T10:53:28.799Z</time>
</trkpt>
<trkpt lat="30.9098500" lon="35.2947000">
<ele>-243.880005</ele>
<time>2023-02-01T10:53:28.799Z</time>
</trkpt>
<trkpt lat="30.9098700" lon="35.2949100">
<ele>-244.210007</ele>
<time>2023-02-01T10:53:28.799Z</time>
</trkpt>
<trkpt lat="30.9098400" lon="35.2954400">
<ele>-246.659988</ele>
<time>2023-02-01T10:53:28.799Z</time>
</trkpt>
<trkpt lat="30.9098100" lon="35.2956500">
<ele>-246.710007</ele>
<time>2023-02-01T10:53:28.799Z</time>
</trkpt>
<trkpt lat="30.9097500" lon="35.2958600">
<ele>-246.520004</ele>
<time>2023-02-01T10:53:28.799Z</time>
</trkpt>
<trkpt lat="30.9095400" lon="35.2963700">
<ele>-242.710007</ele>
<time>2023-02-01T10:53:28.799Z</time>
</trkpt>
<trkpt lat="30.9094700" lon="35.2965100">
<ele>-241.270004</ele>
<time>2023-02-01T10:53:28.799Z</time>
</trkpt>
<trkpt lat="30.9093700" lon="35.2966400">
<ele>-240.139999</ele>
<time>2023-02-01T10:53:28.799Z</time>
</trkpt>
<trkpt lat="30.9089600" lon="35.2969500">
<ele>-244.910004</ele>
<time>2023-02-01T10:53:28.799Z</time>
</trkpt>
<trkpt lat="30.9087000" lon="35.2970900">
<ele>-245.459991</ele>
<time>2023-02-01T10:53:28.799Z</time>
</trkpt>
<trkpt lat="30.9083900" lon="35.2972100">
<ele>-246.610001</ele>
<time>2023-02-01T10:53:28.799Z</time>
</trkpt>
<trkpt lat="30.9083400" lon="35.2972400">
<ele>-246.950012</ele>
<time>2023-02-01T10:53:28.799Z</time>
</trkpt>
<trkpt lat="30.9082600" lon="35.2973200">
<ele>-247.000000</ele>
<time>2023-02-01T10:53:28.799Z</time>
</trkpt>
<trkpt lat="30.9081700" lon="35.2974900">
<ele>-247.000000</ele>
<time>2023-02-01T10:53:28.799Z</time>
</trkpt>
<trkpt lat="30.9081100" lon="35.2977800">
<ele>-246.800003</ele>
<time>2023-02-01T10:53:28.799Z</time>
</trkpt>
<trkpt lat="30.9080400" lon="35.2979700">
<ele>-246.350006</ele>
<time>2023-02-01T10:53:28.799Z</time>
</trkpt>
<trkpt lat="30.9079900" lon="35.2982500">
<ele>-245.869995</ele>
<time>2023-02-01T10:53:28.799Z</time>
</trkpt>
<trkpt lat="30.9080000" lon="35.2984400">
<ele>-245.600006</ele>
<time>2023-02-01T10:53:28.799Z</time>
</trkpt>
<trkpt lat="30.9080200" lon="35.2987000">
<ele>-244.460007</ele>
<time>2023-02-01T10:53:28.799Z</time>
</trkpt>
<trkpt lat="30.9080900" lon="35.2990600">
<ele>-241.720001</ele>
<time>2023-02-01T10:53:28.799Z</time>
</trkpt>
<trkpt lat="30.9081000" lon="35.2997500">
<ele>-242.699997</ele>
<time>2023-02-01T10:53:28.799Z</time>
</trkpt>
<trkpt lat="30.9082300" lon="35.3005400">
<ele>-246.149994</ele>
<time>2023-02-01T10:53:28.799Z</time>
</trkpt>
<trkpt lat="30.9082800" lon="35.3007600">
<ele>-245.909988</ele>
<time>2023-02-01T10:53:28.799Z</time>
</trkpt>
<trkpt lat="30.9083400" lon="35.3009500">
<ele>-245.840012</ele>
<time>2023-02-01T10:53:28.799Z</time>
</trkpt>
<trkpt lat="30.9084200" lon="35.3011200">
<ele>-245.730011</ele>
<time>2023-02-01T10:53:28.799Z</time>
</trkpt>
<trkpt lat="30.9085600" lon="35.3013300">
<ele>-245.099991</ele>
<time>2023-02-01T10:53:28.799Z</time>
</trkpt>
<trkpt lat="30.9086700" lon="35.3014500">
<ele>-243.779999</ele>
<time>2023-02-01T10:53:28.799Z</time>
</trkpt>
<trkpt lat="30.9087800" lon="35.3015200">
<ele>-242.470001</ele>
<time>2023-02-01T10:53:28.799Z</time>
</trkpt>
<trkpt lat="30.9088900" lon="35.3015400">
<ele>-242.569992</ele>
<time>2023-02-01T10:53:28.799Z</time>
</trkpt>
<trkpt lat="30.9089400" lon="35.3015300">
<ele>-243.570007</ele>
<time>2023-02-01T10:53:28.799Z</time>
</trkpt>
<trkpt lat="30.9090400" lon="35.3014800">
<ele>-246.529999</ele>
<time>2023-02-01T10:53:28.799Z</time>
</trkpt>
<trkpt lat="30.9095800" lon="35.3010600">
<ele>-253.020004</ele>
<time>2023-02-01T10:53:28.799Z</time>
</trkpt>
<trkpt lat="30.9096700" lon="35.3010100">
<ele>-252.830002</ele>
<time>2023-02-01T10:53:28.799Z</time>
</trkpt>
<trkpt lat="30.9098100" lon="35.3009900">
<ele>-252.499985</ele>
<time>2023-02-01T10:53:28.799Z</time>
</trkpt>
<trkpt lat="30.9099000" lon="35.3010300">
<ele>-252.289993</ele>
<time>2023-02-01T10:53:28.799Z</time>
</trkpt>
<trkpt lat="30.9100100" lon="35.3011000">
<ele>-252.770004</ele>
<time>2023-02-01T10:53:28.799Z</time>
</trkpt>
<trkpt lat="30.9102000" lon="35.3012700">
<ele>-251.660004</ele>
<time>2023-02-01T10:53:28.799Z</time>
</trkpt>
<trkpt lat="30.9103400" lon="35.3014500">
<ele>-250.700012</ele>
<time>2023-02-01T10:53:28.799Z</time>
</trkpt>
<trkpt lat="30.9104000" lon="35.3015800">
<ele>-249.909988</ele>
<time>2023-02-01T10:53:28.799Z</time>
</trkpt>
<trkpt lat="30.9104400" lon="35.3018100">
<ele>-251.129990</ele>
<time>2023-02-01T10:53:28.799Z</time>
</trkpt>
<trkpt lat="30.9104700" lon="35.3021700">
<ele>-253.610016</ele>
<time>2023-02-01T10:53:28.799Z</time>
</trkpt>
<trkpt lat="30.9104800" lon="35.3023400">
<ele>-253.619995</ele>
<time>2023-02-01T10:53:28.799Z</time>
</trkpt>
<trkpt lat="30.9104600" lon="35.3024300">
<ele>-253.800003</ele>
<time>2023-02-01T10:53:28.799Z</time>
</trkpt>
<trkpt lat="30.9104400" lon="35.3025200">
<ele>-254.039993</ele>
<time>2023-02-01T10:53:28.799Z</time>
</trkpt>
<trkpt lat="30.9103700" lon="35.3026700">
<ele>-255.139999</ele>
<time>2023-02-01T10:53:28.799Z</time>
</trkpt>
<trkpt lat="30.9102200" lon="35.3028900">
<ele>-256.100006</ele>
<time>2023-02-01T10:53:28.799Z</time>
</trkpt>
<trkpt lat="30.9101400" lon="35.3030500">
<ele>-255.979996</ele>
<time>2023-02-01T10:53:28.799Z</time>
</trkpt>
<trkpt lat="30.9100800" lon="35.3032100">
<ele>-255.920013</ele>
<time>2023-02-01T10:53:28.799Z</time>
</trkpt>
<trkpt lat="30.9100500" lon="35.3033700">
<ele>-256.059998</ele>
<time>2023-02-01T10:53:28.799Z</time>
</trkpt>
<trkpt lat="30.9100800" lon="35.3037700">
<ele>-253.439987</ele>
<time>2023-02-01T10:53:28.799Z</time>
</trkpt>
<trkpt lat="30.9101700" lon="35.3042200">
<ele>-248.349991</ele>
<time>2023-02-01T10:53:28.799Z</time>
</trkpt>
<trkpt lat="30.9102500" lon="35.3045400">
<ele>-248.110016</ele>
<time>2023-02-01T10:53:28.799Z</time>
</trkpt>
<trkpt lat="30.9104400" lon="35.3051400">
<ele>-247.419998</ele>
<time>2023-02-01T10:53:28.799Z</time>
</trkpt>
<trkpt lat="30.9105000" lon="35.3054500">
<ele>-247.570007</ele>
<time>2023-02-01T10:53:28.799Z</time>
</trkpt>
<trkpt lat="30.9105100" lon="35.3057300">
<ele>-248.809998</ele>
<time>2023-02-01T10:53:28.799Z</time>
</trkpt>
<trkpt lat="30.9104900" lon="35.3059100">
<ele>-249.559998</ele>
<time>2023-02-01T10:53:28.799Z</time>
</trkpt>
<trkpt lat="30.9104500" lon="35.3060600">
<ele>-249.940002</ele>
<time>2023-02-01T10:53:28.799Z</time>
</trkpt>
<trkpt lat="30.9103900" lon="35.3061900">
<ele>-249.840012</ele>
<time>2023-02-01T10:53:28.799Z</time>
</trkpt>
<trkpt lat="30.9102700" lon="35.3063500">
<ele>-249.710007</ele>
<time>2023-02-01T10:53:28.799Z</time>
</trkpt>
<trkpt lat="30.9102300" lon="35.3063900">
<ele>-250.019989</ele>
<time>2023-02-01T10:53:28.799Z</time>
</trkpt>
<trkpt lat="30.9101000" lon="35.3064600">
<ele>-251.819992</ele>
<time>2023-02-01T10:53:28.799Z</time>
</trkpt>
<trkpt lat="30.9098200" lon="35.3065000">
<ele>-254.050003</ele>
<time>2023-02-01T10:53:28.799Z</time>
</trkpt>
<trkpt lat="30.9097600" lon="35.3065100">
<ele>-254.279999</ele>
<time>2023-02-01T10:53:28.799Z</time>
</trkpt>
<trkpt lat="30.9097100" lon="35.3065400">
<ele>-254.350006</ele>
<time>2023-02-01T10:53:28.799Z</time>
</trkpt>
<trkpt lat="30.9095900" lon="35.3067000">
<ele>-253.319992</ele>
<time>2023-02-01T10:53:28.799Z</time>
</trkpt>
<trkpt lat="30.9094900" lon="35.3068700">
<ele>-254.100006</ele>
<time>2023-02-01T10:53:28.799Z</time>
</trkpt>
<trkpt lat="30.9094600" lon="35.3069700">
<ele>-254.910004</ele>
<time>2023-02-01T10:53:28.799Z</time>
</trkpt>
<trkpt lat="30.9094600" lon="35.3071100">
<ele>-254.440002</ele>
<time>2023-02-01T10:53:28.799Z</time>
</trkpt>
<trkpt lat="30.9095200" lon="35.3072000">
<ele>-254.330002</ele>
<time>2023-02-01T10:53:28.799Z</time>
</trkpt>
<trkpt lat="30.9097900" lon="35.3072800">
<ele>-253.569992</ele>
<time>2023-02-01T10:53:28.799Z</time>
</trkpt>
<trkpt lat="30.9099500" lon="35.3073500">
<ele>-250.440002</ele>
<time>2023-02-01T10:53:28.799Z</time>
</trkpt>
<trkpt lat="30.9099900" lon="35.3073900">
<ele>-249.580002</ele>
<time>2023-02-01T10:53:28.799Z</time>
</trkpt>
<trkpt lat="30.9100400" lon="35.3074700">
<ele>-247.559998</ele>
<time>2023-02-01T10:53:28.799Z</time>
</trkpt>
<trkpt lat="30.9100800" lon="35.3075600">
<ele>-245.589996</ele>
<time>2023-02-01T10:53:28.799Z</time>
</trkpt>
<trkpt lat="30.9100900" lon="35.3076400">
<ele>-244.920013</ele>
<time>2023-02-01T10:53:28.799Z</time>
</trkpt>
<trkpt lat="30.9100800" lon="35.3077200">
<ele>-244.929993</ele>
<time>2023-02-01T10:53:28.799Z</time>
</trkpt>
<trkpt lat="30.9100400" lon="35.3077800">
<ele>-245.809998</ele>
<time>2023-02-01T10:53:28.799Z</time>
</trkpt>
<trkpt lat="30.9100000" lon="35.3077900">
<ele>-246.780014</ele>
<time>2023-02-01T10:53:28.799Z</time>
</trkpt>
<trkpt lat="30.9094800" lon="35.3076800">
<ele>-252.799988</ele>
<time>2023-02-01T10:53:28.799Z</time>
</trkpt>
<trkpt lat="30.9093400" lon="35.3077000">
<ele>-251.389999</ele>
<time>2023-02-01T10:53:28.799Z</time>
</trkpt>
<trkpt lat="30.9092500" lon="35.3077500">
<ele>-250.130005</ele>
<time>2023-02-01T10:53:28.799Z</time>
</trkpt>
<trkpt lat="30.9091500" lon="35.3078800">
<ele>-249.979996</ele>
<time>2023-02-01T10:53:28.799Z</time>
</trkpt>
<trkpt lat="30.9090900" lon="35.3080100">
<ele>-250.959991</ele>
<time>2023-02-01T10:53:28.799Z</time>
</trkpt>
<trkpt lat="30.9090900" lon="35.3081600">
<ele>-253.160004</ele>
<time>2023-02-01T10:53:28.799Z</time>
</trkpt>
<trkpt lat="30.9090100" lon="35.3084800">
<ele>-256.990021</ele>
<time>2023-02-01T10:53:28.799Z</time>
</trkpt>
<trkpt lat="30.9090100" lon="35.3087200">
<ele>-257.260010</ele>
<time>2023-02-01T10:53:28.799Z</time>
</trkpt>
<trkpt lat="30.9090500" lon="35.3088500">
<ele>-256.940002</ele>
<time>2023-02-01T10:53:28.799Z</time>
</trkpt>
<trkpt lat="30.9091100" lon="35.3089600">
<ele>-256.209991</ele>
<time>2023-02-01T10:53:28.799Z</time>
</trkpt>
<trkpt lat="30.9091500" lon="35.3089800">
<ele>-256.220001</ele>
<time>2023-02-01T10:53:28.799Z</time>
</trkpt>
<trkpt lat="30.9097700" lon="35.3091400">
<ele>-256.759979</ele>
<time>2023-02-01T10:53:28.799Z</time>
</trkpt>
<trkpt lat="30.9098800" lon="35.3091800">
<ele>-254.700012</ele>
<time>2023-02-01T10:53:28.799Z</time>
</trkpt>
<trkpt lat="30.9100000" lon="35.3092500">
<ele>-253.200012</ele>
<time>2023-02-01T10:53:28.799Z</time>
</trkpt>
<trkpt lat="30.9100600" lon="35.3093100">
<ele>-252.990005</ele>
<time>2023-02-01T10:53:28.799Z</time>
</trkpt>
<trkpt lat="30.9102100" lon="35.3095700">
<ele>-256.260010</ele>
<time>2023-02-01T10:53:28.799Z</time>
</trkpt>
<trkpt lat="30.9103400" lon="35.3097300">
<ele>-258.420013</ele>
<time>2023-02-01T10:53:28.799Z</time>
</trkpt>
<trkpt lat="30.9104000" lon="35.3098300">
<ele>-256.869995</ele>
<time>2023-02-01T10:53:28.799Z</time>
</trkpt>
<trkpt lat="30.9104900" lon="35.3101100">
<ele>-255.989990</ele>
<time>2023-02-01T10:53:28.799Z</time>
</trkpt>
<trkpt lat="30.9105700" lon="35.3102600">
<ele>-256.750000</ele>
<time>2023-02-01T10:53:28.799Z</time>
</trkpt>
<trkpt lat="30.9106800" lon="35.3103800">
<ele>-258.149994</ele>
<time>2023-02-01T10:53:28.799Z</time>
</trkpt>
<trkpt lat="30.9109200" lon="35.3105900">
<ele>-260.269989</ele>
<time>2023-02-01T10:53:28.799Z</time>
</trkpt>
<trkpt lat="30.9109600" lon="35.3106500">
<ele>-260.139984</ele>
<time>2023-02-01T10:53:28.799Z</time>
</trkpt>
<trkpt lat="30.9110300" lon="35.3108400">
<ele>-261.559998</ele>
<time>2023-02-01T10:53:28.799Z</time>
</trkpt>
<trkpt lat="30.9110300" lon="35.3109700">
<ele>-263.429993</ele>
<time>2023-02-01T10:53:28.799Z</time>
</trkpt>
<trkpt lat="30.9110000" lon="35.3111500">
<ele>-265.220001</ele>
<time>2023-02-01T10:53:28.799Z</time>
</trkpt>
<trkpt lat="30.9108600" lon="35.3113500">
<ele>-264.140015</ele>
<time>2023-02-01T10:53:28.799Z</time>
</trkpt>
<trkpt lat="30.9105000" lon="35.3115700">
<ele>-259.440002</ele>
<time>2023-02-01T10:53:28.799Z</time>
</trkpt>
<trkpt lat="30.9102900" lon="35.3117400">
<ele>-256.570007</ele>
<time>2023-02-01T10:53:28.799Z</time>
</trkpt>
<trkpt lat="30.9101800" lon="35.3118500">
<ele>-256.369995</ele>
<time>2023-02-01T10:53:28.799Z</time>
</trkpt>
<trkpt lat="30.9100500" lon="35.3120100">
<ele>-258.040009</ele>
<time>2023-02-01T10:53:28.799Z</time>
</trkpt>
<trkpt lat="30.9099700" lon="35.3121700">
<ele>-259.440002</ele>
<time>2023-02-01T10:53:28.799Z</time>
</trkpt>
<trkpt lat="30.9099400" lon="35.3122500">
<ele>-259.350006</ele>
<time>2023-02-01T10:53:28.799Z</time>
</trkpt>
<trkpt lat="30.9099100" lon="35.3125600">
<ele>-258.649994</ele>
<time>2023-02-01T10:53:28.799Z</time>
</trkpt>
<trkpt lat="30.9099400" lon="35.3127200">
<ele>-258.190002</ele>
<time>2023-02-01T10:53:28.799Z</time>
</trkpt>
<trkpt lat="30.9099700" lon="35.3128000">
<ele>-258.269989</ele>
<time>2023-02-01T10:53:28.799Z</time>
</trkpt>
<trkpt lat="30.9100700" lon="35.3129200">
<ele>-260.769989</ele>
<time>2023-02-01T10:53:28.799Z</time>
</trkpt>
<trkpt lat="30.9101700" lon="35.3129700">
<ele>-264.290009</ele>
<time>2023-02-01T10:53:28.799Z</time>
</trkpt>
<trkpt lat="30.9103100" lon="35.3130200">
<ele>-268.339996</ele>
<time>2023-02-01T10:53:28.799Z</time>
</trkpt>
<trkpt lat="30.9104500" lon="35.3131200">
<ele>-268.389984</ele>
<time>2023-02-01T10:53:28.799Z</time>
</trkpt>
<trkpt lat="30.9105100" lon="35.3131800">
<ele>-269.130005</ele>
<time>2023-02-01T10:53:28.799Z</time>
</trkpt>
<trkpt lat="30.9105600" lon="35.3132800">
<ele>-270.929993</ele>
<time>2023-02-01T10:53:28.799Z</time>
</trkpt>
<trkpt lat="30.9105700" lon="35.3133500">
<ele>-271.630005</ele>
<time>2023-02-01T10:53:28.799Z</time>
</trkpt>
<trkpt lat="30.9105500" lon="35.3134800">
<ele>-271.940002</ele>
<time>2023-02-01T10:53:28.799Z</time>
</trkpt>
<trkpt lat="30.9105000" lon="35.3136000">
<ele>-271.579987</ele>
<time>2023-02-01T10:53:28.799Z</time>
</trkpt>
<trkpt lat="30.9104100" lon="35.3137000">
<ele>-270.190002</ele>
<time>2023-02-01T10:53:28.799Z</time>
</trkpt>
<trkpt lat="30.9103600" lon="35.3137400">
<ele>-269.910004</ele>
<time>2023-02-01T10:53:28.799Z</time>
</trkpt>
<trkpt lat="30.9099500" lon="35.3139100">
<ele>-266.809998</ele>
<time>2023-02-01T10:53:28.799Z</time>
</trkpt>
<trkpt lat="30.9097900" lon="35.3140200">
<ele>-264.979980</ele>
<time>2023-02-01T10:53:28.799Z</time>
</trkpt>
<trkpt lat="30.9094300" lon="35.3144400">
<ele>-269.700012</ele>
<time>2023-02-01T10:53:28.799Z</time>
</trkpt>
<trkpt lat="30.9092400" lon="35.3146400">
<ele>-273.049988</ele>
<time>2023-02-01T10:53:28.799Z</time>
</trkpt>
<trkpt lat="30.9089800" lon="35.3148500">
<ele>-272.960022</ele>
<time>2023-02-01T10:53:28.799Z</time>
</trkpt>
<trkpt lat="30.9086500" lon="35.3150600">
<ele>-272.850006</ele>
<time>2023-02-01T10:53:28.799Z</time>
</trkpt>
<trkpt lat="30.9085600" lon="35.3151500">
<ele>-273.079987</ele>
<time>2023-02-01T10:53:28.799Z</time>
</trkpt>
<trkpt lat="30.9085100" lon="35.3152900">
<ele>-272.980011</ele>
<time>2023-02-01T10:53:28.799Z</time>
</trkpt>
<trkpt lat="30.9085000" lon="35.3153600">
<ele>-272.880005</ele>
<time>2023-02-01T10:53:28.799Z</time>
</trkpt>
<trkpt lat="30.9084900" lon="35.3156400">
<ele>-271.850006</ele>
<time>2023-02-01T10:53:28.799Z</time>
</trkpt>
<trkpt lat="30.9085200" lon="35.3161500">
<ele>-270.970001</ele>
<time>2023-02-01T10:53:28.799Z</time>
</trkpt>
<trkpt lat="30.9085100" lon="35.3164100">
<ele>-273.859985</ele>
<time>2023-02-01T10:53:28.799Z</time>
</trkpt>
<trkpt lat="30.9084800" lon="35.3167400">
<ele>-277.350006</ele>
<time>2023-02-01T10:53:28.799Z</time>
</trkpt>
<trkpt lat="30.9083900" lon="35.3173100">
<ele>-281.369995</ele>
<time>2023-02-01T10:53:28.799Z</time>
</trkpt>
<trkpt lat="30.9083700" lon="35.3176400">
<ele>-282.140015</ele>
<time>2023-02-01T10:53:28.799Z</time>
</trkpt>
<trkpt lat="30.9083900" lon="35.3178900">
<ele>-282.550018</ele>
<time>2023-02-01T10:53:28.799Z</time>
</trkpt>
<trkpt lat="30.9084000" lon="35.3183100">
<ele>-283.020020</ele>
<time>2023-02-01T10:53:28.799Z</time>
</trkpt>
<trkpt lat="30.9084700" lon="35.3187400">
<ele>-281.309998</ele>
<time>2023-02-01T10:53:28.799Z</time>
</trkpt>
<trkpt lat="30.9084800" lon="35.3189100">
<ele>-280.510010</ele>
<time>2023-02-01T10:53:28.799Z</time>
</trkpt>
<trkpt lat="30.9085200" lon="35.3191700">
<ele>-280.660004</ele>
<time>2023-02-01T10:53:28.799Z</time>
</trkpt>
<trkpt lat="30.9085500" lon="35.3195100">
<ele>-280.830017</ele>
<time>2023-02-01T10:53:28.799Z</time>
</trkpt>
<trkpt lat="30.9085500" lon="35.3200600">
<ele>-281.750000</ele>
<time>2023-02-01T10:53:28.799Z</time>
</trkpt>
<trkpt lat="30.9085600" lon="35.3204500">
<ele>-283.980011</ele>
<time>2023-02-01T10:53:28.799Z</time>
</trkpt>
<trkpt lat="30.9085000" lon="35.3209400">
<ele>-285.679993</ele>
<time>2023-02-01T10:53:28.799Z</time>
</trkpt>
<trkpt lat="30.9085000" lon="35.3209900">
<ele>-285.709991</ele>
<time>2023-02-01T10:53:28.799Z</time>
</trkpt>
<trkpt lat="30.9084300" lon="35.3211400">
<ele>-286.509979</ele>
<time>2023-02-01T10:53:28.799Z</time>
</trkpt>
<trkpt lat="30.9082600" lon="35.3214400">
<ele>-288.860016</ele>
<time>2023-02-01T10:53:28.799Z</time>
</trkpt>
<trkpt lat="30.9082600" lon="35.3216900">
<ele>-288.260010</ele>
<time>2023-02-01T10:53:28.799Z</time>
</trkpt>
<trkpt lat="30.9084800" lon="35.3220200">
<ele>-288.929993</ele>
<time>2023-02-01T10:53:28.799Z</time>
</trkpt>
<trkpt lat="30.9086200" lon="35.3222300">
<ele>-290.119995</ele>
<time>2023-02-01T10:53:28.799Z</time>
</trkpt>
<trkpt lat="30.9094500" lon="35.3240200">
<ele>-290.640015</ele>
<time>2023-02-01T10:53:28.799Z</time>
</trkpt>
<trkpt lat="30.9096700" lon="35.3245600">
<ele>-289.740021</ele>
<time>2023-02-01T10:53:28.799Z</time>
</trkpt>
<trkpt lat="30.9103100" lon="35.3257400">
<ele>-289.250000</ele>
<time>2023-02-01T10:53:28.799Z</time>
</trkpt>
<trkpt lat="30.9105800" lon="35.3265800">
<ele>-285.179993</ele>
<time>2023-02-01T10:53:28.799Z</time>
</trkpt>
<trkpt lat="30.9106200" lon="35.3269200">
<ele>-290.010010</ele>
<time>2023-02-01T10:53:28.799Z</time>
</trkpt>
<trkpt lat="30.9107000" lon="35.3277600">
<ele>-291.279999</ele>
<time>2023-02-01T10:53:28.799Z</time>
</trkpt>
<trkpt lat="30.9108600" lon="35.3285300">
<ele>-296.000000</ele>
<time>2023-02-01T10:53:28.799Z</time>
</trkpt>
<trkpt lat="30.9109900" lon="35.3289000">
<ele>-295.559998</ele>
<time>2023-02-01T10:53:28.799Z</time>
</trkpt>
<trkpt lat="30.9111700" lon="35.3292900">
<ele>-296.750000</ele>
<time>2023-02-01T10:53:28.799Z</time>
</trkpt>
<trkpt lat="30.9116000" lon="35.3296800">
<ele>-300.089996</ele>
<time>2023-02-01T10:53:28.799Z</time>
</trkpt>
<trkpt lat="30.9122200" lon="35.3299600">
<ele>-295.609985</ele>
<time>2023-02-01T10:53:28.799Z</time>
</trkpt>
<trkpt lat="30.9128300" lon="35.3302300">
<ele>-294.609985</ele>
<time>2023-02-01T10:53:28.799Z</time>
</trkpt>
<trkpt lat="30.9135900" lon="35.3304800">
<ele>-299.720001</ele>
<time>2023-02-01T10:53:28.799Z</time>
</trkpt>
<trkpt lat="30.9140800" lon="35.3306300">
<ele>-302.000000</ele>
<time>2023-02-01T10:53:28.799Z</time>
</trkpt>
<trkpt lat="30.9145600" lon="35.3307900">
<ele>-297.579987</ele>
<time>2023-02-01T10:53:28.799Z</time>
</trkpt>
<trkpt lat="30.9150500" lon="35.3309400">
<ele>-299.399994</ele>
<time>2023-02-01T10:53:28.799Z</time>
</trkpt>
<trkpt lat="30.9154400" lon="35.3313400">
<ele>-301.589996</ele>
<time>2023-02-01T10:53:28.799Z</time>
</trkpt>
<trkpt lat="30.9157900" lon="35.3318300">
<ele>-302.260010</ele>
<time>2023-02-01T10:53:28.799Z</time>
</trkpt>
<trkpt lat="30.9161300" lon="35.3323200">
<ele>-303.600006</ele>
<time>2023-02-01T10:53:28.799Z</time>
</trkpt>
<trkpt lat="30.9165400" lon="35.3330700">
<ele>-305.450012</ele>
<time>2023-02-01T10:53:28.799Z</time>
</trkpt>
<trkpt lat="30.9167500" lon="35.3338200">
<ele>-303.299988</ele>
<time>2023-02-01T10:53:28.799Z</time>
</trkpt>
<trkpt lat="30.9169600" lon="35.3345600">
<ele>-305.929993</ele>
<time>2023-02-01T10:53:28.799Z</time>
</trkpt>
<trkpt lat="30.9171400" lon="35.3351700">
<ele>-307.359985</ele>
<time>2023-02-01T10:53:28.799Z</time>
</trkpt>
<trkpt lat="30.9173100" lon="35.3357700">
<ele>-310.239990</ele>
<time>2023-02-01T10:53:28.799Z</time>
</trkpt>
<trkpt lat="30.9175400" lon="35.3364800">
<ele>-310.619995</ele>
<time>2023-02-01T10:53:28.799Z</time>
</trkpt>
<trkpt lat="30.9177700" lon="35.3372000">
<ele>-312.000000</ele>
<time>2023-02-01T10:53:28.799Z</time>
</trkpt>
<trkpt lat="30.9177700" lon="35.3380000">
<ele>-311.270020</ele>
<time>2023-02-01T10:53:28.799Z</time>
</trkpt>
<trkpt lat="30.9178400" lon="35.3387100">
<ele>-313.619995</ele>
<time>2023-02-01T10:53:28.799Z</time>
</trkpt>
<trkpt lat="30.9178500" lon="35.3396100">
<ele>-303.540009</ele>
<time>2023-02-01T10:53:28.799Z</time>
</trkpt>
<trkpt lat="30.9176400" lon="35.3403500">
<ele>-306.769989</ele>
<time>2023-02-01T10:53:28.799Z</time>
</trkpt>
<trkpt lat="30.9175700" lon="35.3406700">
<ele>-309.410004</ele>
<time>2023-02-01T10:53:28.799Z</time>
</trkpt>
<trkpt lat="30.9175600" lon="35.3410700">
<ele>-310.179993</ele>
<time>2023-02-01T10:53:28.799Z</time>
</trkpt>
<trkpt lat="30.9178100" lon="35.3418200">
<ele>-310.720001</ele>
<time>2023-02-01T10:53:28.799Z</time>
</trkpt>
<trkpt lat="30.9182800" lon="35.3423600">
<ele>-313.340027</ele>
<time>2023-02-01T10:53:28.799Z</time>
</trkpt>
<trkpt lat="30.9186400" lon="35.3426600">
<ele>-312.980011</ele>
<time>2023-02-01T10:53:28.799Z</time>
</trkpt>
<trkpt lat="30.9190400" lon="35.3428900">
<ele>-313.959991</ele>
<time>2023-02-01T10:53:28.799Z</time>
</trkpt>
<trkpt lat="30.9194700" lon="35.3431400">
<ele>-314.790009</ele>
<time>2023-02-01T10:53:28.799Z</time>
</trkpt>
<trkpt lat="30.9201100" lon="35.3435300">
<ele>-310.869995</ele>
<time>2023-02-01T10:53:28.799Z</time>
</trkpt>
<trkpt lat="30.9205000" lon="35.3439200">
<ele>-316.420013</ele>
<time>2023-02-01T10:53:28.799Z</time>
</trkpt>
<trkpt lat="30.9205600" lon="35.3440600">
<ele>-318.260010</ele>
<time>2023-02-01T10:53:28.799Z</time>
</trkpt>
<trkpt lat="30.9208500" lon="35.3445300">
<ele>-321.160004</ele>
<time>2023-02-01T10:53:28.799Z</time>
</trkpt>
<trkpt lat="30.9211300" lon="35.3450000">
<ele>-317.069977</ele>
<time>2023-02-01T10:53:28.799Z</time>
</trkpt>
<trkpt lat="30.9213900" lon="35.3457900">
<ele>-319.000000</ele>
<time>2023-02-01T10:53:28.799Z</time>
</trkpt>
<trkpt lat="30.9215200" lon="35.3466800">
<ele>-322.529999</ele>
<time>2023-02-01T10:53:28.799Z</time>
</trkpt>
<trkpt lat="30.9217000" lon="35.3473900">
<ele>-321.949982</ele>
<time>2023-02-01T10:53:28.799Z</time>
</trkpt>
<trkpt lat="30.9217900" lon="35.3482400">
<ele>-324.959991</ele>
<time>2023-02-01T10:53:28.799Z</time>
</trkpt>
<trkpt lat="30.9220400" lon="35.3487600">
<ele>-324.959991</ele>
<time>2023-02-01T10:53:28.799Z</time>
</trkpt>
<trkpt lat="30.9223000" lon="35.3492900">
<ele>-323.199982</ele>
<time>2023-02-01T10:53:28.799Z</time>
</trkpt>
<trkpt lat="30.9225500" lon="35.3498100">
<ele>-322.859985</ele>
<time>2023-02-01T10:53:28.799Z</time>
</trkpt>
<trkpt lat="30.9225900" lon="35.3499000">
<ele>-322.049988</ele>
<time>2023-02-01T10:53:28.799Z</time>
</trkpt>
<trkpt lat="30.9229600" lon="35.3502700">
<ele>-322.039978</ele>
<time>2023-02-01T10:53:28.799Z</time>
</trkpt>
<trkpt lat="30.9233400" lon="35.3506500">
<ele>-323.980011</ele>
<time>2023-02-01T10:53:28.799Z</time>
</trkpt>
<trkpt lat="30.9237100" lon="35.3510300">
<ele>-319.200012</ele>
<time>2023-02-01T10:53:28.799Z</time>
</trkpt>
<trkpt lat="30.9240800" lon="35.3514000">
<ele>-319.339996</ele>
<time>2023-02-01T10:53:28.799Z</time>
</trkpt>
<trkpt lat="30.9241200" lon="35.3514400">
<ele>-319.660004</ele>
<time>2023-02-01T10:53:28.799Z</time>
</trkpt>
<trkpt lat="30.9247400" lon="35.3518200">
<ele>-316.420013</ele>
<time>2023-02-01T10:53:28.799Z</time>
</trkpt>
<trkpt lat="30.9251500" lon="35.3521200">
<ele>-316.930023</ele>
<time>2023-02-01T10:53:28.799Z</time>
</trkpt>
<trkpt lat="30.9255600" lon="35.3524100">
<ele>-319.399994</ele>
<time>2023-02-01T10:53:28.799Z</time>
</trkpt>
<trkpt lat="30.9259700" lon="35.3527100">
<ele>-324.179993</ele>
<time>2023-02-01T10:53:28.799Z</time>
</trkpt>
<trkpt lat="30.9263600" lon="35.3530400">
<ele>-326.799988</ele>
<time>2023-02-01T10:53:28.799Z</time>
</trkpt>
<trkpt lat="30.9267500" lon="35.3533600">
<ele>-328.299988</ele>
<time>2023-02-01T10:53:28.799Z</time>
</trkpt>
<trkpt lat="30.9270500" lon="35.3539300">
<ele>-329.560028</ele>
<time>2023-02-01T10:53:28.799Z</time>
</trkpt>
<trkpt lat="30.9273400" lon="35.3544900">
<ele>-330.679993</ele>
<time>2023-02-01T10:53:28.799Z</time>
</trkpt>
<trkpt lat="30.9277900" lon="35.3551400">
<ele>-329.850006</ele>
<time>2023-02-01T10:53:28.799Z</time>
</trkpt>
<trkpt lat="30.9279800" lon="35.3553100">
<ele>-329.779968</ele>
<time>2023-02-01T10:53:28.799Z</time>
</trkpt>
<trkpt lat="30.9281200" lon="35.3554300">
<ele>-329.739990</ele>
<time>2023-02-01T10:53:28.799Z</time>
</trkpt>
<trkpt lat="30.9281800" lon="35.3554800">
<ele>-329.679993</ele>
<time>2023-02-01T10:53:28.799Z</time>
</trkpt>
<trkpt lat="30.9285400" lon="35.3556100">
<ele>-329.550018</ele>
<time>2023-02-01T10:53:28.799Z</time>
</trkpt>
<trkpt lat="30.9290500" lon="35.3556100">
<ele>-330.149994</ele>
<time>2023-02-01T10:53:28.799Z</time>
</trkpt>
<trkpt lat="30.9295600" lon="35.3556200">
<ele>-332.200012</ele>
<time>2023-02-01T10:53:28.799Z</time>
</trkpt>
<trkpt lat="30.9300700" lon="35.3556200">
<ele>-333.760010</ele>
<time>2023-02-01T10:53:28.799Z</time>
</trkpt>
<trkpt lat="30.9305800" lon="35.3556300">
<ele>-332.139984</ele>
<time>2023-02-01T10:53:28.799Z</time>
</trkpt>
<trkpt lat="30.9310900" lon="35.3556300">
<ele>-324.959991</ele>
<time>2023-02-01T10:53:28.799Z</time>
</trkpt>
<trkpt lat="30.9314800" lon="35.3556300">
<ele>-329.579987</ele>
<time>2023-02-01T10:53:28.799Z</time>
</trkpt>
<trkpt lat="30.9317900" lon="35.3555700">
<ele>-329.339996</ele>
<time>2023-02-01T10:53:28.799Z</time>
</trkpt>
<trkpt lat="30.9322500" lon="35.3556700">
<ele>-333.809998</ele>
<time>2023-02-01T10:53:28.799Z</time>
</trkpt>
<trkpt lat="30.9327000" lon="35.3557700">
<ele>-338.380005</ele>
<time>2023-02-01T10:53:28.799Z</time>
</trkpt>
<trkpt lat="30.9332000" lon="35.3560000">
<ele>-336.750000</ele>
<time>2023-02-01T10:53:28.799Z</time>
</trkpt>
<trkpt lat="30.9337000" lon="35.3562300">
<ele>-335.940002</ele>
<time>2023-02-01T10:53:28.799Z</time>
</trkpt>
<trkpt lat="30.9341600" lon="35.3567900">
<ele>-342.600006</ele>
<time>2023-02-01T10:53:28.799Z</time>
</trkpt>
<trkpt lat="30.9344600" lon="35.3572600">
<ele>-340.640015</ele>
<time>2023-02-01T10:53:28.799Z</time>
</trkpt>
<trkpt lat="30.9346800" lon="35.3577700">
<ele>-341.269989</ele>
<time>2023-02-01T10:53:28.799Z</time>
</trkpt>
<trkpt lat="30.9348900" lon="35.3582800">
<ele>-341.220001</ele>
<time>2023-02-01T10:53:28.799Z</time>
</trkpt>
<trkpt lat="30.9349100" lon="35.3584100">
<ele>-340.720001</ele>
<time>2023-02-01T10:53:28.799Z</time>
</trkpt>
<trkpt lat="30.9350300" lon="35.3591600">
<ele>-341.440002</ele>
<time>2023-02-01T10:53:28.799Z</time>
</trkpt>
<trkpt lat="30.9351500" lon="35.3599000">
<ele>-337.089996</ele>
<time>2023-02-01T10:53:28.799Z</time>
</trkpt>
<trkpt lat="30.9352100" lon="35.3606600">
<ele>-339.399994</ele>
<time>2023-02-01T10:53:28.799Z</time>
</trkpt>
<trkpt lat="30.9352700" lon="35.3614200">
<ele>-336.700012</ele>
<time>2023-02-01T10:53:28.799Z</time>
</trkpt>
<trkpt lat="30.9354700" lon="35.3619200">
<ele>-336.240021</ele>
<time>2023-02-01T10:53:28.799Z</time>
</trkpt>
<trkpt lat="30.9356800" lon="35.3624100">
<ele>-338.179993</ele>
<time>2023-02-01T10:53:28.799Z</time>
</trkpt>
<trkpt lat="30.9358800" lon="35.3629100">
<ele>-333.820007</ele>
<time>2023-02-01T10:53:28.799Z</time>
</trkpt>
<trkpt lat="30.9362400" lon="35.3634800">
<ele>-337.119995</ele>
<time>2023-02-01T10:53:28.799Z</time>
</trkpt>
<trkpt lat="30.9367400" lon="35.3639700">
<ele>-343.720001</ele>
<time>2023-02-01T10:53:28.799Z</time>
</trkpt>
<trkpt lat="30.9370200" lon="35.3643300">
<ele>-344.169983</ele>
<time>2023-02-01T10:53:28.799Z</time>
</trkpt>
<trkpt lat="30.9374200" lon="35.3646600">
<ele>-348.910004</ele>
<time>2023-02-01T10:53:28.799Z</time>
</trkpt>
<trkpt lat="30.9378100" lon="35.3649900">
<ele>-341.700012</ele>
<time>2023-02-01T10:53:28.799Z</time>
</trkpt>
<trkpt lat="30.9382900" lon="35.3652900">
<ele>-336.070007</ele>
<time>2023-02-01T10:53:28.799Z</time>
</trkpt>
<trkpt lat="30.9389100" lon="35.3654400">
<ele>-336.500031</ele>
<time>2023-02-01T10:53:28.799Z</time>
</trkpt>
<trkpt lat="30.9395200" lon="35.3655900">
<ele>-343.709991</ele>
<time>2023-02-01T10:53:28.799Z</time>
</trkpt>
<trkpt lat="30.9399100" lon="35.3657500">
<ele>-345.100006</ele>
<time>2023-02-01T10:53:28.799Z</time>
</trkpt>
<trkpt lat="30.9402900" lon="35.3660600">
<ele>-346.399994</ele>
<time>2023-02-01T10:53:28.799Z</time>
</trkpt>
<trkpt lat="30.9405500" lon="35.3663700">
<ele>-347.869995</ele>
<time>2023-02-01T10:53:28.799Z</time>
</trkpt>
<trkpt lat="30.9409500" lon="35.3668600">
<ele>-350.289978</ele>
<time>2023-02-01T10:53:28.799Z</time>
</trkpt>
<trkpt lat="30.9413500" lon="35.3673500">
<ele>-353.010010</ele>
<time>2023-02-01T10:53:28.799Z</time>
</trkpt>
<trkpt lat="30.9418700" lon="35.3680300">
<ele>-355.460022</ele>
<time>2023-02-01T10:53:28.799Z</time>
</trkpt>
<trkpt lat="30.9419800" lon="35.3682500">
<ele>-355.299988</ele>
<time>2023-02-01T10:53:28.799Z</time>
</trkpt>
</trkseg>
</trk>
</gpx>
